<?xml version="1.0" encoding="UTF-8"?>
<gpx version="1.1" creator="https://www.youtrack.es" xsi:schemaLocation="http://www.topografix.com/GPX/1/1 http://www.topografix.com/GPX/1/1/gpx.xsd http://www.garmin.com/xmlschemas/GpxExtensions/v3 http://www.garmin.com/xmlschemas/GpxExtensionsv3.xsd http://www.garmin.com/xmlschemas/TrackPointExtension/v1 http://www.garmin.com/xmlschemas/TrackPointExtensionv1.xsd" xmlns:gpxtpx="http://www.garmin.com/xmlschemas/TrackPointExtension/v1" xmlns:gpxx="http://www.garmin.com/xmlschemas/GpxExtensions/v3" xmlns:xsi="http://www.w3.org/2001/XMLSchema-instance">
  <metadata>
    <link href="https://www.youtrack.es">
      <text>YouTrack.es</text>
    </link>
    <time>2026-05-09T01:44:46Z</time>
  </metadata>
  <trk>
    <src>https://www.youtrack.es</src>
    <link href="https://www.youtrack.es/ruta/16119-dilar-veleta-mulhacen-capileira-dilar">
      <text>YouTrack.es</text>
    </link>
    <trkseg>
      <trkpt lat="36.948351" lon="-3.225764">
        <ele>1164.796</ele>
        <time>2013-07-06T09:10:52Z</time>
      </trkpt>
      <trkpt lat="36.948438" lon="-3.225582">
        <ele>1164.931</ele>
        <time>2013-07-06T09:10:58Z</time>
      </trkpt>
      <trkpt lat="36.94758" lon="-3.227084"/>
      <trkpt lat="36.945799" lon="-3.227507">
        <ele>1177.107</ele>
        <time>2013-07-06T09:13:09Z</time>
      </trkpt>
      <trkpt lat="36.945131" lon="-3.22729"/>
      <trkpt lat="36.944949" lon="-3.227587">
        <ele>1184.277</ele>
        <time>2013-07-06T09:13:48Z</time>
      </trkpt>
      <trkpt lat="36.952635" lon="-3.330917"/>
      <trkpt lat="36.945011" lon="-3.227947">
        <ele>1186.959</ele>
        <time>2013-07-06T09:14:00Z</time>
      </trkpt>
      <trkpt lat="36.945652" lon="-3.228852">
        <ele>1193.637</ele>
        <time>2013-07-06T09:14:37Z</time>
      </trkpt>
      <trkpt lat="36.945745" lon="-3.230016">
        <ele>1197.252</ele>
        <time>2013-07-06T09:15:12Z</time>
      </trkpt>
      <trkpt lat="36.94601" lon="-3.230729"/>
      <trkpt lat="36.946378" lon="-3.233191">
        <ele>1213.451</ele>
        <time>2013-07-06T09:16:50Z</time>
      </trkpt>
      <trkpt lat="36.947069" lon="-3.234316">
        <ele>1221.614</ele>
        <time>2013-07-06T09:17:37Z</time>
      </trkpt>
      <trkpt lat="36.946099" lon="-3.236761">
        <ele>1238.054</ele>
        <time>2013-07-06T09:19:05Z</time>
      </trkpt>
      <trkpt lat="36.946498" lon="-3.237493">
        <ele>1238.109</ele>
        <time>2013-07-06T09:19:24Z</time>
      </trkpt>
      <trkpt lat="36.94618" lon="-3.240805"/>
      <trkpt lat="36.946683" lon="-3.242664">
        <ele>1244.315</ele>
        <time>2013-07-06T09:21:04Z</time>
      </trkpt>
      <trkpt lat="36.947385" lon="-3.243361">
        <ele>1247.069</ele>
        <time>2013-07-06T09:21:27Z</time>
      </trkpt>
      <trkpt lat="36.94811" lon="-3.244434"/>
      <trkpt lat="36.948745" lon="-3.244839">
        <ele>1246.929</ele>
        <time>2013-07-06T09:22:07Z</time>
      </trkpt>
      <trkpt lat="36.948975" lon="-3.245287">
        <ele>1246.984</ele>
        <time>2013-07-06T09:22:15Z</time>
      </trkpt>
      <trkpt lat="36.94866" lon="-3.246362"/>
      <trkpt lat="36.947304" lon="-3.247097">
        <ele>1263.733</ele>
        <time>2013-07-06T09:23:37Z</time>
      </trkpt>
      <trkpt lat="36.947101" lon="-3.247397">
        <ele>1266.227</ele>
        <time>2013-07-06T09:23:51Z</time>
      </trkpt>
      <trkpt lat="36.94789" lon="-3.247548"/>
      <trkpt lat="36.947966" lon="-3.248526">
        <ele>1278.614</ele>
        <time>2013-07-06T09:24:56Z</time>
      </trkpt>
      <trkpt lat="36.947377" lon="-3.249696">
        <ele>1286.407</ele>
        <time>2013-07-06T09:25:38Z</time>
      </trkpt>
      <trkpt lat="36.947457" lon="-3.249919">
        <ele>1288.016</ele>
        <time>2013-07-06T09:25:45Z</time>
      </trkpt>
      <trkpt lat="36.948244" lon="-3.250308">
        <ele>1293.960</ele>
        <time>2013-07-06T09:26:16Z</time>
      </trkpt>
      <trkpt lat="36.948476" lon="-3.251307">
        <ele>1300.062</ele>
        <time>2013-07-06T09:26:46Z</time>
      </trkpt>
      <trkpt lat="36.948139" lon="-3.252422">
        <ele>1303.730</ele>
        <time>2013-07-06T09:27:18Z</time>
      </trkpt>
      <trkpt lat="36.948303" lon="-3.25339"/>
      <trkpt lat="36.947637" lon="-3.25489"/>
      <trkpt lat="36.947547" lon="-3.257082">
        <ele>1301.474</ele>
        <time>2013-07-06T09:28:36Z</time>
      </trkpt>
      <trkpt lat="36.948039" lon="-3.25745"/>
      <trkpt lat="36.947795" lon="-3.258797">
        <ele>1301.205</ele>
        <time>2013-07-06T09:29:07Z</time>
      </trkpt>
      <trkpt lat="36.947271" lon="-3.259129">
        <ele>1300.415</ele>
        <time>2013-07-06T09:29:16Z</time>
      </trkpt>
      <trkpt lat="36.946581" lon="-3.260854">
        <ele>1297.807</ele>
        <time>2013-07-06T09:29:36Z</time>
      </trkpt>
      <trkpt lat="36.946566" lon="-3.261692">
        <ele>1295.198</ele>
        <time>2013-07-06T09:29:44Z</time>
      </trkpt>
      <trkpt lat="36.946143" lon="-3.263023">
        <ele>1293.882</ele>
        <time>2013-07-06T09:29:58Z</time>
      </trkpt>
      <trkpt lat="36.94586" lon="-3.264786"/>
      <trkpt lat="36.945236" lon="-3.266199">
        <ele>1294.122</ele>
        <time>2013-07-06T09:30:38Z</time>
      </trkpt>
      <trkpt lat="36.944902" lon="-3.269305">
        <ele>1292.437</ele>
        <time>2013-07-06T09:31:18Z</time>
      </trkpt>
      <trkpt lat="36.945505" lon="-3.269532">
        <ele>1291.421</ele>
        <time>2013-07-06T09:31:31Z</time>
      </trkpt>
      <trkpt lat="36.946383" lon="-3.269116">
        <ele>1287.976</ele>
        <time>2013-07-06T09:31:43Z</time>
      </trkpt>
      <trkpt lat="36.947048" lon="-3.268156">
        <ele>1283.285</ele>
        <time>2013-07-06T09:31:54Z</time>
      </trkpt>
      <trkpt lat="36.949714" lon="-3.265984">
        <ele>1281.089</ele>
        <time>2013-07-06T09:32:46Z</time>
      </trkpt>
      <trkpt lat="36.95189" lon="-3.265367"/>
      <trkpt lat="36.952497" lon="-3.265535">
        <ele>1286.407</ele>
        <time>2013-07-06T09:33:47Z</time>
      </trkpt>
      <trkpt lat="36.952891" lon="-3.265437">
        <ele>1288.672</ele>
        <time>2013-07-06T09:33:59Z</time>
      </trkpt>
      <trkpt lat="36.953078" lon="-3.265566">
        <ele>1289.296</ele>
        <time>2013-07-06T09:34:04Z</time>
      </trkpt>
      <trkpt lat="36.95326" lon="-3.266532"/>
      <trkpt lat="36.953521" lon="-3.266622">
        <ele>1291.446</ele>
        <time>2013-07-06T09:34:33Z</time>
      </trkpt>
      <trkpt lat="36.956215" lon="-3.26592"/>
      <trkpt lat="36.957222" lon="-3.266308">
        <ele>1306.315</ele>
        <time>2013-07-06T09:36:20Z</time>
      </trkpt>
      <trkpt lat="36.958836" lon="-3.266087">
        <ele>1308.120</ele>
        <time>2013-07-06T09:37:01Z</time>
      </trkpt>
      <trkpt lat="36.95971" lon="-3.265775"/>
      <trkpt lat="36.960651" lon="-3.266438">
        <ele>1312.961</ele>
        <time>2013-07-06T09:37:46Z</time>
      </trkpt>
      <trkpt lat="36.961979" lon="-3.266161">
        <ele>1319.927</ele>
        <time>2013-07-06T09:38:28Z</time>
      </trkpt>
      <trkpt lat="36.962587" lon="-3.266487">
        <ele>1322.907</ele>
        <time>2013-07-06T09:38:48Z</time>
      </trkpt>
      <trkpt lat="36.963598" lon="-3.266664">
        <ele>1327.781</ele>
        <time>2013-07-06T09:39:19Z</time>
      </trkpt>
      <trkpt lat="36.964314" lon="-3.267209">
        <ele>1332.545</ele>
        <time>2013-07-06T09:39:45Z</time>
      </trkpt>
      <trkpt lat="36.96506" lon="-3.267168"/>
      <trkpt lat="36.965736" lon="-3.26684"/>
      <trkpt lat="36.966284" lon="-3.266974">
        <ele>1330.240</ele>
        <time>2013-07-06T09:40:25Z</time>
      </trkpt>
      <trkpt lat="36.967515" lon="-3.266735">
        <ele>1327.234</ele>
        <time>2013-07-06T09:40:42Z</time>
      </trkpt>
      <trkpt lat="36.969744" lon="-3.26678"/>
      <trkpt lat="36.970432" lon="-3.267274">
        <ele>1329.083</ele>
        <time>2013-07-06T09:41:34Z</time>
      </trkpt>
      <trkpt lat="36.971683" lon="-3.266741">
        <ele>1335.425</ele>
        <time>2013-07-06T09:42:18Z</time>
      </trkpt>
      <trkpt lat="36.972835" lon="-3.267923">
        <ele>1338.417</ele>
        <time>2013-07-06T09:43:00Z</time>
      </trkpt>
      <trkpt lat="36.973871" lon="-3.268433">
        <ele>1341.107</ele>
        <time>2013-07-06T09:43:30Z</time>
      </trkpt>
      <trkpt lat="36.974823" lon="-3.268086">
        <ele>1342.912</ele>
        <time>2013-07-06T09:43:54Z</time>
      </trkpt>
      <trkpt lat="36.977204" lon="-3.268287">
        <ele>1348.776</ele>
        <time>2013-07-06T09:44:49Z</time>
      </trkpt>
      <trkpt lat="36.978042" lon="-3.268842">
        <ele>1352.428</ele>
        <time>2013-07-06T09:45:12Z</time>
      </trkpt>
      <trkpt lat="36.979352" lon="-3.268885">
        <ele>1352.096</ele>
        <time>2013-07-06T09:45:39Z</time>
      </trkpt>
      <trkpt lat="36.980453" lon="-3.26831"/>
      <trkpt lat="36.981363" lon="-3.267324">
        <ele>1335.085</ele>
        <time>2013-07-06T09:46:02Z</time>
      </trkpt>
      <trkpt lat="36.981818" lon="-3.267538">
        <ele>1332.090</ele>
        <time>2013-07-06T09:46:07Z</time>
      </trkpt>
      <trkpt lat="36.982418" lon="-3.267391">
        <ele>1326.941</ele>
        <time>2013-07-06T09:46:13Z</time>
      </trkpt>
      <trkpt lat="36.983108" lon="-3.268086">
        <ele>1320.681</ele>
        <time>2013-07-06T09:46:22Z</time>
      </trkpt>
      <trkpt lat="36.983786" lon="-3.268065">
        <ele>1315.809</ele>
        <time>2013-07-06T09:46:28Z</time>
      </trkpt>
      <trkpt lat="36.984393" lon="-3.268511">
        <ele>1310.807</ele>
        <time>2013-07-06T09:46:34Z</time>
      </trkpt>
      <trkpt lat="36.984584" lon="-3.268456">
        <ele>1308.628</ele>
        <time>2013-07-06T09:46:36Z</time>
      </trkpt>
      <trkpt lat="36.985329" lon="-3.266"/>
      <trkpt lat="36.985801" lon="-3.266079">
        <ele>1290.334</ele>
        <time>2013-07-06T09:47:00Z</time>
      </trkpt>
      <trkpt lat="36.986196" lon="-3.266981">
        <ele>1295.182</ele>
        <time>2013-07-06T09:47:17Z</time>
      </trkpt>
      <trkpt lat="36.986546" lon="-3.267059">
        <ele>1297.727</ele>
        <time>2013-07-06T09:47:32Z</time>
      </trkpt>
      <trkpt lat="36.98791" lon="-3.266587"/>
      <trkpt lat="36.988551" lon="-3.26605"/>
      <trkpt lat="36.990759" lon="-3.26585"/>
      <trkpt lat="36.992353" lon="-3.265083">
        <ele>1330.555</ele>
        <time>2013-07-06T09:51:05Z</time>
      </trkpt>
      <trkpt lat="36.993735" lon="-3.264768">
        <ele>1322.410</ele>
        <time>2013-07-06T09:51:17Z</time>
      </trkpt>
      <trkpt lat="36.994402" lon="-3.265195">
        <ele>1324.507</ele>
        <time>2013-07-06T09:51:28Z</time>
      </trkpt>
      <trkpt lat="36.994964" lon="-3.265233">
        <ele>1326.417</ele>
        <time>2013-07-06T09:51:41Z</time>
      </trkpt>
      <trkpt lat="36.996139" lon="-3.264409">
        <ele>1329.321</ele>
        <time>2013-07-06T09:53:17Z</time>
      </trkpt>
      <trkpt lat="36.996678" lon="-3.262657">
        <ele>1319.863</ele>
        <time>2013-07-06T09:53:37Z</time>
      </trkpt>
      <trkpt lat="36.998871" lon="-3.26249"/>
      <trkpt lat="36.999491" lon="-3.262596">
        <ele>1317.836</ele>
        <time>2013-07-06T09:54:20Z</time>
      </trkpt>
      <trkpt lat="37.000448" lon="-3.262003">
        <ele>1318.120</ele>
        <time>2013-07-06T09:54:42Z</time>
      </trkpt>
      <trkpt lat="37.000886" lon="-3.2625"/>
      <trkpt lat="37.000723" lon="-3.26338"/>
      <trkpt lat="37.000044" lon="-3.263905">
        <ele>1328.407</ele>
        <time>2013-07-06T09:55:50Z</time>
      </trkpt>
      <trkpt lat="36.998816" lon="-3.264146">
        <ele>1335.517</ele>
        <time>2013-07-06T09:56:40Z</time>
      </trkpt>
      <trkpt lat="36.998831" lon="-3.264616">
        <ele>1337.807</ele>
        <time>2013-07-06T09:57:03Z</time>
      </trkpt>
      <trkpt lat="36.999148" lon="-3.265195">
        <ele>1341.589</ele>
        <time>2013-07-06T10:05:17Z</time>
      </trkpt>
      <trkpt lat="36.999024" lon="-3.265688">
        <ele>1341.453</ele>
        <time>2013-07-06T10:05:31Z</time>
      </trkpt>
      <trkpt lat="36.998" lon="-3.266155"/>
      <trkpt lat="36.997985" lon="-3.267397">
        <ele>1356.143</ele>
        <time>2013-07-06T10:07:13Z</time>
      </trkpt>
      <trkpt lat="36.997424" lon="-3.267738">
        <ele>1361.278</ele>
        <time>2013-07-06T10:07:44Z</time>
      </trkpt>
      <trkpt lat="36.995457" lon="-3.269997">
        <ele>1380.222</ele>
        <time>2013-07-06T10:09:54Z</time>
      </trkpt>
      <trkpt lat="36.996349" lon="-3.269616">
        <ele>1387.447</ele>
        <time>2013-07-06T10:10:43Z</time>
      </trkpt>
      <trkpt lat="36.997624" lon="-3.268746">
        <ele>1401.634</ele>
        <time>2013-07-06T10:12:04Z</time>
      </trkpt>
      <trkpt lat="36.998385" lon="-3.268542">
        <ele>1405.255</ele>
        <time>2013-07-06T10:12:38Z</time>
      </trkpt>
      <trkpt lat="36.998881" lon="-3.268102">
        <ele>1408.110</ele>
        <time>2013-07-06T10:13:02Z</time>
      </trkpt>
      <trkpt lat="36.999278" lon="-3.268079">
        <ele>1412.007</ele>
        <time>2013-07-06T10:13:19Z</time>
      </trkpt>
      <trkpt lat="36.998903" lon="-3.26838"/>
      <trkpt lat="36.998622" lon="-3.268975">
        <ele>1425.181</ele>
        <time>2013-07-06T10:14:24Z</time>
      </trkpt>
      <trkpt lat="36.99792" lon="-3.26927"/>
      <trkpt lat="36.997558" lon="-3.269673">
        <ele>1438.681</ele>
        <time>2013-07-06T10:15:36Z</time>
      </trkpt>
      <trkpt lat="36.999177" lon="-3.269423">
        <ele>1459.326</ele>
        <time>2013-07-06T10:17:20Z</time>
      </trkpt>
      <trkpt lat="36.999715" lon="-3.269829">
        <ele>1466.410</ele>
        <time>2013-07-06T10:18:00Z</time>
      </trkpt>
      <trkpt lat="36.99822" lon="-3.270254"/>
      <trkpt lat="36.998991" lon="-3.270381">
        <ele>1487.584</ele>
        <time>2013-07-06T10:20:16Z</time>
      </trkpt>
      <trkpt lat="37.000338" lon="-3.271285">
        <ele>1503.007</ele>
        <time>2013-07-06T10:21:41Z</time>
      </trkpt>
      <trkpt lat="37.000689" lon="-3.271834">
        <ele>1506.917</ele>
        <time>2013-07-06T10:22:10Z</time>
      </trkpt>
      <trkpt lat="37.000893" lon="-3.272668">
        <ele>1511.507</ele>
        <time>2013-07-06T10:22:45Z</time>
      </trkpt>
      <trkpt lat="37.001282" lon="-3.272796">
        <ele>1512.772</ele>
        <time>2013-07-06T10:23:03Z</time>
      </trkpt>
      <trkpt lat="37.001592" lon="-3.27322"/>
      <trkpt lat="37.002144" lon="-3.273498">
        <ele>1519.428</ele>
        <time>2013-07-06T10:23:53Z</time>
      </trkpt>
      <trkpt lat="37.002525" lon="-3.274036">
        <ele>1527.286</ele>
        <time>2013-07-06T10:24:29Z</time>
      </trkpt>
      <trkpt lat="37.004342" lon="-3.274833">
        <ele>1544.141</ele>
        <time>2013-07-06T10:26:18Z</time>
      </trkpt>
      <trkpt lat="37.00427" lon="-3.274994"/>
      <trkpt lat="37.003933" lon="-3.274935">
        <ele>1550.010</ele>
        <time>2013-07-06T10:26:46Z</time>
      </trkpt>
      <trkpt lat="37.003475" lon="-3.27537"/>
      <trkpt lat="37.002684" lon="-3.275341">
        <ele>1562.955</ele>
        <time>2013-07-06T10:27:58Z</time>
      </trkpt>
      <trkpt lat="37.002092" lon="-3.275095">
        <ele>1564.910</ele>
        <time>2013-07-06T10:28:25Z</time>
      </trkpt>
      <trkpt lat="37.001502" lon="-3.274403">
        <ele>1566.907</ele>
        <time>2013-07-06T10:28:55Z</time>
      </trkpt>
      <trkpt lat="36.99897" lon="-3.273394"/>
      <trkpt lat="36.997886" lon="-3.273732">
        <ele>1589.171</ele>
        <time>2013-07-06T10:31:33Z</time>
      </trkpt>
      <trkpt lat="36.995475" lon="-3.273992">
        <ele>1603.533</ele>
        <time>2013-07-06T10:33:05Z</time>
      </trkpt>
      <trkpt lat="36.994629" lon="-3.27468"/>
      <trkpt lat="36.99306" lon="-3.275043"/>
      <trkpt lat="36.991867" lon="-3.276282">
        <ele>1628.880</ele>
        <time>2013-07-06T10:36:04Z</time>
      </trkpt>
      <trkpt lat="36.991831" lon="-3.276494">
        <ele>1629.485</ele>
        <time>2013-07-06T10:36:11Z</time>
      </trkpt>
      <trkpt lat="36.992213" lon="-3.277292">
        <ele>1636.981</ele>
        <time>2013-07-06T10:36:50Z</time>
      </trkpt>
      <trkpt lat="36.992396" lon="-3.276724">
        <ele>1643.261</ele>
        <time>2013-07-06T10:37:23Z</time>
      </trkpt>
      <trkpt lat="36.993455" lon="-3.276379">
        <ele>1653.617</ele>
        <time>2013-07-06T10:38:27Z</time>
      </trkpt>
      <trkpt lat="36.993881" lon="-3.27587"/>
      <trkpt lat="36.994589" lon="-3.276013">
        <ele>1668.892</ele>
        <time>2013-07-06T10:39:47Z</time>
      </trkpt>
      <trkpt lat="36.993845" lon="-3.27699"/>
      <trkpt lat="36.993615" lon="-3.278459">
        <ele>1673.018</ele>
        <time>2013-07-06T10:41:15Z</time>
      </trkpt>
      <trkpt lat="36.992471" lon="-3.280458">
        <ele>1678.646</ele>
        <time>2013-07-06T10:42:10Z</time>
      </trkpt>
      <trkpt lat="36.992371" lon="-3.281351">
        <ele>1681.491</ele>
        <time>2013-07-06T10:42:30Z</time>
      </trkpt>
      <trkpt lat="36.992586" lon="-3.284012">
        <ele>1687.595</ele>
        <time>2013-07-06T10:43:30Z</time>
      </trkpt>
      <trkpt lat="36.992476" lon="-3.28466"/>
      <trkpt lat="36.991804" lon="-3.2862"/>
      <trkpt lat="36.991937" lon="-3.28891"/>
      <trkpt lat="36.991765" lon="-3.289291">
        <ele>1680.413</ele>
        <time>2013-07-06T10:50:32Z</time>
      </trkpt>
      <trkpt lat="36.991613" lon="-3.287636">
        <ele>1667.207</ele>
        <time>2013-07-06T10:50:57Z</time>
      </trkpt>
      <trkpt lat="36.991128" lon="-3.287399">
        <ele>1662.065</ele>
        <time>2013-07-06T10:51:07Z</time>
      </trkpt>
      <trkpt lat="36.99101" lon="-3.287765"/>
      <trkpt lat="36.991154" lon="-3.289158">
        <ele>1651.571</ele>
        <time>2013-07-06T10:51:26Z</time>
      </trkpt>
      <trkpt lat="36.990842" lon="-3.289963">
        <ele>1648.059</ele>
        <time>2013-07-06T10:51:35Z</time>
      </trkpt>
      <trkpt lat="36.991271" lon="-3.291169">
        <ele>1645.844</ele>
        <time>2013-07-06T10:51:51Z</time>
      </trkpt>
      <trkpt lat="36.991189" lon="-3.292397">
        <ele>1634.838</ele>
        <time>2013-07-06T10:55:09Z</time>
      </trkpt>
      <trkpt lat="36.990864" lon="-3.292457">
        <ele>1646.323</ele>
        <time>2013-07-06T10:56:37Z</time>
      </trkpt>
      <trkpt lat="36.990624" lon="-3.292766">
        <ele>1648.935</ele>
        <time>2013-07-06T10:57:54Z</time>
      </trkpt>
      <trkpt lat="36.990654" lon="-3.292955">
        <ele>1649.186</ele>
        <time>2013-07-06T10:58:13Z</time>
      </trkpt>
      <trkpt lat="36.990599" lon="-3.292762">
        <ele>1649.014</ele>
        <time>2013-07-06T10:58:39Z</time>
      </trkpt>
      <trkpt lat="36.990163" lon="-3.292623">
        <ele>1646.107</ele>
        <time>2013-07-06T10:58:50Z</time>
      </trkpt>
      <trkpt lat="36.989321" lon="-3.292724">
        <ele>1642.647</ele>
        <time>2013-07-06T10:59:03Z</time>
      </trkpt>
      <trkpt lat="36.988924" lon="-3.29257"/>
      <trkpt lat="36.988241" lon="-3.291656">
        <ele>1634.383</ele>
        <time>2013-07-06T10:59:19Z</time>
      </trkpt>
      <trkpt lat="36.986303" lon="-3.290037">
        <ele>1620.821</ele>
        <time>2013-07-06T10:59:41Z</time>
      </trkpt>
      <trkpt lat="36.985922" lon="-3.290014">
        <ele>1618.476</ele>
        <time>2013-07-06T10:59:45Z</time>
      </trkpt>
      <trkpt lat="36.985025" lon="-3.291028">
        <ele>1610.290</ele>
        <time>2013-07-06T10:59:58Z</time>
      </trkpt>
      <trkpt lat="36.984197" lon="-3.289698">
        <ele>1601.375</ele>
        <time>2013-07-06T11:00:18Z</time>
      </trkpt>
      <trkpt lat="36.98372" lon="-3.288469"/>
      <trkpt lat="36.981776" lon="-3.287124">
        <ele>1582.652</ele>
        <time>2013-07-06T11:01:03Z</time>
      </trkpt>
      <trkpt lat="36.981208" lon="-3.287227">
        <ele>1577.817</ele>
        <time>2013-07-06T11:01:10Z</time>
      </trkpt>
      <trkpt lat="36.979981" lon="-3.286257">
        <ele>1579.007</ele>
        <time>2013-07-06T11:01:43Z</time>
      </trkpt>
      <trkpt lat="36.977094" lon="-3.285613">
        <ele>1581.579</ele>
        <time>2013-07-06T11:02:55Z</time>
      </trkpt>
      <trkpt lat="36.976283" lon="-3.286301">
        <ele>1579.223</ele>
        <time>2013-07-06T11:03:17Z</time>
      </trkpt>
      <trkpt lat="36.974856" lon="-3.286642">
        <ele>1576.115</ele>
        <time>2013-07-06T11:03:45Z</time>
      </trkpt>
      <trkpt lat="36.973971" lon="-3.287089">
        <ele>1575.223</ele>
        <time>2013-07-06T11:04:07Z</time>
      </trkpt>
      <trkpt lat="36.973011" lon="-3.287987">
        <ele>1578.178</ele>
        <time>2013-07-06T11:04:39Z</time>
      </trkpt>
      <trkpt lat="36.972146" lon="-3.289333">
        <ele>1579.052</ele>
        <time>2013-07-06T11:05:12Z</time>
      </trkpt>
      <trkpt lat="36.971645" lon="-3.289328">
        <ele>1579.217</ele>
        <time>2013-07-06T11:05:23Z</time>
      </trkpt>
      <trkpt lat="36.971238" lon="-3.288866">
        <ele>1579.882</ele>
        <time>2013-07-06T11:05:38Z</time>
      </trkpt>
      <trkpt lat="36.970863" lon="-3.288812">
        <ele>1579.643</ele>
        <time>2013-07-06T11:05:47Z</time>
      </trkpt>
      <trkpt lat="36.968481" lon="-3.289904">
        <ele>1583.217</ele>
        <time>2013-07-06T11:06:50Z</time>
      </trkpt>
      <trkpt lat="36.967826" lon="-3.291019">
        <ele>1581.007</ele>
        <time>2013-07-06T11:07:48Z</time>
      </trkpt>
      <trkpt lat="36.967771" lon="-3.292187">
        <ele>1582.012</ele>
        <time>2013-07-06T11:08:16Z</time>
      </trkpt>
      <trkpt lat="36.967484" lon="-3.292963">
        <ele>1581.716</ele>
        <time>2013-07-06T11:08:32Z</time>
      </trkpt>
      <trkpt lat="36.966042" lon="-3.292275">
        <ele>1574.428</ele>
        <time>2013-07-06T11:08:56Z</time>
      </trkpt>
      <trkpt lat="36.963815" lon="-3.292465">
        <ele>1561.986</ele>
        <time>2013-07-06T11:09:19Z</time>
      </trkpt>
      <trkpt lat="36.962813" lon="-3.292084">
        <ele>1556.231</ele>
        <time>2013-07-06T11:09:31Z</time>
      </trkpt>
      <trkpt lat="36.961801" lon="-3.29286"/>
      <trkpt lat="36.96166" lon="-3.29314"/>
      <trkpt lat="36.961656" lon="-3.293881">
        <ele>1550.313</ele>
        <time>2013-07-06T11:10:00Z</time>
      </trkpt>
      <trkpt lat="36.960802" lon="-3.293062">
        <ele>1545.143</ele>
        <time>2013-07-06T11:10:17Z</time>
      </trkpt>
      <trkpt lat="36.960035" lon="-3.294673">
        <ele>1540.607</ele>
        <time>2013-07-06T11:10:40Z</time>
      </trkpt>
      <trkpt lat="36.959167" lon="-3.293939">
        <ele>1534.707</ele>
        <time>2013-07-06T11:10:57Z</time>
      </trkpt>
      <trkpt lat="36.95703" lon="-3.294391"/>
      <trkpt lat="36.956054" lon="-3.294903">
        <ele>1527.829</ele>
        <time>2013-07-06T11:11:43Z</time>
      </trkpt>
      <trkpt lat="36.955861" lon="-3.295395">
        <ele>1527.531</ele>
        <time>2013-07-06T11:11:52Z</time>
      </trkpt>
      <trkpt lat="36.95597" lon="-3.296463"/>
      <trkpt lat="36.955501" lon="-3.297337">
        <ele>1527.164</ele>
        <time>2013-07-06T11:12:27Z</time>
      </trkpt>
      <trkpt lat="36.955331" lon="-3.298289">
        <ele>1523.898</ele>
        <time>2013-07-06T11:12:37Z</time>
      </trkpt>
      <trkpt lat="36.955786" lon="-3.299636">
        <ele>1517.833</ele>
        <time>2013-07-06T11:12:53Z</time>
      </trkpt>
      <trkpt lat="36.95439" lon="-3.299072"/>
      <trkpt lat="36.954081" lon="-3.299375">
        <ele>1514.604</ele>
        <time>2013-07-06T11:13:26Z</time>
      </trkpt>
      <trkpt lat="36.954152" lon="-3.301802">
        <ele>1519.514</ele>
        <time>2013-07-06T11:14:10Z</time>
      </trkpt>
      <trkpt lat="36.953721" lon="-3.30239"/>
      <trkpt lat="36.953723" lon="-3.304059">
        <ele>1520.836</ele>
        <time>2013-07-06T11:14:57Z</time>
      </trkpt>
      <trkpt lat="36.954339" lon="-3.304755">
        <ele>1523.640</ele>
        <time>2013-07-06T11:15:20Z</time>
      </trkpt>
      <trkpt lat="36.955291" lon="-3.304998">
        <ele>1524.672</ele>
        <time>2013-07-06T11:15:43Z</time>
      </trkpt>
      <trkpt lat="36.955301" lon="-3.305203">
        <ele>1524.630</ele>
        <time>2013-07-06T11:15:46Z</time>
      </trkpt>
      <trkpt lat="36.954682" lon="-3.306064">
        <ele>1528.265</ele>
        <time>2013-07-06T11:16:08Z</time>
      </trkpt>
      <trkpt lat="36.954779" lon="-3.307104">
        <ele>1532.479</ele>
        <time>2013-07-06T11:16:33Z</time>
      </trkpt>
      <trkpt lat="36.955106" lon="-3.307845">
        <ele>1535.814</ele>
        <time>2013-07-06T11:16:58Z</time>
      </trkpt>
      <trkpt lat="36.956034" lon="-3.308419">
        <ele>1543.678</ele>
        <time>2013-07-06T11:17:42Z</time>
      </trkpt>
      <trkpt lat="36.95582" lon="-3.31053"/>
      <trkpt lat="36.956141" lon="-3.311446">
        <ele>1559.326</ele>
        <time>2013-07-06T11:19:16Z</time>
      </trkpt>
      <trkpt lat="36.955522" lon="-3.311893">
        <ele>1564.107</ele>
        <time>2013-07-06T11:19:46Z</time>
      </trkpt>
      <trkpt lat="36.955176" lon="-3.313102">
        <ele>1569.821</ele>
        <time>2013-07-06T11:20:28Z</time>
      </trkpt>
      <trkpt lat="36.955358" lon="-3.314634">
        <ele>1574.765</ele>
        <time>2013-07-06T11:21:10Z</time>
      </trkpt>
      <trkpt lat="36.955771" lon="-3.315478">
        <ele>1580.487</ele>
        <time>2013-07-06T11:21:41Z</time>
      </trkpt>
      <trkpt lat="36.955133" lon="-3.317313">
        <ele>1592.015</ele>
        <time>2013-07-06T11:22:50Z</time>
      </trkpt>
      <trkpt lat="36.955256" lon="-3.318462">
        <ele>1597.780</ele>
        <time>2013-07-06T11:23:33Z</time>
      </trkpt>
      <trkpt lat="36.954813" lon="-3.320205">
        <ele>1605.174</ele>
        <time>2013-07-06T11:24:33Z</time>
      </trkpt>
      <trkpt lat="36.955131" lon="-3.322901">
        <ele>1623.529</ele>
        <time>2013-07-06T11:26:22Z</time>
      </trkpt>
      <trkpt lat="36.955622" lon="-3.323574">
        <ele>1631.152</ele>
        <time>2013-07-06T11:27:04Z</time>
      </trkpt>
      <trkpt lat="36.955455" lon="-3.324008">
        <ele>1633.153</ele>
        <time>2013-07-06T11:27:20Z</time>
      </trkpt>
      <trkpt lat="36.955922" lon="-3.325031">
        <ele>1638.708</ele>
        <time>2013-07-06T11:27:58Z</time>
      </trkpt>
      <trkpt lat="36.955845" lon="-3.326321">
        <ele>1641.707</ele>
        <time>2013-07-06T11:31:35Z</time>
      </trkpt>
      <trkpt lat="36.955948" lon="-3.325982">
        <ele>1642.149</ele>
        <time>2013-07-06T11:31:45Z</time>
      </trkpt>
      <trkpt lat="36.95586" lon="-3.326314"/>
      <trkpt lat="36.955332" lon="-3.326567">
        <ele>1640.775</ele>
        <time>2013-07-06T11:32:31Z</time>
      </trkpt>
      <trkpt lat="36.955111" lon="-3.327892">
        <ele>1640.273</ele>
        <time>2013-07-06T11:32:58Z</time>
      </trkpt>
      <trkpt lat="36.954833" lon="-3.32853"/>
      <trkpt lat="36.954207" lon="-3.329173"/>
      <trkpt lat="36.953581" lon="-3.329816">
        <ele>1642.872</ele>
        <time>2013-07-06T11:34:00Z</time>
      </trkpt>
      <trkpt lat="36.952665" lon="-3.331432">
        <ele>1649.867</ele>
        <time>2013-07-06T11:34:52Z</time>
      </trkpt>
      <trkpt lat="36.952235" lon="-3.332793">
        <ele>1655.823</ele>
        <time>2013-07-06T11:35:35Z</time>
      </trkpt>
      <trkpt lat="36.95193" lon="-3.33463"/>
      <trkpt lat="36.951625" lon="-3.336468">
        <ele>1671.383</ele>
        <time>2013-07-06T11:37:21Z</time>
      </trkpt>
      <trkpt lat="36.951413" lon="-3.33705"/>
      <trkpt lat="36.950598" lon="-3.338031">
        <ele>1673.507</ele>
        <time>2013-07-06T11:38:14Z</time>
      </trkpt>
      <trkpt lat="36.949859" lon="-3.339623">
        <ele>1664.276</ele>
        <time>2013-07-06T11:38:37Z</time>
      </trkpt>
      <trkpt lat="36.948815" lon="-3.340522">
        <ele>1655.670</ele>
        <time>2013-07-06T11:38:51Z</time>
      </trkpt>
      <trkpt lat="36.947947" lon="-3.340838">
        <ele>1649.952</ele>
        <time>2013-07-06T11:39:02Z</time>
      </trkpt>
      <trkpt lat="36.947248" lon="-3.341899">
        <ele>1640.930</ele>
        <time>2013-07-06T11:39:18Z</time>
      </trkpt>
      <trkpt lat="36.946743" lon="-3.342183">
        <ele>1636.815</ele>
        <time>2013-07-06T11:39:25Z</time>
      </trkpt>
      <trkpt lat="36.947006" lon="-3.342836">
        <ele>1633.439</ele>
        <time>2013-07-06T11:40:34Z</time>
      </trkpt>
      <trkpt lat="36.948453" lon="-3.343457">
        <ele>1631.864</ele>
        <time>2013-07-06T11:41:08Z</time>
      </trkpt>
      <trkpt lat="36.94936" lon="-3.343224"/>
      <trkpt lat="36.950776" lon="-3.342284">
        <ele>1629.104</ele>
        <time>2013-07-06T11:42:31Z</time>
      </trkpt>
      <trkpt lat="36.951011" lon="-3.34308"/>
      <trkpt lat="36.952225" lon="-3.342931">
        <ele>1624.207</ele>
        <time>2013-07-06T11:43:44Z</time>
      </trkpt>
      <trkpt lat="36.952705" lon="-3.343618">
        <ele>1617.640</ele>
        <time>2013-07-06T11:43:54Z</time>
      </trkpt>
      <trkpt lat="36.953753" lon="-3.343776">
        <ele>1611.294</ele>
        <time>2013-07-06T11:44:06Z</time>
      </trkpt>
      <trkpt lat="36.954347" lon="-3.344247">
        <ele>1605.896</ele>
        <time>2013-07-06T11:44:13Z</time>
      </trkpt>
      <trkpt lat="36.954552" lon="-3.345674">
        <ele>1597.244</ele>
        <time>2013-07-06T11:44:24Z</time>
      </trkpt>
      <trkpt lat="36.954783" lon="-3.345961">
        <ele>1595.019</ele>
        <time>2013-07-06T11:44:27Z</time>
      </trkpt>
      <trkpt lat="36.955862" lon="-3.346349">
        <ele>1586.863</ele>
        <time>2013-07-06T11:44:37Z</time>
      </trkpt>
      <trkpt lat="36.956683" lon="-3.347503">
        <ele>1578.488</ele>
        <time>2013-07-06T11:44:49Z</time>
      </trkpt>
      <trkpt lat="36.957038" lon="-3.347744">
        <ele>1574.836</ele>
        <time>2013-07-06T11:44:53Z</time>
      </trkpt>
      <trkpt lat="36.958384" lon="-3.347972">
        <ele>1568.717</ele>
        <time>2013-07-06T11:45:07Z</time>
      </trkpt>
      <trkpt lat="36.958459" lon="-3.348434">
        <ele>1561.918</ele>
        <time>2013-07-06T11:45:14Z</time>
      </trkpt>
      <trkpt lat="36.957345" lon="-3.348504">
        <ele>1553.107</ele>
        <time>2013-07-06T11:45:26Z</time>
      </trkpt>
      <trkpt lat="36.956414" lon="-3.348844">
        <ele>1545.177</ele>
        <time>2013-07-06T11:45:36Z</time>
      </trkpt>
      <trkpt lat="36.955668" lon="-3.347801">
        <ele>1537.111</ele>
        <time>2013-07-06T11:45:49Z</time>
      </trkpt>
      <trkpt lat="36.953893" lon="-3.347308">
        <ele>1523.683</ele>
        <time>2013-07-06T11:46:06Z</time>
      </trkpt>
      <trkpt lat="36.9528" lon="-3.347243"/>
      <trkpt lat="36.951925" lon="-3.347441">
        <ele>1509.666</ele>
        <time>2013-07-06T11:46:22Z</time>
      </trkpt>
      <trkpt lat="36.951058" lon="-3.347381">
        <ele>1503.140</ele>
        <time>2013-07-06T11:46:29Z</time>
      </trkpt>
      <trkpt lat="36.949943" lon="-3.346601">
        <ele>1492.945</ele>
        <time>2013-07-06T11:46:40Z</time>
      </trkpt>
      <trkpt lat="36.94949" lon="-3.34663"/>
      <trkpt lat="36.949468" lon="-3.346775">
        <ele>1486.183</ele>
        <time>2013-07-06T11:46:48Z</time>
      </trkpt>
      <trkpt lat="36.950586" lon="-3.347785">
        <ele>1476.111</ele>
        <time>2013-07-06T11:47:05Z</time>
      </trkpt>
      <trkpt lat="36.95158" lon="-3.348332"/>
      <trkpt lat="36.951904" lon="-3.349056">
        <ele>1463.576</ele>
        <time>2013-07-06T11:47:23Z</time>
      </trkpt>
      <trkpt lat="36.953799" lon="-3.350437">
        <ele>1449.320</ele>
        <time>2013-07-06T11:47:43Z</time>
      </trkpt>
      <trkpt lat="36.95445" lon="-3.352368"/>
      <trkpt lat="36.955924" lon="-3.352599">
        <ele>1425.750</ele>
        <time>2013-07-06T11:48:12Z</time>
      </trkpt>
      <trkpt lat="36.956852" lon="-3.353471">
        <ele>1416.575</ele>
        <time>2013-07-06T11:48:22Z</time>
      </trkpt>
      <trkpt lat="36.958728" lon="-3.354448">
        <ele>1400.219</ele>
        <time>2013-07-06T11:48:39Z</time>
      </trkpt>
      <trkpt lat="36.960794" lon="-3.355895">
        <ele>1381.934</ele>
        <time>2013-07-06T11:48:59Z</time>
      </trkpt>
      <trkpt lat="36.961013" lon="-3.357182">
        <ele>1373.267</ele>
        <time>2013-07-06T11:49:13Z</time>
      </trkpt>
      <trkpt lat="36.961883" lon="-3.357745">
        <ele>1364.781</ele>
        <time>2013-07-06T11:49:28Z</time>
      </trkpt>
      <trkpt lat="36.9622" lon="-3.358775"/>
      <trkpt lat="36.9618" lon="-3.358875"/>
      <trkpt lat="36.961086" lon="-3.358509">
        <ele>1345.150</ele>
        <time>2013-07-06T11:51:56Z</time>
      </trkpt>
      <trkpt lat="36.961128" lon="-3.358364">
        <ele>1345.494</ele>
        <time>2013-07-06T11:52:03Z</time>
      </trkpt>
      <trkpt lat="36.960232" lon="-3.358416">
        <ele>1337.516</ele>
        <time>2013-07-06T12:03:49Z</time>
      </trkpt>
      <trkpt lat="36.960033" lon="-3.35826"/>
      <trkpt lat="36.959895" lon="-3.357116">
        <ele>1328.469</ele>
        <time>2013-07-06T12:04:09Z</time>
      </trkpt>
      <trkpt lat="36.959746" lon="-3.356903">
        <ele>1326.963</ele>
        <time>2013-07-06T12:04:12Z</time>
      </trkpt>
      <trkpt lat="36.958921" lon="-3.356996">
        <ele>1322.088</ele>
        <time>2013-07-06T12:04:21Z</time>
      </trkpt>
      <trkpt lat="36.958445" lon="-3.356725">
        <ele>1316.846</ele>
        <time>2013-07-06T12:04:26Z</time>
      </trkpt>
      <trkpt lat="36.957379" lon="-3.357045">
        <ele>1309.088</ele>
        <time>2013-07-06T12:04:36Z</time>
      </trkpt>
      <trkpt lat="36.955679" lon="-3.356251">
        <ele>1294.716</ele>
        <time>2013-07-06T12:04:52Z</time>
      </trkpt>
      <trkpt lat="36.955317" lon="-3.355287">
        <ele>1289.807</ele>
        <time>2013-07-06T12:05:00Z</time>
      </trkpt>
      <trkpt lat="36.954038" lon="-3.355281">
        <ele>1281.018</ele>
        <time>2013-07-06T12:05:11Z</time>
      </trkpt>
      <trkpt lat="36.953355" lon="-3.355003">
        <ele>1275.512</ele>
        <time>2013-07-06T12:05:17Z</time>
      </trkpt>
      <trkpt lat="36.952683" lon="-3.354977">
        <ele>1270.714</ele>
        <time>2013-07-06T12:05:23Z</time>
      </trkpt>
      <trkpt lat="36.951898" lon="-3.355282">
        <ele>1263.692</ele>
        <time>2013-07-06T12:05:31Z</time>
      </trkpt>
      <trkpt lat="36.950139" lon="-3.35548"/>
      <trkpt lat="36.949697" lon="-3.355307">
        <ele>1247.091</ele>
        <time>2013-07-06T12:05:54Z</time>
      </trkpt>
      <trkpt lat="36.949301" lon="-3.354832">
        <ele>1242.776</ele>
        <time>2013-07-06T12:06:00Z</time>
      </trkpt>
      <trkpt lat="36.948638" lon="-3.354464">
        <ele>1237.974</ele>
        <time>2013-07-06T12:06:07Z</time>
      </trkpt>
      <trkpt lat="36.947199" lon="-3.354469">
        <ele>1225.056</ele>
        <time>2013-07-06T12:06:25Z</time>
      </trkpt>
      <trkpt lat="36.94578" lon="-3.353999"/>
      <trkpt lat="36.945374" lon="-3.354314">
        <ele>1207.707</ele>
        <time>2013-07-06T12:06:44Z</time>
      </trkpt>
      <trkpt lat="36.943347" lon="-3.354676">
        <ele>1193.021</ele>
        <time>2013-07-06T12:07:01Z</time>
      </trkpt>
      <trkpt lat="36.940988" lon="-3.355533">
        <ele>1175.375</ele>
        <time>2013-07-06T12:07:19Z</time>
      </trkpt>
      <trkpt lat="36.939712" lon="-3.356855">
        <ele>1163.167</ele>
        <time>2013-07-06T12:07:31Z</time>
      </trkpt>
      <trkpt lat="36.938598" lon="-3.357101">
        <ele>1154.035</ele>
        <time>2013-07-06T12:07:39Z</time>
      </trkpt>
      <trkpt lat="36.938081" lon="-3.35742"/>
      <trkpt lat="36.937437" lon="-3.358565">
        <ele>1141.274</ele>
        <time>2013-07-06T12:07:51Z</time>
      </trkpt>
      <trkpt lat="36.937252" lon="-3.359581">
        <ele>1133.639</ele>
        <time>2013-07-06T12:07:57Z</time>
      </trkpt>
      <trkpt lat="36.936964" lon="-3.360152">
        <ele>1128.744</ele>
        <time>2013-07-06T12:08:02Z</time>
      </trkpt>
      <trkpt lat="36.935619" lon="-3.360987">
        <ele>1119.205</ele>
        <time>2013-07-06T12:08:14Z</time>
      </trkpt>
      <trkpt lat="36.932989" lon="-3.363258">
        <ele>1093.515</ele>
        <time>2013-07-06T12:08:37Z</time>
      </trkpt>
      <trkpt lat="36.931538" lon="-3.364042">
        <ele>1086.807</ele>
        <time>2013-07-06T12:08:50Z</time>
      </trkpt>
      <trkpt lat="36.930596" lon="-3.364053">
        <ele>1080.618</ele>
        <time>2013-07-06T12:08:58Z</time>
      </trkpt>
      <trkpt lat="36.930266" lon="-3.364267">
        <ele>1076.382</ele>
        <time>2013-07-06T12:09:02Z</time>
      </trkpt>
      <trkpt lat="36.930358" lon="-3.364516">
        <ele>1075.434</ele>
        <time>2013-07-06T12:09:04Z</time>
      </trkpt>
      <trkpt lat="36.93156" lon="-3.364288"/>
      <trkpt lat="36.933882" lon="-3.363451">
        <ele>1058.167</ele>
        <time>2013-07-06T12:09:54Z</time>
      </trkpt>
      <trkpt lat="36.935084" lon="-3.362389">
        <ele>1048.491</ele>
        <time>2013-07-06T12:10:06Z</time>
      </trkpt>
      <trkpt lat="36.937398" lon="-3.361967">
        <ele>1030.076</ele>
        <time>2013-07-06T12:10:24Z</time>
      </trkpt>
      <trkpt lat="36.93805" lon="-3.361134"/>
      <trkpt lat="36.939834" lon="-3.359671">
        <ele>1005.731</ele>
        <time>2013-07-06T12:10:51Z</time>
      </trkpt>
      <trkpt lat="36.939851" lon="-3.359974">
        <ele>1000.724</ele>
        <time>2013-07-06T12:10:57Z</time>
      </trkpt>
      <trkpt lat="36.939345" lon="-3.36031"/>
      <trkpt lat="36.938374" lon="-3.361524">
        <ele>985.673</ele>
        <time>2013-07-06T12:12:05Z</time>
      </trkpt>
      <trkpt lat="36.938447" lon="-3.36166"/>
      <trkpt lat="36.939548" lon="-3.360751">
        <ele>972.339</ele>
        <time>2013-07-06T12:12:28Z</time>
      </trkpt>
      <trkpt lat="36.94027" lon="-3.36096"/>
      <trkpt lat="36.940988" lon="-3.361587">
        <ele>968.142</ele>
        <time>2013-07-06T12:12:46Z</time>
      </trkpt>
      <trkpt lat="36.940906" lon="-3.361709">
        <ele>966.666</ele>
        <time>2013-07-06T12:14:49Z</time>
      </trkpt>
      <trkpt lat="36.939976" lon="-3.360932">
        <ele>966.481</ele>
        <time>2013-07-06T12:14:55Z</time>
      </trkpt>
      <trkpt lat="36.939255" lon="-3.361698">
        <ele>960.328</ele>
        <time>2013-07-06T12:15:15Z</time>
      </trkpt>
      <trkpt lat="36.939315" lon="-3.36211"/>
      <trkpt lat="36.940814" lon="-3.362206">
        <ele>945.317</ele>
        <time>2013-07-06T12:15:40Z</time>
      </trkpt>
      <trkpt lat="36.941144" lon="-3.361758">
        <ele>942.707</ele>
        <time>2013-07-06T12:15:45Z</time>
      </trkpt>
      <trkpt lat="36.941879" lon="-3.361695">
        <ele>937.196</ele>
        <time>2013-07-06T12:15:53Z</time>
      </trkpt>
      <trkpt lat="36.941906" lon="-3.361856">
        <ele>934.410</ele>
        <time>2013-07-06T12:15:57Z</time>
      </trkpt>
      <trkpt lat="36.940686" lon="-3.362613">
        <ele>924.962</ele>
        <time>2013-07-06T12:16:12Z</time>
      </trkpt>
      <trkpt lat="36.938762" lon="-3.362969">
        <ele>910.160</ele>
        <time>2013-07-06T12:16:28Z</time>
      </trkpt>
      <trkpt lat="36.937988" lon="-3.363421">
        <ele>902.965</ele>
        <time>2013-07-06T12:16:36Z</time>
      </trkpt>
      <trkpt lat="36.938211" lon="-3.36368"/>
      <trkpt lat="36.938545" lon="-3.363369">
        <ele>896.594</ele>
        <time>2013-07-06T12:16:45Z</time>
      </trkpt>
      <trkpt lat="36.940759" lon="-3.363304">
        <ele>882.168</ele>
        <time>2013-07-06T12:17:05Z</time>
      </trkpt>
      <trkpt lat="36.94228" lon="-3.363748"/>
      <trkpt lat="36.942487" lon="-3.364163">
        <ele>868.726</ele>
        <time>2013-07-06T12:17:35Z</time>
      </trkpt>
      <trkpt lat="36.941769" lon="-3.364636">
        <ele>868.207</ele>
        <time>2013-07-06T12:18:03Z</time>
      </trkpt>
      <trkpt lat="36.940951" lon="-3.364743">
        <ele>869.960</ele>
        <time>2013-07-06T12:18:28Z</time>
      </trkpt>
      <trkpt lat="36.939377" lon="-3.365398">
        <ele>870.764</ele>
        <time>2013-07-06T12:19:07Z</time>
      </trkpt>
      <trkpt lat="36.937063" lon="-3.367021">
        <ele>866.986</ele>
        <time>2013-07-06T12:19:48Z</time>
      </trkpt>
      <trkpt lat="36.934824" lon="-3.369471">
        <ele>870.164</ele>
        <time>2013-07-06T12:24:21Z</time>
      </trkpt>
      <trkpt lat="36.933212" lon="-3.371882">
        <ele>855.269</ele>
        <time>2013-07-06T12:24:46Z</time>
      </trkpt>
      <trkpt lat="36.931506" lon="-3.373057">
        <ele>850.563</ele>
        <time>2013-07-06T12:25:06Z</time>
      </trkpt>
      <trkpt lat="36.930607" lon="-3.375185">
        <ele>845.248</ele>
        <time>2013-07-06T12:25:30Z</time>
      </trkpt>
      <trkpt lat="36.929638" lon="-3.375437">
        <ele>845.334</ele>
        <time>2013-07-06T12:25:45Z</time>
      </trkpt>
      <trkpt lat="36.928578" lon="-3.376711">
        <ele>849.855</ele>
        <time>2013-07-06T12:26:22Z</time>
      </trkpt>
      <trkpt lat="36.927267" lon="-3.377168">
        <ele>845.810</ele>
        <time>2013-07-06T12:26:46Z</time>
      </trkpt>
      <trkpt lat="36.925584" lon="-3.37872"/>
      <trkpt lat="36.924358" lon="-3.379264">
        <ele>840.017</ele>
        <time>2013-07-06T12:27:33Z</time>
      </trkpt>
      <trkpt lat="36.922305" lon="-3.379409">
        <ele>833.061</ele>
        <time>2013-07-06T12:27:56Z</time>
      </trkpt>
      <trkpt lat="36.922217" lon="-3.379629">
        <ele>833.993</ele>
        <time>2013-07-06T12:27:59Z</time>
      </trkpt>
      <trkpt lat="36.922952" lon="-3.38351"/>
      <trkpt lat="36.923418" lon="-3.384218">
        <ele>843.876</ele>
        <time>2013-07-06T12:29:45Z</time>
      </trkpt>
      <trkpt lat="36.923719" lon="-3.3855"/>
      <trkpt lat="36.923238" lon="-3.386372">
        <ele>849.515</ele>
        <time>2013-07-06T12:30:44Z</time>
      </trkpt>
      <trkpt lat="36.922351" lon="-3.386576">
        <ele>847.643</ele>
        <time>2013-07-06T12:31:03Z</time>
      </trkpt>
      <trkpt lat="36.921814" lon="-3.387088">
        <ele>847.264</ele>
        <time>2013-07-06T12:31:17Z</time>
      </trkpt>
      <trkpt lat="36.921501" lon="-3.388159">
        <ele>846.910</ele>
        <time>2013-07-06T12:31:46Z</time>
      </trkpt>
      <trkpt lat="36.921823" lon="-3.388401">
        <ele>850.107</ele>
        <time>2013-07-06T12:32:06Z</time>
      </trkpt>
      <trkpt lat="36.922648" lon="-3.388124">
        <ele>856.958</ele>
        <time>2013-07-06T12:32:51Z</time>
      </trkpt>
      <trkpt lat="36.923961" lon="-3.388065">
        <ele>868.812</ele>
        <time>2013-07-06T12:34:04Z</time>
      </trkpt>
      <trkpt lat="36.923919" lon="-3.387891">
        <ele>870.764</ele>
        <time>2013-07-06T12:34:14Z</time>
      </trkpt>
      <trkpt lat="36.923102" lon="-3.387647">
        <ele>877.312</ele>
        <time>2013-07-06T12:35:01Z</time>
      </trkpt>
      <trkpt lat="36.923299" lon="-3.387288">
        <ele>881.197</ele>
        <time>2013-07-06T12:35:26Z</time>
      </trkpt>
      <trkpt lat="36.924458" lon="-3.387511">
        <ele>891.641</ele>
        <time>2013-07-06T12:36:29Z</time>
      </trkpt>
      <trkpt lat="36.924717" lon="-3.388026">
        <ele>894.386</ele>
        <time>2013-07-06T12:36:54Z</time>
      </trkpt>
      <trkpt lat="36.925291" lon="-3.388608">
        <ele>900.623</ele>
        <time>2013-07-06T12:37:33Z</time>
      </trkpt>
      <trkpt lat="36.926009" lon="-3.390102">
        <ele>912.483</ele>
        <time>2013-07-06T12:38:49Z</time>
      </trkpt>
      <trkpt lat="36.92652" lon="-3.390628"/>
      <trkpt lat="36.926855" lon="-3.391595">
        <ele>925.107</ele>
        <time>2013-07-06T12:40:08Z</time>
      </trkpt>
      <trkpt lat="36.927257" lon="-3.392137">
        <ele>931.166</ele>
        <time>2013-07-06T12:40:43Z</time>
      </trkpt>
      <trkpt lat="36.927731" lon="-3.393637">
        <ele>942.050</ele>
        <time>2013-07-06T12:41:58Z</time>
      </trkpt>
      <trkpt lat="36.927856" lon="-3.395242">
        <ele>952.072</ele>
        <time>2013-07-06T12:43:07Z</time>
      </trkpt>
      <trkpt lat="36.928267" lon="-3.396126">
        <ele>958.720</ele>
        <time>2013-07-06T12:43:53Z</time>
      </trkpt>
      <trkpt lat="36.929127" lon="-3.396144">
        <ele>961.095</ele>
        <time>2013-07-06T12:44:29Z</time>
      </trkpt>
      <trkpt lat="36.929451" lon="-3.396375">
        <ele>961.789</ele>
        <time>2013-07-06T12:44:44Z</time>
      </trkpt>
      <trkpt lat="36.92946" lon="-3.396622"/>
      <trkpt lat="36.929099" lon="-3.39689"/>
      <trkpt lat="36.928842" lon="-3.397717">
        <ele>970.585</ele>
        <time>2013-07-06T12:45:47Z</time>
      </trkpt>
      <trkpt lat="36.929158" lon="-3.39873"/>
      <trkpt lat="36.929376" lon="-3.398601">
        <ele>980.907</ele>
        <time>2013-07-06T12:46:52Z</time>
      </trkpt>
      <trkpt lat="36.929194" lon="-3.397838">
        <ele>986.361</ele>
        <time>2013-07-06T12:47:28Z</time>
      </trkpt>
      <trkpt lat="36.929309" lon="-3.397277">
        <ele>990.915</ele>
        <time>2013-07-06T12:47:54Z</time>
      </trkpt>
      <trkpt lat="36.930046" lon="-3.397089">
        <ele>999.417</ele>
        <time>2013-07-06T12:48:41Z</time>
      </trkpt>
      <trkpt lat="36.929713" lon="-3.397343">
        <ele>1003.015</ele>
        <time>2013-07-06T12:49:04Z</time>
      </trkpt>
      <trkpt lat="36.932244" lon="-3.399293">
        <ele>1035.630</ele>
        <time>2013-07-06T12:52:11Z</time>
      </trkpt>
      <trkpt lat="36.932492" lon="-3.399729">
        <ele>1041.154</ele>
        <time>2013-07-06T12:52:40Z</time>
      </trkpt>
      <trkpt lat="36.933972" lon="-3.40018"/>
      <trkpt lat="36.933868" lon="-3.401133">
        <ele>1065.629</ele>
        <time>2013-07-06T12:57:36Z</time>
      </trkpt>
      <trkpt lat="36.934298" lon="-3.401706">
        <ele>1072.800</ele>
        <time>2013-07-06T12:58:26Z</time>
      </trkpt>
      <trkpt lat="36.934126" lon="-3.401102">
        <ele>1077.120</ele>
        <time>2013-07-06T12:59:06Z</time>
      </trkpt>
      <trkpt lat="36.934211" lon="-3.400977">
        <ele>1079.107</ele>
        <time>2013-07-06T12:59:19Z</time>
      </trkpt>
      <trkpt lat="36.934761" lon="-3.401928">
        <ele>1090.186</ele>
        <time>2013-07-06T13:00:22Z</time>
      </trkpt>
      <trkpt lat="36.935521" lon="-3.402157">
        <ele>1099.130</ele>
        <time>2013-07-06T13:01:17Z</time>
      </trkpt>
      <trkpt lat="36.935489" lon="-3.403842">
        <ele>1114.062</ele>
        <time>2013-07-06T13:02:55Z</time>
      </trkpt>
      <trkpt lat="36.935606" lon="-3.403873">
        <ele>1116.440</ele>
        <time>2013-07-06T13:03:11Z</time>
      </trkpt>
      <trkpt lat="36.935932" lon="-3.402711">
        <ele>1128.755</ele>
        <time>2013-07-06T13:04:29Z</time>
      </trkpt>
      <trkpt lat="36.936088" lon="-3.403471">
        <ele>1137.199</ele>
        <time>2013-07-06T13:05:21Z</time>
      </trkpt>
      <trkpt lat="36.937862" lon="-3.403422">
        <ele>1156.984</ele>
        <time>2013-07-06T13:07:43Z</time>
      </trkpt>
      <trkpt lat="36.938768" lon="-3.403077">
        <ele>1170.657</ele>
        <time>2013-07-06T13:09:10Z</time>
      </trkpt>
      <trkpt lat="36.939091" lon="-3.403322">
        <ele>1174.600</ele>
        <time>2013-07-06T13:09:38Z</time>
      </trkpt>
      <trkpt lat="36.939047" lon="-3.405389">
        <ele>1180.620</ele>
        <time>2013-07-06T13:11:00Z</time>
      </trkpt>
      <trkpt lat="36.939621" lon="-3.406128">
        <ele>1189.507</ele>
        <time>2013-07-06T13:20:40Z</time>
      </trkpt>
      <trkpt lat="36.940036" lon="-3.406276">
        <ele>1192.939</ele>
        <time>2013-07-06T13:21:10Z</time>
      </trkpt>
      <trkpt lat="36.940633" lon="-3.406009">
        <ele>1198.753</ele>
        <time>2013-07-06T13:21:56Z</time>
      </trkpt>
      <trkpt lat="36.941465" lon="-3.406327">
        <ele>1207.095</ele>
        <time>2013-07-06T13:22:54Z</time>
      </trkpt>
      <trkpt lat="36.941822" lon="-3.405912">
        <ele>1212.153</ele>
        <time>2013-07-06T13:23:26Z</time>
      </trkpt>
      <trkpt lat="36.942327" lon="-3.405724">
        <ele>1218.168</ele>
        <time>2013-07-06T13:24:05Z</time>
      </trkpt>
      <trkpt lat="36.942245" lon="-3.405525">
        <ele>1220.282</ele>
        <time>2013-07-06T13:24:19Z</time>
      </trkpt>
      <trkpt lat="36.94155" lon="-3.40544"/>
      <trkpt lat="36.940952" lon="-3.405001">
        <ele>1233.646</ele>
        <time>2013-07-06T13:25:49Z</time>
      </trkpt>
      <trkpt lat="36.940806" lon="-3.403221">
        <ele>1247.088</ele>
        <time>2013-07-06T13:27:22Z</time>
      </trkpt>
      <trkpt lat="36.940586" lon="-3.402553">
        <ele>1253.916</ele>
        <time>2013-07-06T13:28:02Z</time>
      </trkpt>
      <trkpt lat="36.94061" lon="-3.401951"/>
      <trkpt lat="36.940047" lon="-3.401843">
        <ele>1264.888</ele>
        <time>2013-07-06T13:29:18Z</time>
      </trkpt>
      <trkpt lat="36.939518" lon="-3.401411">
        <ele>1270.562</ele>
        <time>2013-07-06T13:30:02Z</time>
      </trkpt>
      <trkpt lat="36.938838" lon="-3.40035"/>
      <trkpt lat="36.938712" lon="-3.399209">
        <ele>1287.542</ele>
        <time>2013-07-06T13:32:20Z</time>
      </trkpt>
      <trkpt lat="36.93816" lon="-3.398295"/>
      <trkpt lat="36.937927" lon="-3.397136">
        <ele>1305.361</ele>
        <time>2013-07-06T13:34:12Z</time>
      </trkpt>
      <trkpt lat="36.938149" lon="-3.396182">
        <ele>1312.456</ele>
        <time>2013-07-06T13:35:01Z</time>
      </trkpt>
      <trkpt lat="36.937362" lon="-3.395749">
        <ele>1320.493</ele>
        <time>2013-07-06T13:35:51Z</time>
      </trkpt>
      <trkpt lat="36.936987" lon="-3.395248">
        <ele>1325.265</ele>
        <time>2013-07-06T13:36:22Z</time>
      </trkpt>
      <trkpt lat="36.936787" lon="-3.392696">
        <ele>1343.321</ele>
        <time>2013-07-06T13:38:24Z</time>
      </trkpt>
      <trkpt lat="36.93692" lon="-3.392441"/>
      <trkpt lat="36.937441" lon="-3.394036">
        <ele>1361.093</ele>
        <time>2013-07-06T13:40:15Z</time>
      </trkpt>
      <trkpt lat="36.938194" lon="-3.394792">
        <ele>1370.897</ele>
        <time>2013-07-06T13:41:17Z</time>
      </trkpt>
      <trkpt lat="36.940173" lon="-3.39501"/>
      <trkpt lat="36.941082" lon="-3.396335">
        <ele>1400.367</ele>
        <time>2013-07-06T13:44:49Z</time>
      </trkpt>
      <trkpt lat="36.942064" lon="-3.39617"/>
      <trkpt lat="36.942344" lon="-3.396556">
        <ele>1413.856</ele>
        <time>2013-07-06T13:51:10Z</time>
      </trkpt>
      <trkpt lat="36.94229" lon="-3.396977"/>
      <trkpt lat="36.942835" lon="-3.397392">
        <ele>1420.195</ele>
        <time>2013-07-06T13:52:15Z</time>
      </trkpt>
      <trkpt lat="36.943525" lon="-3.397565">
        <ele>1426.749</ele>
        <time>2013-07-06T13:53:12Z</time>
      </trkpt>
      <trkpt lat="36.944516" lon="-3.396852">
        <ele>1431.823</ele>
        <time>2013-07-06T13:54:25Z</time>
      </trkpt>
      <trkpt lat="36.944799" lon="-3.396843">
        <ele>1431.807</ele>
        <time>2013-07-06T13:54:54Z</time>
      </trkpt>
      <trkpt lat="36.944693" lon="-3.398409">
        <ele>1437.273</ele>
        <time>2013-07-06T13:56:38Z</time>
      </trkpt>
      <trkpt lat="36.945149" lon="-3.398753">
        <ele>1440.887</ele>
        <time>2013-07-06T13:57:11Z</time>
      </trkpt>
      <trkpt lat="36.945416" lon="-3.399781">
        <ele>1446.519</ele>
        <time>2013-07-06T13:58:02Z</time>
      </trkpt>
      <trkpt lat="36.945981" lon="-3.400262">
        <ele>1450.317</ele>
        <time>2013-07-06T13:58:42Z</time>
      </trkpt>
      <trkpt lat="36.947185" lon="-3.400808">
        <ele>1461.132</ele>
        <time>2013-07-06T13:59:58Z</time>
      </trkpt>
      <trkpt lat="36.948626" lon="-3.401151">
        <ele>1474.516</ele>
        <time>2013-07-06T14:01:31Z</time>
      </trkpt>
      <trkpt lat="36.949403" lon="-3.401556">
        <ele>1479.381</ele>
        <time>2013-07-06T14:02:15Z</time>
      </trkpt>
      <trkpt lat="36.954786" lon="-3.402124">
        <ele>1512.816</ele>
        <time>2013-07-06T14:06:40Z</time>
      </trkpt>
      <trkpt lat="36.955644" lon="-3.403344">
        <ele>1525.776</ele>
        <time>2013-07-06T14:08:09Z</time>
      </trkpt>
      <trkpt lat="36.957202" lon="-3.404951">
        <ele>1546.413</ele>
        <time>2013-07-06T14:13:48Z</time>
      </trkpt>
      <trkpt lat="36.957655" lon="-3.406106">
        <ele>1556.307</ele>
        <time>2013-07-06T14:15:01Z</time>
      </trkpt>
      <trkpt lat="36.958128" lon="-3.406368">
        <ele>1561.785</ele>
        <time>2013-07-06T14:15:38Z</time>
      </trkpt>
      <trkpt lat="36.959687" lon="-3.406706">
        <ele>1577.289</ele>
        <time>2013-07-06T14:17:23Z</time>
      </trkpt>
      <trkpt lat="36.961244" lon="-3.406477">
        <ele>1592.151</ele>
        <time>2013-07-06T14:19:08Z</time>
      </trkpt>
      <trkpt lat="36.962382" lon="-3.40693"/>
      <trkpt lat="36.963209" lon="-3.406784">
        <ele>1608.074</ele>
        <time>2013-07-06T14:21:08Z</time>
      </trkpt>
      <trkpt lat="36.964574" lon="-3.407478">
        <ele>1620.398</ele>
        <time>2013-07-06T14:22:30Z</time>
      </trkpt>
      <trkpt lat="36.966498" lon="-3.407802">
        <ele>1635.053</ele>
        <time>2013-07-06T14:24:10Z</time>
      </trkpt>
      <trkpt lat="36.967765" lon="-3.40872"/>
      <trkpt lat="36.968669" lon="-3.408888">
        <ele>1628.381</ele>
        <time>2013-07-06T14:25:32Z</time>
      </trkpt>
      <trkpt lat="36.968672" lon="-3.409347">
        <ele>1629.309</ele>
        <time>2013-07-06T14:25:58Z</time>
      </trkpt>
      <trkpt lat="36.967879" lon="-3.40986"/>
      <trkpt lat="36.96714" lon="-3.411001"/>
      <trkpt lat="36.967064" lon="-3.411422">
        <ele>1646.752</ele>
        <time>2013-07-06T14:28:25Z</time>
      </trkpt>
      <trkpt lat="36.967191" lon="-3.411478">
        <ele>1654.194</ele>
        <time>2013-07-06T14:42:22Z</time>
      </trkpt>
      <trkpt lat="36.967" lon="-3.411358"/>
      <trkpt lat="36.96702" lon="-3.413036"/>
      <trkpt lat="36.966242" lon="-3.413517">
        <ele>1650.341</ele>
        <time>2013-07-06T14:46:16Z</time>
      </trkpt>
      <trkpt lat="36.965436" lon="-3.415156">
        <ele>1645.986</ele>
        <time>2013-07-06T14:46:47Z</time>
      </trkpt>
      <trkpt lat="36.963824" lon="-3.416512">
        <ele>1640.896</ele>
        <time>2013-07-06T14:47:21Z</time>
      </trkpt>
      <trkpt lat="36.963083" lon="-3.416449">
        <ele>1638.531</ele>
        <time>2013-07-06T14:47:34Z</time>
      </trkpt>
      <trkpt lat="36.960155" lon="-3.418292">
        <ele>1629.424</ele>
        <time>2013-07-06T14:48:32Z</time>
      </trkpt>
      <trkpt lat="36.959251" lon="-3.419577">
        <ele>1625.707</ele>
        <time>2013-07-06T14:48:58Z</time>
      </trkpt>
      <trkpt lat="36.958201" lon="-3.419774">
        <ele>1622.663</ele>
        <time>2013-07-06T14:49:18Z</time>
      </trkpt>
      <trkpt lat="36.956779" lon="-3.420671">
        <ele>1618.287</ele>
        <time>2013-07-06T14:49:44Z</time>
      </trkpt>
      <trkpt lat="36.956467" lon="-3.421055">
        <ele>1617.419</ele>
        <time>2013-07-06T14:49:51Z</time>
      </trkpt>
      <trkpt lat="36.956034" lon="-3.422754">
        <ele>1613.377</ele>
        <time>2013-07-06T14:50:13Z</time>
      </trkpt>
      <trkpt lat="36.955357" lon="-3.423538">
        <ele>1610.682</ele>
        <time>2013-07-06T14:50:28Z</time>
      </trkpt>
      <trkpt lat="36.955047" lon="-3.424258">
        <ele>1609.146</ele>
        <time>2013-07-06T14:50:40Z</time>
      </trkpt>
      <trkpt lat="36.954159" lon="-3.424926">
        <ele>1606.271</ele>
        <time>2013-07-06T14:50:57Z</time>
      </trkpt>
      <trkpt lat="36.953895" lon="-3.425821">
        <ele>1604.267</ele>
        <time>2013-07-06T14:51:10Z</time>
      </trkpt>
      <trkpt lat="36.953137" lon="-3.427135">
        <ele>1601.081</ele>
        <time>2013-07-06T14:51:31Z</time>
      </trkpt>
      <trkpt lat="36.952817" lon="-3.428018">
        <ele>1599.219</ele>
        <time>2013-07-06T14:51:43Z</time>
      </trkpt>
      <trkpt lat="36.951689" lon="-3.428873">
        <ele>1595.007</ele>
        <time>2013-07-06T14:52:04Z</time>
      </trkpt>
      <trkpt lat="36.950542" lon="-3.428829">
        <ele>1590.750</ele>
        <time>2013-07-06T14:53:12Z</time>
      </trkpt>
      <trkpt lat="36.950561" lon="-3.428829">
        <ele>1590.764</ele>
        <time>2013-07-07T14:53:11Z</time>
      </trkpt>
      <trkpt lat="36.950332" lon="-3.428967">
        <ele>1590.206</ele>
        <time>2013-07-07T14:53:26Z</time>
      </trkpt>
      <trkpt lat="36.950356" lon="-3.430351">
        <ele>1588.216</ele>
        <time>2013-07-07T14:54:47Z</time>
      </trkpt>
      <trkpt lat="36.950595" lon="-3.430803">
        <ele>1588.407</ele>
        <time>2013-07-07T14:54:59Z</time>
      </trkpt>
      <trkpt lat="36.950762" lon="-3.432317">
        <ele>1587.640</ele>
        <time>2013-07-07T14:55:29Z</time>
      </trkpt>
      <trkpt lat="36.951198" lon="-3.433368">
        <ele>1587.014</ele>
        <time>2013-07-07T14:55:50Z</time>
      </trkpt>
      <trkpt lat="36.949533" lon="-3.435548">
        <ele>1585.456</ele>
        <time>2013-07-07T14:56:45Z</time>
      </trkpt>
      <trkpt lat="36.949248" lon="-3.436384">
        <ele>1584.734</ele>
        <time>2013-07-07T14:57:02Z</time>
      </trkpt>
      <trkpt lat="36.949161" lon="-3.437700">
        <ele>1584.720</ele>
        <time>2013-07-07T14:57:25Z</time>
      </trkpt>
      <trkpt lat="36.949591" lon="-3.438656">
        <ele>1585.692</ele>
        <time>2013-07-07T14:57:47Z</time>
      </trkpt>
      <trkpt lat="36.949232" lon="-3.439762">
        <ele>1585.916</ele>
        <time>2013-07-07T14:58:08Z</time>
      </trkpt>
      <trkpt lat="36.949604" lon="-3.441205">
        <ele>1585.772</ele>
        <time>2013-07-07T14:58:35Z</time>
      </trkpt>
      <trkpt lat="36.949180" lon="-3.442876">
        <ele>1586.013</ele>
        <time>2013-07-07T14:59:08Z</time>
      </trkpt>
      <trkpt lat="36.949156" lon="-3.444806">
        <ele>1587.014</ele>
        <time>2013-07-07T14:59:44Z</time>
      </trkpt>
      <trkpt lat="36.948005" lon="-3.446973">
        <ele>1586.507</ele>
        <time>2013-07-07T15:00:32Z</time>
      </trkpt>
      <trkpt lat="36.945907" lon="-3.453999">
        <ele>1574.151</ele>
        <time>2013-07-07T15:05:53Z</time>
      </trkpt>
      <trkpt lat="36.945752" lon="-3.453687">
        <ele>1571.535</ele>
        <time>2013-07-07T15:06:29Z</time>
      </trkpt>
      <trkpt lat="36.945582" lon="-3.452063">
        <ele>1553.917</ele>
        <time>2013-07-07T15:07:00Z</time>
      </trkpt>
      <trkpt lat="36.945381" lon="-3.452075">
        <ele>1551.325</ele>
        <time>2013-07-07T15:07:03Z</time>
      </trkpt>
      <trkpt lat="36.944221" lon="-3.454411">
        <ele>1533.681</ele>
        <time>2013-07-07T15:07:33Z</time>
      </trkpt>
      <trkpt lat="36.943879" lon="-3.455420">
        <ele>1526.863</ele>
        <time>2013-07-07T15:07:45Z</time>
      </trkpt>
      <trkpt lat="36.943320" lon="-3.456101">
        <ele>1517.157</ele>
        <time>2013-07-07T15:07:58Z</time>
      </trkpt>
      <trkpt lat="36.943202" lon="-3.456659">
        <ele>1512.891</ele>
        <time>2013-07-07T15:08:33Z</time>
      </trkpt>
      <trkpt lat="36.943409" lon="-3.456767">
        <ele>1508.281</ele>
        <time>2013-07-07T15:08:39Z</time>
      </trkpt>
      <trkpt lat="36.944560" lon="-3.456529">
        <ele>1495.219</ele>
        <time>2013-07-07T15:09:03Z</time>
      </trkpt>
      <trkpt lat="36.944587" lon="-3.456674">
        <ele>1491.807</ele>
        <time>2013-07-07T15:09:10Z</time>
      </trkpt>
      <trkpt lat="36.944082" lon="-3.457312">
        <ele>1480.033</ele>
        <time>2013-07-07T15:09:26Z</time>
      </trkpt>
      <trkpt lat="36.948187" lon="-3.458051">
        <ele>1442.977</ele>
        <time>2013-07-07T15:10:42Z</time>
      </trkpt>
      <trkpt lat="36.947651" lon="-3.458121">
        <ele>1435.779</ele>
        <time>2013-07-07T15:10:54Z</time>
      </trkpt>
      <trkpt lat="36.948631" lon="-3.458376">
        <ele>1426.727</ele>
        <time>2013-07-07T15:11:23Z</time>
      </trkpt>
      <trkpt lat="36.949163" lon="-3.458066">
        <ele>1420.633</ele>
        <time>2013-07-07T15:12:35Z</time>
      </trkpt>
      <trkpt lat="36.950558" lon="-3.457991">
        <ele>1404.555</ele>
        <time>2013-07-07T15:12:58Z</time>
      </trkpt>
      <trkpt lat="36.950304" lon="-3.458401">
        <ele>1398.879</ele>
        <time>2013-07-07T15:13:06Z</time>
      </trkpt>
      <trkpt lat="36.949526" lon="-3.458827">
        <ele>1385.562</ele>
        <time>2013-07-07T15:13:18Z</time>
      </trkpt>
      <trkpt lat="36.949726" lon="-3.459406">
        <ele>1381.983</ele>
        <time>2013-07-07T15:13:22Z</time>
      </trkpt>
      <trkpt lat="36.949554" lon="-3.458970">
        <ele>1380.011</ele>
        <time>2013-07-07T15:13:25Z</time>
      </trkpt>
      <trkpt lat="36.950406" lon="-3.459219">
        <ele>1371.707</ele>
        <time>2013-07-07T15:13:43Z</time>
      </trkpt>
      <trkpt lat="36.950787" lon="-3.458765">
        <ele>1369.570</ele>
        <time>2013-07-07T15:13:54Z</time>
      </trkpt>
      <trkpt lat="36.951768" lon="-3.458483">
        <ele>1364.914</ele>
        <time>2013-07-07T15:14:12Z</time>
      </trkpt>
      <trkpt lat="36.952186" lon="-3.458525">
        <ele>1362.116</ele>
        <time>2013-07-07T15:14:18Z</time>
      </trkpt>
      <trkpt lat="36.952762" lon="-3.459122">
        <ele>1360.954</ele>
        <time>2013-07-07T15:14:33Z</time>
      </trkpt>
      <trkpt lat="36.952365" lon="-3.459106">
        <ele>1352.520</ele>
        <time>2013-07-07T15:14:46Z</time>
      </trkpt>
      <trkpt lat="36.952595" lon="-3.459677">
        <ele>1343.382</ele>
        <time>2013-07-07T15:14:57Z</time>
      </trkpt>
      <trkpt lat="36.953374" lon="-3.459807">
        <ele>1334.956</ele>
        <time>2013-07-07T15:15:14Z</time>
      </trkpt>
      <trkpt lat="36.953490" lon="-3.460081">
        <ele>1329.769</ele>
        <time>2013-07-07T15:15:24Z</time>
      </trkpt>
      <trkpt lat="36.954267" lon="-3.460319">
        <ele>1337.604</ele>
        <time>2013-07-07T15:17:26Z</time>
      </trkpt>
      <trkpt lat="36.955438" lon="-3.459999">
        <ele>1363.124</ele>
        <time>2013-07-07T15:20:36Z</time>
      </trkpt>
      <trkpt lat="36.955281" lon="-3.459728">
        <ele>1363.607</ele>
        <time>2013-07-07T15:20:42Z</time>
      </trkpt>
      <trkpt lat="36.955932" lon="-3.460053">
        <ele>1363.830</ele>
        <time>2013-07-07T15:21:48Z</time>
      </trkpt>
      <trkpt lat="36.956808" lon="-3.459804">
        <ele>1353.454</ele>
        <time>2013-07-07T15:22:26Z</time>
      </trkpt>
      <trkpt lat="36.956824" lon="-3.460044">
        <ele>1349.016</ele>
        <time>2013-07-07T15:22:37Z</time>
      </trkpt>
      <trkpt lat="36.956417" lon="-3.460726">
        <ele>1344.844</ele>
        <time>2013-07-07T15:25:04Z</time>
      </trkpt>
      <trkpt lat="36.956542" lon="-3.460795">
        <ele>1348.580</ele>
        <time>2013-07-07T15:25:23Z</time>
      </trkpt>
      <trkpt lat="36.956494" lon="-3.460970">
        <ele>1352.562</ele>
        <time>2013-07-07T15:26:07Z</time>
      </trkpt>
      <trkpt lat="36.956646" lon="-3.460933">
        <ele>1357.456</ele>
        <time>2013-07-07T15:26:37Z</time>
      </trkpt>
      <trkpt lat="36.956585" lon="-3.461371">
        <ele>1362.675</ele>
        <time>2013-07-07T15:27:39Z</time>
      </trkpt>
      <trkpt lat="36.956164" lon="-3.461279">
        <ele>1370.528</ele>
        <time>2013-07-07T15:28:33Z</time>
      </trkpt>
      <trkpt lat="36.956445" lon="-3.461741">
        <ele>1387.520</ele>
        <time>2013-07-07T15:31:15Z</time>
      </trkpt>
      <trkpt lat="36.956380" lon="-3.461913">
        <ele>1391.207</ele>
        <time>2013-07-07T15:31:45Z</time>
      </trkpt>
      <trkpt lat="36.956703" lon="-3.462185">
        <ele>1406.491</ele>
        <time>2013-07-07T15:34:04Z</time>
      </trkpt>
      <trkpt lat="36.957439" lon="-3.462293">
        <ele>1421.295</ele>
        <time>2013-07-07T15:36:27Z</time>
      </trkpt>
      <trkpt lat="36.957829" lon="-3.461811">
        <ele>1436.747</ele>
        <time>2013-07-07T15:38:32Z</time>
      </trkpt>
      <trkpt lat="36.958451" lon="-3.461645">
        <ele>1444.085</ele>
        <time>2013-07-07T15:40:15Z</time>
      </trkpt>
      <trkpt lat="36.958365" lon="-3.461123">
        <ele>1444.891</ele>
        <time>2013-07-07T15:41:01Z</time>
      </trkpt>
      <trkpt lat="36.958589" lon="-3.461668">
        <ele>1450.723</ele>
        <time>2013-07-07T15:47:07Z</time>
      </trkpt>
      <trkpt lat="36.958417" lon="-3.462142">
        <ele>1451.537</ele>
        <time>2013-07-07T15:47:35Z</time>
      </trkpt>
      <trkpt lat="36.958109" lon="-3.462460">
        <ele>1452.455</ele>
        <time>2013-07-07T15:47:58Z</time>
      </trkpt>
      <trkpt lat="36.958222" lon="-3.462573">
        <ele>1454.307</ele>
        <time>2013-07-07T15:48:11Z</time>
      </trkpt>
      <trkpt lat="36.959076" lon="-3.461792">
        <ele>1464.217</ele>
        <time>2013-07-07T15:49:35Z</time>
      </trkpt>
      <trkpt lat="36.959145" lon="-3.461308">
        <ele>1468.707</ele>
        <time>2013-07-07T15:50:11Z</time>
      </trkpt>
      <trkpt lat="36.959588" lon="-3.461000">
        <ele>1475.799</ele>
        <time>2013-07-07T15:50:57Z</time>
      </trkpt>
      <trkpt lat="36.960178" lon="-3.460880">
        <ele>1484.693</ele>
        <time>2013-07-07T15:51:56Z</time>
      </trkpt>
      <trkpt lat="36.959801" lon="-3.461330">
        <ele>1490.955</ele>
        <time>2013-07-07T15:52:44Z</time>
      </trkpt>
      <trkpt lat="36.960061" lon="-3.461651">
        <ele>1495.213</ele>
        <time>2013-07-07T15:53:17Z</time>
      </trkpt>
      <trkpt lat="36.959682" lon="-3.462702">
        <ele>1504.019</ele>
        <time>2013-07-07T15:54:33Z</time>
      </trkpt>
      <trkpt lat="36.960175" lon="-3.462576">
        <ele>1512.241</ele>
        <time>2013-07-07T15:55:26Z</time>
      </trkpt>
      <trkpt lat="36.960525" lon="-3.462158">
        <ele>1517.795</ele>
        <time>2013-07-07T15:56:13Z</time>
      </trkpt>
      <trkpt lat="36.960767" lon="-3.462231">
        <ele>1521.734</ele>
        <time>2013-07-07T15:56:53Z</time>
      </trkpt>
      <trkpt lat="36.960956" lon="-3.462553">
        <ele>1526.155</ele>
        <time>2013-07-07T15:57:41Z</time>
      </trkpt>
      <trkpt lat="36.961321" lon="-3.461830">
        <ele>1534.410</ele>
        <time>2013-07-07T15:59:06Z</time>
      </trkpt>
      <trkpt lat="36.961643" lon="-3.461545">
        <ele>1540.707</ele>
        <time>2013-07-07T16:00:06Z</time>
      </trkpt>
      <trkpt lat="36.961665" lon="-3.462067">
        <ele>1545.757</ele>
        <time>2013-07-07T16:01:04Z</time>
      </trkpt>
      <trkpt lat="36.961969" lon="-3.462517">
        <ele>1548.761</ele>
        <time>2013-07-07T16:03:24Z</time>
      </trkpt>
      <trkpt lat="36.961334" lon="-3.463367">
        <ele>1558.053</ele>
        <time>2013-07-07T16:05:03Z</time>
      </trkpt>
      <trkpt lat="36.961408" lon="-3.463465">
        <ele>1559.921</ele>
        <time>2013-07-07T16:05:22Z</time>
      </trkpt>
      <trkpt lat="36.961916" lon="-3.462908">
        <ele>1561.337</ele>
        <time>2013-07-07T16:06:17Z</time>
      </trkpt>
      <trkpt lat="36.962370" lon="-3.462867">
        <ele>1565.519</ele>
        <time>2013-07-07T16:06:57Z</time>
      </trkpt>
      <trkpt lat="36.963228" lon="-3.461589">
        <ele>1581.873</ele>
        <time>2013-07-07T16:09:10Z</time>
      </trkpt>
      <trkpt lat="36.963300" lon="-3.461716">
        <ele>1583.984</ele>
        <time>2013-07-07T16:09:27Z</time>
      </trkpt>
      <trkpt lat="36.963160" lon="-3.461981">
        <ele>1586.507</ele>
        <time>2013-07-07T16:09:51Z</time>
      </trkpt>
      <trkpt lat="36.963268" lon="-3.462058">
        <ele>1588.517</ele>
        <time>2013-07-07T16:10:06Z</time>
      </trkpt>
      <trkpt lat="36.963919" lon="-3.461655">
        <ele>1598.107</ele>
        <time>2013-07-07T16:11:26Z</time>
      </trkpt>
      <trkpt lat="36.964789" lon="-3.461899">
        <ele>1612.722</ele>
        <time>2013-07-07T16:13:52Z</time>
      </trkpt>
      <trkpt lat="36.963829" lon="-3.462606">
        <ele>1619.636</ele>
        <time>2013-07-07T16:16:27Z</time>
      </trkpt>
      <trkpt lat="36.963247" lon="-3.463437">
        <ele>1624.228</ele>
        <time>2013-07-07T16:21:18Z</time>
      </trkpt>
      <trkpt lat="36.962949" lon="-3.464762">
        <ele>1627.466</ele>
        <time>2013-07-07T16:22:25Z</time>
      </trkpt>
      <trkpt lat="36.962483" lon="-3.464795">
        <ele>1629.632</ele>
        <time>2013-07-07T16:22:57Z</time>
      </trkpt>
      <trkpt lat="36.961569" lon="-3.465479">
        <ele>1633.644</ele>
        <time>2013-07-07T16:24:01Z</time>
      </trkpt>
      <trkpt lat="36.960613" lon="-3.465360">
        <ele>1639.368</ele>
        <time>2013-07-07T16:25:08Z</time>
      </trkpt>
      <trkpt lat="36.958955" lon="-3.466305">
        <ele>1637.228</ele>
        <time>2013-07-07T16:26:20Z</time>
      </trkpt>
      <trkpt lat="36.958294" lon="-3.466868">
        <ele>1634.289</ele>
        <time>2013-07-07T16:26:44Z</time>
      </trkpt>
      <trkpt lat="36.958087" lon="-3.467309">
        <ele>1633.917</ele>
        <time>2013-07-07T16:27:03Z</time>
      </trkpt>
      <trkpt lat="36.957538" lon="-3.467681">
        <ele>1628.607</ele>
        <time>2013-07-07T16:27:18Z</time>
      </trkpt>
      <trkpt lat="36.956445" lon="-3.467934">
        <ele>1615.736</ele>
        <time>2013-07-07T16:27:44Z</time>
      </trkpt>
      <trkpt lat="36.956678" lon="-3.467453">
        <ele>1610.580</ele>
        <time>2013-07-07T16:27:58Z</time>
      </trkpt>
      <trkpt lat="36.955795" lon="-3.467979">
        <ele>1599.552</ele>
        <time>2013-07-07T16:28:22Z</time>
      </trkpt>
      <trkpt lat="36.955034" lon="-3.467936">
        <ele>1595.750</ele>
        <time>2013-07-07T16:29:20Z</time>
      </trkpt>
      <trkpt lat="36.954588" lon="-3.468210">
        <ele>1589.756</ele>
        <time>2013-07-07T16:29:41Z</time>
      </trkpt>
      <trkpt lat="36.953958" lon="-3.470543">
        <ele>1572.348</ele>
        <time>2013-07-07T16:30:20Z</time>
      </trkpt>
      <trkpt lat="36.953313" lon="-3.471279">
        <ele>1565.252</ele>
        <time>2013-07-07T16:30:37Z</time>
      </trkpt>
      <trkpt lat="36.953133" lon="-3.471964">
        <ele>1557.318</ele>
        <time>2013-07-07T16:30:52Z</time>
      </trkpt>
      <trkpt lat="36.953068" lon="-3.471026">
        <ele>1551.398</ele>
        <time>2013-07-07T16:31:12Z</time>
      </trkpt>
      <trkpt lat="36.953549" lon="-3.470508">
        <ele>1551.017</ele>
        <time>2013-07-07T16:31:29Z</time>
      </trkpt>
      <trkpt lat="36.953548" lon="-3.470243">
        <ele>1548.407</ele>
        <time>2013-07-07T16:31:39Z</time>
      </trkpt>
      <trkpt lat="36.952763" lon="-3.470963">
        <ele>1537.295</ele>
        <time>2013-07-07T16:32:12Z</time>
      </trkpt>
      <trkpt lat="36.952589" lon="-3.471922">
        <ele>1531.489</ele>
        <time>2013-07-07T16:32:26Z</time>
      </trkpt>
      <trkpt lat="36.951507" lon="-3.473890">
        <ele>1526.851</ele>
        <time>2013-07-07T16:33:12Z</time>
      </trkpt>
      <trkpt lat="36.949764" lon="-3.475105">
        <ele>1524.759</ele>
        <time>2013-07-07T16:42:57Z</time>
      </trkpt>
      <trkpt lat="36.948636" lon="-3.476439">
        <ele>1533.475</ele>
        <time>2013-07-07T16:45:00Z</time>
      </trkpt>
      <trkpt lat="36.948085" lon="-3.476866">
        <ele>1537.787</ele>
        <time>2013-07-07T16:45:47Z</time>
      </trkpt>
      <trkpt lat="36.947627" lon="-3.478577">
        <ele>1551.531</ele>
        <time>2013-07-07T16:48:13Z</time>
      </trkpt>
      <trkpt lat="36.946853" lon="-3.480195">
        <ele>1551.566</ele>
        <time>2013-07-07T16:50:08Z</time>
      </trkpt>
      <trkpt lat="36.947013" lon="-3.480891">
        <ele>1553.729</ele>
        <time>2013-07-07T16:50:41Z</time>
      </trkpt>
      <trkpt lat="36.947884" lon="-3.482405">
        <ele>1565.521</ele>
        <time>2013-07-07T16:52:36Z</time>
      </trkpt>
      <trkpt lat="36.949295" lon="-3.482923">
        <ele>1577.007</ele>
        <time>2013-07-07T16:54:30Z</time>
      </trkpt>
      <trkpt lat="36.950371" lon="-3.483751">
        <ele>1585.610</ele>
        <time>2013-07-07T16:55:56Z</time>
      </trkpt>
      <trkpt lat="36.948630" lon="-3.481147">
        <ele>1600.554</ele>
        <time>2013-07-07T16:59:02Z</time>
      </trkpt>
      <trkpt lat="36.948455" lon="-3.480438">
        <ele>1604.566</ele>
        <time>2013-07-07T16:59:52Z</time>
      </trkpt>
      <trkpt lat="36.948653" lon="-3.480306">
        <ele>1607.814</ele>
        <time>2013-07-07T17:00:21Z</time>
      </trkpt>
      <trkpt lat="36.948946" lon="-3.480739">
        <ele>1611.810</ele>
        <time>2013-07-07T17:01:06Z</time>
      </trkpt>
      <trkpt lat="36.951124" lon="-3.482451">
        <ele>1630.542</ele>
        <time>2013-07-07T17:04:54Z</time>
      </trkpt>
      <trkpt lat="36.952146" lon="-3.482943">
        <ele>1640.686</ele>
        <time>2013-07-07T17:06:39Z</time>
      </trkpt>
      <trkpt lat="36.954897" lon="-3.484863">
        <ele>1666.033</ele>
        <time>2013-07-07T17:15:42Z</time>
      </trkpt>
      <trkpt lat="36.956287" lon="-3.486416">
        <ele>1680.323</ele>
        <time>2013-07-07T17:17:56Z</time>
      </trkpt>
      <trkpt lat="36.957664" lon="-3.487423">
        <ele>1694.115</ele>
        <time>2013-07-07T17:19:58Z</time>
      </trkpt>
      <trkpt lat="36.959383" lon="-3.488247">
        <ele>1706.507</ele>
        <time>2013-07-07T17:22:00Z</time>
      </trkpt>
      <trkpt lat="36.960300" lon="-3.488266">
        <ele>1712.447</ele>
        <time>2013-07-07T17:22:58Z</time>
      </trkpt>
      <trkpt lat="36.961148" lon="-3.488779">
        <ele>1709.421</ele>
        <time>2013-07-07T17:23:31Z</time>
      </trkpt>
      <trkpt lat="36.961443" lon="-3.488602">
        <ele>1709.173</ele>
        <time>2013-07-07T17:23:37Z</time>
      </trkpt>
      <trkpt lat="36.964102" lon="-3.489275">
        <ele>1717.871</ele>
        <time>2013-07-07T17:25:34Z</time>
      </trkpt>
      <trkpt lat="36.965092" lon="-3.490121">
        <ele>1724.317</ele>
        <time>2013-07-07T17:26:30Z</time>
      </trkpt>
      <trkpt lat="36.965855" lon="-3.490406">
        <ele>1723.359</ele>
        <time>2013-07-07T17:26:59Z</time>
      </trkpt>
      <trkpt lat="36.966714" lon="-3.491446">
        <ele>1725.493</ele>
        <time>2013-07-07T17:27:49Z</time>
      </trkpt>
      <trkpt lat="36.967652" lon="-3.491884">
        <ele>1727.664</ele>
        <time>2013-07-07T17:28:30Z</time>
      </trkpt>
      <trkpt lat="36.969205" lon="-3.493069">
        <ele>1734.706</ele>
        <time>2013-07-07T17:29:50Z</time>
      </trkpt>
      <trkpt lat="36.969970" lon="-3.493355">
        <ele>1737.616</ele>
        <time>2013-07-07T17:30:25Z</time>
      </trkpt>
      <trkpt lat="36.970717" lon="-3.493990">
        <ele>1742.807</ele>
        <time>2013-07-07T17:31:12Z</time>
      </trkpt>
      <trkpt lat="36.971488" lon="-3.493249">
        <ele>1744.050</ele>
        <time>2013-07-07T17:31:56Z</time>
      </trkpt>
      <trkpt lat="36.972197" lon="-3.493293">
        <ele>1740.534</ele>
        <time>2013-07-07T17:32:09Z</time>
      </trkpt>
      <trkpt lat="36.972816" lon="-3.494083">
        <ele>1735.396</ele>
        <time>2013-07-07T17:32:20Z</time>
      </trkpt>
      <trkpt lat="36.973415" lon="-3.494081">
        <ele>1732.014</ele>
        <time>2013-07-07T17:32:27Z</time>
      </trkpt>
      <trkpt lat="36.974034" lon="-3.493837">
        <ele>1729.950</ele>
        <time>2013-07-07T17:32:35Z</time>
      </trkpt>
      <trkpt lat="36.974258" lon="-3.493979">
        <ele>1731.192</ele>
        <time>2013-07-07T17:32:40Z</time>
      </trkpt>
      <trkpt lat="36.974971" lon="-3.495153">
        <ele>1738.536</ele>
        <time>2013-07-07T17:33:40Z</time>
      </trkpt>
      <trkpt lat="36.976461" lon="-3.496099">
        <ele>1743.318</ele>
        <time>2013-07-07T17:35:00Z</time>
      </trkpt>
      <trkpt lat="36.977987" lon="-3.496116">
        <ele>1749.398</ele>
        <time>2013-07-07T17:36:06Z</time>
      </trkpt>
      <trkpt lat="36.978754" lon="-3.495382">
        <ele>1758.917</ele>
        <time>2013-07-07T17:37:15Z</time>
      </trkpt>
      <trkpt lat="36.983028" lon="-3.496367">
        <ele>1841.007</ele>
        <time>2013-07-07T18:12:50Z</time>
      </trkpt>
      <trkpt lat="36.982965" lon="-3.494895">
        <ele>1854.725</ele>
        <time>2013-07-07T18:14:16Z</time>
      </trkpt>
      <trkpt lat="36.983082" lon="-3.494224">
        <ele>1861.689</ele>
        <time>2013-07-07T18:14:55Z</time>
      </trkpt>
      <trkpt lat="36.984334" lon="-3.493195">
        <ele>1873.261</ele>
        <time>2013-07-07T18:16:28Z</time>
      </trkpt>
      <trkpt lat="36.984443" lon="-3.492379">
        <ele>1880.689</ele>
        <time>2013-07-07T18:17:13Z</time>
      </trkpt>
      <trkpt lat="36.984872" lon="-3.491600">
        <ele>1888.895</ele>
        <time>2013-07-07T18:18:04Z</time>
      </trkpt>
      <trkpt lat="36.984946" lon="-3.491073">
        <ele>1894.797</ele>
        <time>2013-07-07T18:18:37Z</time>
      </trkpt>
      <trkpt lat="36.985636" lon="-3.490354">
        <ele>1907.951</ele>
        <time>2013-07-07T18:19:48Z</time>
      </trkpt>
      <trkpt lat="36.985809" lon="-3.489422">
        <ele>1918.014</ele>
        <time>2013-07-07T18:20:47Z</time>
      </trkpt>
      <trkpt lat="36.986512" lon="-3.489132">
        <ele>1921.754</ele>
        <time>2013-07-07T18:21:34Z</time>
      </trkpt>
      <trkpt lat="36.987147" lon="-3.488456">
        <ele>1926.609</ele>
        <time>2013-07-07T18:22:20Z</time>
      </trkpt>
      <trkpt lat="36.987454" lon="-3.488604">
        <ele>1927.207</ele>
        <time>2013-07-07T18:22:38Z</time>
      </trkpt>
      <trkpt lat="36.987640" lon="-3.488511">
        <ele>1927.015</ele>
        <time>2013-07-07T18:22:50Z</time>
      </trkpt>
      <trkpt lat="36.987369" lon="-3.487601">
        <ele>1934.469</ele>
        <time>2013-07-07T18:23:41Z</time>
      </trkpt>
      <trkpt lat="36.988002" lon="-3.487203">
        <ele>1937.651</ele>
        <time>2013-07-07T18:24:20Z</time>
      </trkpt>
      <trkpt lat="36.989599" lon="-3.486648">
        <ele>1950.029</ele>
        <time>2013-07-07T18:25:50Z</time>
      </trkpt>
      <trkpt lat="36.990412" lon="-3.485698">
        <ele>1959.895</ele>
        <time>2013-07-07T18:26:53Z</time>
      </trkpt>
      <trkpt lat="36.990913" lon="-3.486560">
        <ele>1958.577</ele>
        <time>2013-07-07T18:27:37Z</time>
      </trkpt>
      <trkpt lat="36.991314" lon="-3.486376">
        <ele>1957.561</ele>
        <time>2013-07-07T18:27:49Z</time>
      </trkpt>
      <trkpt lat="36.992028" lon="-3.485668">
        <ele>1961.566</ele>
        <time>2013-07-07T18:28:30Z</time>
      </trkpt>
      <trkpt lat="36.992358" lon="-3.484834">
        <ele>1963.829</ele>
        <time>2013-07-07T18:29:07Z</time>
      </trkpt>
      <trkpt lat="36.993436" lon="-3.484203">
        <ele>1973.721</ele>
        <time>2013-07-07T18:30:20Z</time>
      </trkpt>
      <trkpt lat="36.993858" lon="-3.483367">
        <ele>1977.707</ele>
        <time>2013-07-07T18:31:01Z</time>
      </trkpt>
      <trkpt lat="36.994166" lon="-3.482307">
        <ele>1985.290</ele>
        <time>2013-07-07T18:31:51Z</time>
      </trkpt>
      <trkpt lat="36.994705" lon="-3.481504">
        <ele>1991.034</ele>
        <time>2013-07-07T18:32:37Z</time>
      </trkpt>
      <trkpt lat="36.996333" lon="-3.480308">
        <ele>1995.836</ele>
        <time>2013-07-07T18:33:47Z</time>
      </trkpt>
      <trkpt lat="36.997195" lon="-3.480219">
        <ele>1999.884</ele>
        <time>2013-07-07T18:34:27Z</time>
      </trkpt>
      <trkpt lat="36.998969" lon="-3.478456">
        <ele>2012.360</ele>
        <time>2013-07-07T18:36:14Z</time>
      </trkpt>
      <trkpt lat="37.000529" lon="-3.476111">
        <ele>2020.822</ele>
        <time>2013-07-07T18:37:56Z</time>
      </trkpt>
      <trkpt lat="37.001185" lon="-3.474224">
        <ele>2038.446</ele>
        <time>2013-07-07T18:39:38Z</time>
      </trkpt>
      <trkpt lat="37.001665" lon="-3.471042">
        <ele>2076.292</ele>
        <time>2013-07-07T18:42:59Z</time>
      </trkpt>
      <trkpt lat="37.001528" lon="-3.470492">
        <ele>2078.273</ele>
        <time>2013-07-07T18:43:24Z</time>
      </trkpt>
      <trkpt lat="37.002321" lon="-3.469643">
        <ele>2082.220</ele>
        <time>2013-07-07T18:44:12Z</time>
      </trkpt>
      <trkpt lat="37.002898" lon="-3.469283">
        <ele>2084.707</ele>
        <time>2013-07-07T18:44:43Z</time>
      </trkpt>
      <trkpt lat="37.003055" lon="-3.468868">
        <ele>2089.333</ele>
        <time>2013-07-07T18:45:13Z</time>
      </trkpt>
      <trkpt lat="37.003414" lon="-3.468609">
        <ele>2092.517</ele>
        <time>2013-07-07T18:45:37Z</time>
      </trkpt>
      <trkpt lat="37.003641" lon="-3.467343">
        <ele>2103.999</ele>
        <time>2013-07-07T18:46:46Z</time>
      </trkpt>
      <trkpt lat="37.003563" lon="-3.466316">
        <ele>2116.397</ele>
        <time>2013-07-07T18:47:56Z</time>
      </trkpt>
      <trkpt lat="37.003960" lon="-3.466397">
        <ele>2120.493</ele>
        <time>2013-07-07T18:48:34Z</time>
      </trkpt>
      <trkpt lat="37.004606" lon="-3.465579">
        <ele>2128.025</ele>
        <time>2013-07-07T18:49:46Z</time>
      </trkpt>
      <trkpt lat="37.004717" lon="-3.466469">
        <ele>2127.589</ele>
        <time>2013-07-07T18:50:56Z</time>
      </trkpt>
      <trkpt lat="37.005091" lon="-3.466864">
        <ele>2125.525</ele>
        <time>2013-07-07T18:51:09Z</time>
      </trkpt>
      <trkpt lat="37.006256" lon="-3.466372">
        <ele>2125.026</ele>
        <time>2013-07-07T18:52:03Z</time>
      </trkpt>
      <trkpt lat="37.006328" lon="-3.466135">
        <ele>2124.708</ele>
        <time>2013-07-07T18:53:04Z</time>
      </trkpt>
      <trkpt lat="37.007333" lon="-3.467387">
        <ele>2128.907</ele>
        <time>2013-07-07T18:54:16Z</time>
      </trkpt>
      <trkpt lat="37.007716" lon="-3.467243">
        <ele>2128.576</ele>
        <time>2013-07-07T18:54:29Z</time>
      </trkpt>
      <trkpt lat="37.008083" lon="-3.467786">
        <ele>2130.480</ele>
        <time>2013-07-07T18:54:49Z</time>
      </trkpt>
      <trkpt lat="37.009012" lon="-3.468035">
        <ele>2136.892</ele>
        <time>2013-07-07T18:55:33Z</time>
      </trkpt>
      <trkpt lat="37.010014" lon="-3.469241">
        <ele>2146.780</ele>
        <time>2013-07-07T18:56:43Z</time>
      </trkpt>
      <trkpt lat="37.010690" lon="-3.470713">
        <ele>2148.446</ele>
        <time>2013-07-07T18:57:36Z</time>
      </trkpt>
      <trkpt lat="37.011300" lon="-3.471039">
        <ele>2150.168</ele>
        <time>2013-07-07T18:57:59Z</time>
      </trkpt>
      <trkpt lat="37.011112" lon="-3.472047">
        <ele>2148.342</ele>
        <time>2013-07-07T18:58:20Z</time>
      </trkpt>
      <trkpt lat="37.011267" lon="-3.472625">
        <ele>2147.763</ele>
        <time>2013-07-07T18:58:33Z</time>
      </trkpt>
      <trkpt lat="37.010963" lon="-3.473244">
        <ele>2148.144</ele>
        <time>2013-07-07T18:58:52Z</time>
      </trkpt>
      <trkpt lat="37.010665" lon="-3.474699">
        <ele>2152.618</ele>
        <time>2013-07-07T18:59:41Z</time>
      </trkpt>
      <trkpt lat="37.010720" lon="-3.477016">
        <ele>2144.707</ele>
        <time>2013-07-07T19:00:11Z</time>
      </trkpt>
      <trkpt lat="37.011403" lon="-3.478482">
        <ele>2130.880</ele>
        <time>2013-07-07T19:00:34Z</time>
      </trkpt>
      <trkpt lat="37.011654" lon="-3.479406">
        <ele>2134.654</ele>
        <time>2013-07-07T19:01:06Z</time>
      </trkpt>
      <trkpt lat="37.011887" lon="-3.479602">
        <ele>2135.746</ele>
        <time>2013-07-07T19:01:17Z</time>
      </trkpt>
      <trkpt lat="37.012003" lon="-3.481547">
        <ele>2137.244</ele>
        <time>2013-07-07T19:02:01Z</time>
      </trkpt>
      <trkpt lat="37.011565" lon="-3.483158">
        <ele>2134.140</ele>
        <time>2013-07-07T19:02:30Z</time>
      </trkpt>
      <trkpt lat="37.011230" lon="-3.485478">
        <ele>2130.722</ele>
        <time>2013-07-07T19:03:10Z</time>
      </trkpt>
      <trkpt lat="37.010859" lon="-3.485956">
        <ele>2126.836</ele>
        <time>2013-07-07T19:03:16Z</time>
      </trkpt>
      <trkpt lat="37.010563" lon="-3.486733">
        <ele>2128.057</ele>
        <time>2013-07-07T19:03:31Z</time>
      </trkpt>
      <trkpt lat="37.010300" lon="-3.486852">
        <ele>2131.200</ele>
        <time>2013-07-07T19:03:49Z</time>
      </trkpt>
      <trkpt lat="37.010677" lon="-3.487267">
        <ele>2130.520</ele>
        <time>2013-07-07T19:09:44Z</time>
      </trkpt>
      <trkpt lat="37.011410" lon="-3.487275">
        <ele>2124.107</ele>
        <time>2013-07-07T19:10:28Z</time>
      </trkpt>
      <trkpt lat="37.011867" lon="-3.487483">
        <ele>2119.479</ele>
        <time>2013-07-07T19:10:38Z</time>
      </trkpt>
      <trkpt lat="37.012483" lon="-3.487152">
        <ele>2112.083</ele>
        <time>2013-07-07T19:10:52Z</time>
      </trkpt>
      <trkpt lat="37.012185" lon="-3.487789">
        <ele>2105.355</ele>
        <time>2013-07-07T19:11:05Z</time>
      </trkpt>
      <trkpt lat="37.011545" lon="-3.488476">
        <ele>2098.363</ele>
        <time>2013-07-07T19:11:20Z</time>
      </trkpt>
      <trkpt lat="37.011059" lon="-3.488629">
        <ele>2092.649</ele>
        <time>2013-07-07T19:11:28Z</time>
      </trkpt>
      <trkpt lat="37.010705" lon="-3.488524">
        <ele>2087.921</ele>
        <time>2013-07-07T19:11:35Z</time>
      </trkpt>
      <trkpt lat="37.011079" lon="-3.489165">
        <ele>2081.195</ele>
        <time>2013-07-07T19:11:47Z</time>
      </trkpt>
      <trkpt lat="37.011602" lon="-3.489562">
        <ele>2073.718</ele>
        <time>2013-07-07T19:11:57Z</time>
      </trkpt>
      <trkpt lat="37.012725" lon="-3.489039">
        <ele>2061.098</ele>
        <time>2013-07-07T19:12:18Z</time>
      </trkpt>
      <trkpt lat="37.013857" lon="-3.489030">
        <ele>2048.617</ele>
        <time>2013-07-07T19:12:35Z</time>
      </trkpt>
      <trkpt lat="37.014582" lon="-3.488765">
        <ele>2038.707</ele>
        <time>2013-07-07T19:12:47Z</time>
      </trkpt>
      <trkpt lat="37.014215" lon="-3.489423">
        <ele>2032.295</ele>
        <time>2013-07-07T19:12:56Z</time>
      </trkpt>
      <trkpt lat="37.013453" lon="-3.490168">
        <ele>2023.149</ele>
        <time>2013-07-07T19:13:07Z</time>
      </trkpt>
      <trkpt lat="37.013215" lon="-3.491109">
        <ele>2012.811</ele>
        <time>2013-07-07T19:13:19Z</time>
      </trkpt>
      <trkpt lat="37.013300" lon="-3.491437">
        <ele>2009.879</ele>
        <time>2013-07-07T19:13:24Z</time>
      </trkpt>
      <trkpt lat="37.012227" lon="-3.493813">
        <ele>1986.695</ele>
        <time>2013-07-07T19:13:53Z</time>
      </trkpt>
      <trkpt lat="37.012537" lon="-3.494024">
        <ele>1982.437</ele>
        <time>2013-07-07T19:14:01Z</time>
      </trkpt>
      <trkpt lat="37.012438" lon="-3.495302">
        <ele>1972.331</ele>
        <time>2013-07-07T19:14:17Z</time>
      </trkpt>
      <trkpt lat="37.012891" lon="-3.495279">
        <ele>1966.825</ele>
        <time>2013-07-07T19:14:25Z</time>
      </trkpt>
      <trkpt lat="37.012789" lon="-3.496333">
        <ele>1957.626</ele>
        <time>2013-07-07T19:14:37Z</time>
      </trkpt>
      <trkpt lat="37.012484" lon="-3.496712">
        <ele>1951.108</ele>
        <time>2013-07-07T19:14:45Z</time>
      </trkpt>
      <trkpt lat="37.013288" lon="-3.497776">
        <ele>1938.107</ele>
        <time>2013-07-07T19:15:01Z</time>
      </trkpt>
      <trkpt lat="37.013703" lon="-3.499308">
        <ele>1929.986</ele>
        <time>2013-07-07T19:15:22Z</time>
      </trkpt>
      <trkpt lat="37.014065" lon="-3.499951">
        <ele>1928.260</ele>
        <time>2013-07-07T19:15:31Z</time>
      </trkpt>
      <trkpt lat="37.014313" lon="-3.500115">
        <ele>1925.992</ele>
        <time>2013-07-07T19:15:35Z</time>
      </trkpt>
      <trkpt lat="37.014908" lon="-3.499076">
        <ele>1916.730</ele>
        <time>2013-07-07T19:15:52Z</time>
      </trkpt>
      <trkpt lat="37.015218" lon="-3.499683">
        <ele>1914.186</ele>
        <time>2013-07-07T19:16:03Z</time>
      </trkpt>
      <trkpt lat="37.015737" lon="-3.500151">
        <ele>1909.728</ele>
        <time>2013-07-07T19:16:11Z</time>
      </trkpt>
      <trkpt lat="37.016310" lon="-3.501517">
        <ele>1900.042</ele>
        <time>2013-07-07T19:16:28Z</time>
      </trkpt>
      <trkpt lat="37.016265" lon="-3.501871">
        <ele>1899.265</ele>
        <time>2013-07-07T19:16:32Z</time>
      </trkpt>
      <trkpt lat="37.015819" lon="-3.502303">
        <ele>1891.168</ele>
        <time>2013-07-07T19:16:41Z</time>
      </trkpt>
      <trkpt lat="37.016063" lon="-3.502807">
        <ele>1884.814</ele>
        <time>2013-07-07T19:16:48Z</time>
      </trkpt>
      <trkpt lat="37.015987" lon="-3.504882">
        <ele>1865.707</ele>
        <time>2013-07-07T19:17:12Z</time>
      </trkpt>
      <trkpt lat="37.015260" lon="-3.506762">
        <ele>1849.230</ele>
        <time>2013-07-07T19:17:37Z</time>
      </trkpt>
      <trkpt lat="37.014957" lon="-3.506793">
        <ele>1844.194</ele>
        <time>2013-07-07T19:17:46Z</time>
      </trkpt>
      <trkpt lat="37.015082" lon="-3.507153">
        <ele>1840.856</ele>
        <time>2013-07-07T19:17:52Z</time>
      </trkpt>
      <trkpt lat="37.015432" lon="-3.507382">
        <ele>1837.944</ele>
        <time>2013-07-07T19:17:59Z</time>
      </trkpt>
      <trkpt lat="37.015643" lon="-3.507985">
        <ele>1834.890</ele>
        <time>2013-07-07T19:18:06Z</time>
      </trkpt>
      <trkpt lat="37.016026" lon="-3.508209">
        <ele>1833.752</ele>
        <time>2013-07-07T19:18:12Z</time>
      </trkpt>
      <trkpt lat="37.017673" lon="-3.508178">
        <ele>1830.586</ele>
        <time>2013-07-07T19:18:38Z</time>
      </trkpt>
      <trkpt lat="37.018141" lon="-3.507779">
        <ele>1831.023</ele>
        <time>2013-07-07T19:18:57Z</time>
      </trkpt>
      <trkpt lat="37.018267" lon="-3.507259">
        <ele>1829.283</ele>
        <time>2013-07-07T19:19:08Z</time>
      </trkpt>
      <trkpt lat="37.018878" lon="-3.507325">
        <ele>1826.711</ele>
        <time>2013-07-07T19:19:18Z</time>
      </trkpt>
      <trkpt lat="37.019178" lon="-3.507100">
        <ele>1823.507</ele>
        <time>2013-07-07T19:19:23Z</time>
      </trkpt>
      <trkpt lat="37.019257" lon="-3.506501">
        <ele>1818.236</ele>
        <time>2013-07-07T19:19:31Z</time>
      </trkpt>
      <trkpt lat="37.018502" lon="-3.504305">
        <ele>1801.990</ele>
        <time>2013-07-07T19:19:54Z</time>
      </trkpt>
      <trkpt lat="37.018478" lon="-3.503222">
        <ele>1801.752</ele>
        <time>2013-07-07T19:20:08Z</time>
      </trkpt>
      <trkpt lat="37.019004" lon="-3.504813">
        <ele>1786.620</ele>
        <time>2013-07-07T19:20:38Z</time>
      </trkpt>
      <trkpt lat="37.019997" lon="-3.505823">
        <ele>1770.566</ele>
        <time>2013-07-07T19:20:53Z</time>
      </trkpt>
      <trkpt lat="37.020394" lon="-3.506926">
        <ele>1752.778</ele>
        <time>2013-07-07T19:21:12Z</time>
      </trkpt>
      <trkpt lat="37.020564" lon="-3.506254">
        <ele>1746.862</ele>
        <time>2013-07-07T19:21:24Z</time>
      </trkpt>
      <trkpt lat="37.020793" lon="-3.506635">
        <ele>1740.738</ele>
        <time>2013-07-07T19:21:32Z</time>
      </trkpt>
      <trkpt lat="37.020816" lon="-3.505510">
        <ele>1732.870</ele>
        <time>2013-07-07T19:21:46Z</time>
      </trkpt>
      <trkpt lat="37.021033" lon="-3.505199">
        <ele>1727.217</ele>
        <time>2013-07-07T19:21:51Z</time>
      </trkpt>
      <trkpt lat="37.021172" lon="-3.505322">
        <ele>1724.607</ele>
        <time>2013-07-07T19:21:54Z</time>
      </trkpt>
      <trkpt lat="37.021202" lon="-3.505948">
        <ele>1716.937</ele>
        <time>2013-07-07T19:22:01Z</time>
      </trkpt>
      <trkpt lat="37.021747" lon="-3.507380">
        <ele>1696.541</ele>
        <time>2013-07-07T19:22:19Z</time>
      </trkpt>
      <trkpt lat="37.021849" lon="-3.506795">
        <ele>1692.623</ele>
        <time>2013-07-07T19:22:29Z</time>
      </trkpt>
      <trkpt lat="37.022169" lon="-3.506603">
        <ele>1691.341</ele>
        <time>2013-07-07T19:22:35Z</time>
      </trkpt>
      <trkpt lat="37.022289" lon="-3.506316">
        <ele>1689.327</ele>
        <time>2013-07-07T19:22:39Z</time>
      </trkpt>
      <trkpt lat="37.022562" lon="-3.507088">
        <ele>1680.589</ele>
        <time>2013-07-07T19:22:50Z</time>
      </trkpt>
      <trkpt lat="37.022430" lon="-3.508810">
        <ele>1667.423</ele>
        <time>2013-07-07T19:23:08Z</time>
      </trkpt>
      <trkpt lat="37.022701" lon="-3.509389">
        <ele>1660.034</ele>
        <time>2013-07-07T19:23:17Z</time>
      </trkpt>
      <trkpt lat="37.022965" lon="-3.508046">
        <ele>1648.655</ele>
        <time>2013-07-07T19:23:48Z</time>
      </trkpt>
      <trkpt lat="37.024323" lon="-3.507490">
        <ele>1645.010</ele>
        <time>2013-07-07T19:24:14Z</time>
      </trkpt>
      <trkpt lat="37.024391" lon="-3.505767">
        <ele>1638.207</ele>
        <time>2013-07-07T19:24:35Z</time>
      </trkpt>
      <trkpt lat="37.024775" lon="-3.505002">
        <ele>1634.617</ele>
        <time>2013-07-07T19:24:46Z</time>
      </trkpt>
      <trkpt lat="37.024694" lon="-3.505840">
        <ele>1625.871</ele>
        <time>2013-07-07T19:24:58Z</time>
      </trkpt>
      <trkpt lat="37.024802" lon="-3.506680">
        <ele>1618.463</ele>
        <time>2013-07-07T19:25:06Z</time>
      </trkpt>
      <trkpt lat="37.025508" lon="-3.507686">
        <ele>1601.291</ele>
        <time>2013-07-07T19:25:21Z</time>
      </trkpt>
      <trkpt lat="37.025781" lon="-3.509513">
        <ele>1586.667</ele>
        <time>2013-07-07T19:25:42Z</time>
      </trkpt>
      <trkpt lat="37.025686" lon="-3.510119">
        <ele>1579.769</ele>
        <time>2013-07-07T19:25:49Z</time>
      </trkpt>
      <trkpt lat="37.025022" lon="-3.510479">
        <ele>1570.743</ele>
        <time>2013-07-07T19:26:01Z</time>
      </trkpt>
      <trkpt lat="37.025151" lon="-3.511542">
        <ele>1559.913</ele>
        <time>2013-07-07T19:26:16Z</time>
      </trkpt>
      <trkpt lat="37.025505" lon="-3.510888">
        <ele>1550.643</ele>
        <time>2013-07-07T19:26:30Z</time>
      </trkpt>
      <trkpt lat="37.027410" lon="-3.512616">
        <ele>1513.407</ele>
        <time>2013-07-07T19:27:08Z</time>
      </trkpt>
      <trkpt lat="37.028128" lon="-3.512600">
        <ele>1501.207</ele>
        <time>2013-07-07T19:27:19Z</time>
      </trkpt>
      <trkpt lat="37.027987" lon="-3.513274">
        <ele>1494.045</ele>
        <time>2013-07-07T19:27:26Z</time>
      </trkpt>
      <trkpt lat="37.027543" lon="-3.513588">
        <ele>1485.229</ele>
        <time>2013-07-07T19:27:36Z</time>
      </trkpt>
      <trkpt lat="37.028012" lon="-3.513880">
        <ele>1479.941</ele>
        <time>2013-07-07T19:27:44Z</time>
      </trkpt>
      <trkpt lat="37.028477" lon="-3.513681">
        <ele>1471.689</ele>
        <time>2013-07-07T19:27:52Z</time>
      </trkpt>
      <trkpt lat="37.028227" lon="-3.514362">
        <ele>1464.315</ele>
        <time>2013-07-07T19:28:00Z</time>
      </trkpt>
      <trkpt lat="37.027892" lon="-3.514493">
        <ele>1457.767</ele>
        <time>2013-07-07T19:28:06Z</time>
      </trkpt>
      <trkpt lat="37.028379" lon="-3.514825">
        <ele>1449.681</ele>
        <time>2013-07-07T19:28:17Z</time>
      </trkpt>
      <trkpt lat="37.027998" lon="-3.515005">
        <ele>1443.129</ele>
        <time>2013-07-07T19:28:24Z</time>
      </trkpt>
      <trkpt lat="37.027954" lon="-3.515226">
        <ele>1437.800</ele>
        <time>2013-07-07T19:28:29Z</time>
      </trkpt>
      <trkpt lat="37.028673" lon="-3.515416">
        <ele>1427.120</ele>
        <time>2013-07-07T19:28:38Z</time>
      </trkpt>
      <trkpt lat="37.029190" lon="-3.514816">
        <ele>1420.807</ele>
        <time>2013-07-07T19:28:45Z</time>
      </trkpt>
      <trkpt lat="37.029546" lon="-3.513367">
        <ele>1405.416</ele>
        <time>2013-07-07T19:28:56Z</time>
      </trkpt>
      <trkpt lat="37.030329" lon="-3.512267">
        <ele>1397.310</ele>
        <time>2013-07-07T19:29:10Z</time>
      </trkpt>
      <trkpt lat="37.031039" lon="-3.511835">
        <ele>1387.922</ele>
        <time>2013-07-07T19:29:18Z</time>
      </trkpt>
      <trkpt lat="37.031721" lon="-3.510888">
        <ele>1373.160</ele>
        <time>2013-07-07T19:29:33Z</time>
      </trkpt>
      <trkpt lat="37.033057" lon="-3.510523">
        <ele>1367.066</ele>
        <time>2013-07-07T19:30:06Z</time>
      </trkpt>
      <trkpt lat="37.032759" lon="-3.510041">
        <ele>1359.518</ele>
        <time>2013-07-07T19:30:55Z</time>
      </trkpt>
      <trkpt lat="37.033105" lon="-3.508870">
        <ele>1355.382</ele>
        <time>2013-07-07T19:31:17Z</time>
      </trkpt>
      <trkpt lat="37.033407" lon="-3.507314">
        <ele>1350.563</ele>
        <time>2013-07-07T19:31:48Z</time>
      </trkpt>
      <trkpt lat="37.033210" lon="-3.506672">
        <ele>1345.544</ele>
        <time>2013-07-07T19:32:00Z</time>
      </trkpt>
      <trkpt lat="37.033861" lon="-3.507009">
        <ele>1337.118</ele>
        <time>2013-07-07T19:32:12Z</time>
      </trkpt>
      <trkpt lat="37.034343" lon="-3.507007">
        <ele>1331.407</ele>
        <time>2013-07-07T19:32:20Z</time>
      </trkpt>
      <trkpt lat="37.034702" lon="-3.507611">
        <ele>1322.720</ele>
        <time>2013-07-07T19:32:32Z</time>
      </trkpt>
      <trkpt lat="37.034879" lon="-3.506827">
        <ele>1312.984</ele>
        <time>2013-07-07T19:32:45Z</time>
      </trkpt>
      <trkpt lat="37.035191" lon="-3.507601">
        <ele>1303.776</ele>
        <time>2013-07-07T19:32:56Z</time>
      </trkpt>
      <trkpt lat="37.035136" lon="-3.508459">
        <ele>1290.494</ele>
        <time>2013-07-07T19:33:08Z</time>
      </trkpt>
      <trkpt lat="37.035513" lon="-3.508708">
        <ele>1285.590</ele>
        <time>2013-07-07T19:34:08Z</time>
      </trkpt>
      <trkpt lat="37.035496" lon="-3.509873">
        <ele>1290.752</ele>
        <time>2013-07-07T19:35:53Z</time>
      </trkpt>
      <trkpt lat="37.035296" lon="-3.510130">
        <ele>1295.916</ele>
        <time>2013-07-07T19:36:20Z</time>
      </trkpt>
      <trkpt lat="37.035112" lon="-3.511041">
        <ele>1305.574</ele>
        <time>2013-07-07T19:37:17Z</time>
      </trkpt>
      <trkpt lat="37.035429" lon="-3.511251">
        <ele>1312.356</ele>
        <time>2013-07-07T19:37:49Z</time>
      </trkpt>
      <trkpt lat="37.035810" lon="-3.512171">
        <ele>1327.521</ele>
        <time>2013-07-07T19:39:05Z</time>
      </trkpt>
      <trkpt lat="37.036048" lon="-3.512057">
        <ele>1331.407</ele>
        <time>2013-07-07T19:39:26Z</time>
      </trkpt>
      <trkpt lat="37.036255" lon="-3.511402">
        <ele>1339.881</ele>
        <time>2013-07-07T19:40:11Z</time>
      </trkpt>
      <trkpt lat="37.036587" lon="-3.511717">
        <ele>1346.165</ele>
        <time>2013-07-07T19:40:48Z</time>
      </trkpt>
      <trkpt lat="37.036490" lon="-3.512388">
        <ele>1353.137</ele>
        <time>2013-07-07T19:41:31Z</time>
      </trkpt>
      <trkpt lat="37.036583" lon="-3.512471">
        <ele>1354.955</ele>
        <time>2013-07-07T19:41:43Z</time>
      </trkpt>
      <trkpt lat="37.036987" lon="-3.511559">
        <ele>1360.911</ele>
        <time>2013-07-07T19:42:37Z</time>
      </trkpt>
      <trkpt lat="37.037218" lon="-3.509476">
        <ele>1385.223</ele>
        <time>2013-07-07T19:44:49Z</time>
      </trkpt>
      <trkpt lat="37.036796" lon="-3.509230">
        <ele>1390.937</ele>
        <time>2013-07-07T19:45:23Z</time>
      </trkpt>
      <trkpt lat="37.036957" lon="-3.508485">
        <ele>1400.152</ele>
        <time>2013-07-07T19:46:12Z</time>
      </trkpt>
      <trkpt lat="37.037578" lon="-3.509082">
        <ele>1403.553</ele>
        <time>2013-07-07T19:46:56Z</time>
      </trkpt>
      <trkpt lat="37.038119" lon="-3.510372">
        <ele>1413.208</ele>
        <time>2013-07-07T19:48:07Z</time>
      </trkpt>
      <trkpt lat="37.038052" lon="-3.510835">
        <ele>1419.607</ele>
        <time>2013-07-07T19:48:38Z</time>
      </trkpt>
      <trkpt lat="37.037671" lon="-3.511558">
        <ele>1430.419</ele>
        <time>2013-07-07T19:49:43Z</time>
      </trkpt>
      <trkpt lat="37.038126" lon="-3.512023">
        <ele>1437.083</ele>
        <time>2013-07-07T19:50:28Z</time>
      </trkpt>
      <trkpt lat="37.038883" lon="-3.511828">
        <ele>1444.585</ele>
        <time>2013-07-07T19:51:21Z</time>
      </trkpt>
      <trkpt lat="37.039281" lon="-3.512432">
        <ele>1452.293</ele>
        <time>2013-07-07T19:52:09Z</time>
      </trkpt>
      <trkpt lat="37.039822" lon="-3.511928">
        <ele>1458.769</ele>
        <time>2013-07-07T19:52:53Z</time>
      </trkpt>
      <trkpt lat="37.040369" lon="-3.513170">
        <ele>1467.821</ele>
        <time>2013-07-07T19:54:10Z</time>
      </trkpt>
      <trkpt lat="37.040896" lon="-3.512673">
        <ele>1475.935</ele>
        <time>2013-07-07T19:54:58Z</time>
      </trkpt>
      <trkpt lat="37.040840" lon="-3.513296">
        <ele>1480.366</ele>
        <time>2013-07-07T19:55:31Z</time>
      </trkpt>
      <trkpt lat="37.040231" lon="-3.513865">
        <ele>1491.429</ele>
        <time>2013-07-07T19:56:26Z</time>
      </trkpt>
      <trkpt lat="37.040860" lon="-3.514410">
        <ele>1494.421</ele>
        <time>2013-07-07T19:57:13Z</time>
      </trkpt>
      <trkpt lat="37.040696" lon="-3.514927">
        <ele>1500.207</ele>
        <time>2013-07-07T19:57:45Z</time>
      </trkpt>
      <trkpt lat="37.040799" lon="-3.515437">
        <ele>1504.920</ele>
        <time>2013-07-07T19:58:14Z</time>
      </trkpt>
      <trkpt lat="37.040558" lon="-3.516165">
        <ele>1512.644</ele>
        <time>2013-07-07T19:59:02Z</time>
      </trkpt>
      <trkpt lat="37.040842" lon="-3.516227">
        <ele>1516.266</ele>
        <time>2013-07-07T19:59:25Z</time>
      </trkpt>
      <trkpt lat="37.041655" lon="-3.515538">
        <ele>1526.784</ele>
        <time>2013-07-07T20:00:36Z</time>
      </trkpt>
      <trkpt lat="37.041832" lon="-3.515666">
        <ele>1530.920</ele>
        <time>2013-07-07T20:00:57Z</time>
      </trkpt>
      <trkpt lat="37.041501" lon="-3.516265">
        <ele>1538.132</ele>
        <time>2013-07-07T20:01:38Z</time>
      </trkpt>
      <trkpt lat="37.041324" lon="-3.516992">
        <ele>1541.986</ele>
        <time>2013-07-07T20:02:13Z</time>
      </trkpt>
      <trkpt lat="37.040329" lon="-3.517117">
        <ele>1548.226</ele>
        <time>2013-07-07T20:03:10Z</time>
      </trkpt>
      <trkpt lat="37.039944" lon="-3.516886">
        <ele>1552.347</ele>
        <time>2013-07-07T20:03:35Z</time>
      </trkpt>
      <trkpt lat="37.039944" lon="-3.518046">
        <ele>1551.311</ele>
        <time>2013-07-07T20:04:03Z</time>
      </trkpt>
      <trkpt lat="37.040176" lon="-3.518732">
        <ele>1554.707</ele>
        <time>2013-07-07T20:04:32Z</time>
      </trkpt>
      <trkpt lat="37.041194" lon="-3.519437">
        <ele>1564.946</ele>
        <time>2013-07-07T20:05:34Z</time>
      </trkpt>
      <trkpt lat="37.040983" lon="-3.520245">
        <ele>1573.260</ele>
        <time>2013-07-07T20:06:22Z</time>
      </trkpt>
      <trkpt lat="37.041120" lon="-3.521145">
        <ele>1579.932</ele>
        <time>2013-07-07T20:07:06Z</time>
      </trkpt>
      <trkpt lat="37.040671" lon="-3.521745">
        <ele>1586.730</ele>
        <time>2013-07-07T20:07:47Z</time>
      </trkpt>
      <trkpt lat="37.041133" lon="-3.522116">
        <ele>1593.546</ele>
        <time>2013-07-07T20:08:22Z</time>
      </trkpt>
      <trkpt lat="37.041575" lon="-3.522105">
        <ele>1593.428</ele>
        <time>2013-07-07T20:08:40Z</time>
      </trkpt>
      <trkpt lat="37.041888" lon="-3.523307">
        <ele>1601.782</ele>
        <time>2013-07-07T20:09:31Z</time>
      </trkpt>
      <trkpt lat="37.041584" lon="-3.523864">
        <ele>1607.157</ele>
        <time>2013-07-07T20:10:02Z</time>
      </trkpt>
      <trkpt lat="37.041667" lon="-3.524290">
        <ele>1612.000</ele>
        <time>2013-07-07T20:10:25Z</time>
      </trkpt>
      <trkpt lat="37.042494" lon="-3.524190">
        <ele>1624.120</ele>
        <time>2013-07-07T20:11:25Z</time>
      </trkpt>
      <trkpt lat="37.042734" lon="-3.524311">
        <ele>1627.507</ele>
        <time>2013-07-07T20:11:42Z</time>
      </trkpt>
      <trkpt lat="37.042626" lon="-3.525837">
        <ele>1635.469</ele>
        <time>2013-07-07T20:12:50Z</time>
      </trkpt>
      <trkpt lat="37.043066" lon="-3.526741">
        <ele>1644.133</ele>
        <time>2013-07-07T20:13:48Z</time>
      </trkpt>
      <trkpt lat="37.043360" lon="-3.526385">
        <ele>1640.165</ele>
        <time>2013-07-07T20:14:50Z</time>
      </trkpt>
      <trkpt lat="37.043654" lon="-3.524987">
        <ele>1638.023</ele>
        <time>2013-07-07T20:15:14Z</time>
      </trkpt>
      <trkpt lat="37.043939" lon="-3.524690">
        <ele>1641.569</ele>
        <time>2013-07-07T20:15:29Z</time>
      </trkpt>
      <trkpt lat="37.045200" lon="-3.525077">
        <ele>1629.081</ele>
        <time>2013-07-07T20:15:54Z</time>
      </trkpt>
      <trkpt lat="37.045872" lon="-3.526283">
        <ele>1612.745</ele>
        <time>2013-07-07T20:16:16Z</time>
      </trkpt>
      <trkpt lat="37.046177" lon="-3.525677">
        <ele>1606.426</ele>
        <time>2013-07-07T20:16:27Z</time>
      </trkpt>
      <trkpt lat="37.046014" lon="-3.524546">
        <ele>1606.547</ele>
        <time>2013-07-07T20:16:47Z</time>
      </trkpt>
      <trkpt lat="37.046183" lon="-3.523954">
        <ele>1602.011</ele>
        <time>2013-07-07T20:16:54Z</time>
      </trkpt>
      <trkpt lat="37.046313" lon="-3.523909">
        <ele>1599.507</ele>
        <time>2013-07-07T20:16:58Z</time>
      </trkpt>
      <trkpt lat="37.046473" lon="-3.524574">
        <ele>1591.446</ele>
        <time>2013-07-07T20:17:08Z</time>
      </trkpt>
      <trkpt lat="37.046990" lon="-3.525562">
        <ele>1577.980</ele>
        <time>2013-07-07T20:17:22Z</time>
      </trkpt>
      <trkpt lat="37.047073" lon="-3.526670">
        <ele>1564.872</ele>
        <time>2013-07-07T20:17:33Z</time>
      </trkpt>
      <trkpt lat="37.047284" lon="-3.527086">
        <ele>1561.280</ele>
        <time>2013-07-07T20:17:38Z</time>
      </trkpt>
      <trkpt lat="37.047792" lon="-3.527345">
        <ele>1558.386</ele>
        <time>2013-07-07T20:17:48Z</time>
      </trkpt>
      <trkpt lat="37.047753" lon="-3.527504">
        <ele>1556.098</ele>
        <time>2013-07-07T20:17:52Z</time>
      </trkpt>
      <trkpt lat="37.046422" lon="-3.527837">
        <ele>1532.962</ele>
        <time>2013-07-07T20:18:09Z</time>
      </trkpt>
      <trkpt lat="37.046184" lon="-3.528111">
        <ele>1526.542</ele>
        <time>2013-07-07T20:18:14Z</time>
      </trkpt>
      <trkpt lat="37.045305" lon="-3.528466">
        <ele>1512.322</ele>
        <time>2013-07-07T20:18:25Z</time>
      </trkpt>
      <trkpt lat="37.045037" lon="-3.528894">
        <ele>1505.014</ele>
        <time>2013-07-07T20:18:30Z</time>
      </trkpt>
      <trkpt lat="37.044921" lon="-3.529727">
        <ele>1490.507</ele>
        <time>2013-07-07T20:18:39Z</time>
      </trkpt>
      <trkpt lat="37.045550" lon="-3.532158">
        <ele>1460.328</ele>
        <time>2013-07-07T20:19:00Z</time>
      </trkpt>
      <trkpt lat="37.045701" lon="-3.533688">
        <ele>1440.682</ele>
        <time>2013-07-07T20:19:12Z</time>
      </trkpt>
      <trkpt lat="37.045349" lon="-3.535204">
        <ele>1424.414</ele>
        <time>2013-07-07T20:19:25Z</time>
      </trkpt>
      <trkpt lat="37.045274" lon="-3.536946">
        <ele>1397.262</ele>
        <time>2013-07-07T20:19:42Z</time>
      </trkpt>
      <trkpt lat="37.044935" lon="-3.537893">
        <ele>1384.168</ele>
        <time>2013-07-07T20:19:54Z</time>
      </trkpt>
      <trkpt lat="37.043779" lon="-3.539375">
        <ele>1380.430</ele>
        <time>2013-07-07T20:20:21Z</time>
      </trkpt>
      <trkpt lat="37.043876" lon="-3.539789">
        <ele>1382.664</ele>
        <time>2013-07-07T20:20:39Z</time>
      </trkpt>
      <trkpt lat="37.043254" lon="-3.540440">
        <ele>1388.135</ele>
        <time>2013-07-07T20:21:20Z</time>
      </trkpt>
      <trkpt lat="37.043147" lon="-3.541451">
        <ele>1391.186</ele>
        <time>2013-07-07T20:21:54Z</time>
      </trkpt>
      <trkpt lat="37.043634" lon="-3.541678">
        <ele>1385.414</ele>
        <time>2013-07-07T20:22:02Z</time>
      </trkpt>
      <trkpt lat="37.044391" lon="-3.542500">
        <ele>1370.007</ele>
        <time>2013-07-07T20:22:18Z</time>
      </trkpt>
      <trkpt lat="37.045564" lon="-3.542821">
        <ele>1359.697</ele>
        <time>2013-07-07T20:22:36Z</time>
      </trkpt>
      <trkpt lat="37.046091" lon="-3.543681">
        <ele>1356.541</ele>
        <time>2013-07-07T20:22:49Z</time>
      </trkpt>
      <trkpt lat="37.046502" lon="-3.543702">
        <ele>1351.443</ele>
        <time>2013-07-07T20:22:55Z</time>
      </trkpt>
      <trkpt lat="37.046589" lon="-3.544022">
        <ele>1351.141</ele>
        <time>2013-07-07T20:23:02Z</time>
      </trkpt>
      <trkpt lat="37.047714" lon="-3.544998">
        <ele>1348.927</ele>
        <time>2013-07-07T20:23:33Z</time>
      </trkpt>
      <trkpt lat="37.048213" lon="-3.545812">
        <ele>1347.459</ele>
        <time>2013-07-07T20:23:52Z</time>
      </trkpt>
      <trkpt lat="37.047269" lon="-3.546637">
        <ele>1360.863</ele>
        <time>2013-07-07T20:25:07Z</time>
      </trkpt>
      <trkpt lat="37.046940" lon="-3.547528">
        <ele>1371.832</ele>
        <time>2013-07-07T20:26:07Z</time>
      </trkpt>
      <trkpt lat="37.046483" lon="-3.547759">
        <ele>1378.792</ele>
        <time>2013-07-07T20:26:44Z</time>
      </trkpt>
      <trkpt lat="37.045939" lon="-3.549605">
        <ele>1391.711</ele>
        <time>2013-07-07T20:28:22Z</time>
      </trkpt>
      <trkpt lat="37.044611" lon="-3.550277">
        <ele>1408.407</ele>
        <time>2013-07-07T20:29:58Z</time>
      </trkpt>
      <trkpt lat="37.043988" lon="-3.550197">
        <ele>1417.177</ele>
        <time>2013-07-07T20:30:43Z</time>
      </trkpt>
      <trkpt lat="37.043689" lon="-3.549961">
        <ele>1420.941</ele>
        <time>2013-07-07T20:31:07Z</time>
      </trkpt>
      <trkpt lat="37.042777" lon="-3.550210">
        <ele>1430.653</ele>
        <time>2013-07-07T20:32:04Z</time>
      </trkpt>
      <trkpt lat="37.042228" lon="-3.551088">
        <ele>1443.771</ele>
        <time>2013-07-07T20:33:10Z</time>
      </trkpt>
      <trkpt lat="37.041735" lon="-3.552284">
        <ele>1459.937</ele>
        <time>2013-07-07T20:34:37Z</time>
      </trkpt>
      <trkpt lat="37.040556" lon="-3.553730">
        <ele>1475.849</ele>
        <time>2013-07-07T20:36:17Z</time>
      </trkpt>
      <trkpt lat="37.040634" lon="-3.553836">
        <ele>1476.833</ele>
        <time>2013-07-07T20:36:26Z</time>
      </trkpt>
      <trkpt lat="37.042367" lon="-3.552820">
        <ele>1464.373</ele>
        <time>2013-07-07T20:36:52Z</time>
      </trkpt>
      <trkpt lat="37.042553" lon="-3.552970">
        <ele>1462.385</ele>
        <time>2013-07-07T20:36:55Z</time>
      </trkpt>
      <trkpt lat="37.042226" lon="-3.554446">
        <ele>1448.913</ele>
        <time>2013-07-07T20:37:08Z</time>
      </trkpt>
      <trkpt lat="37.042541" lon="-3.555391">
        <ele>1435.307</ele>
        <time>2013-07-07T20:37:18Z</time>
      </trkpt>
      <trkpt lat="37.041972" lon="-3.556203">
        <ele>1432.961</ele>
        <time>2013-07-07T20:37:31Z</time>
      </trkpt>
      <trkpt lat="37.041536" lon="-3.558463">
        <ele>1429.055</ele>
        <time>2013-07-07T20:38:06Z</time>
      </trkpt>
      <trkpt lat="37.041124" lon="-3.559769">
        <ele>1426.787</ele>
        <time>2013-07-07T20:38:28Z</time>
      </trkpt>
      <trkpt lat="37.041599" lon="-3.562706">
        <ele>1398.435</ele>
        <time>2013-07-07T20:38:57Z</time>
      </trkpt>
      <trkpt lat="37.042700" lon="-3.562272">
        <ele>1386.781</ele>
        <time>2013-07-07T20:39:14Z</time>
      </trkpt>
      <trkpt lat="37.043266" lon="-3.561242">
        <ele>1384.513</ele>
        <time>2013-07-07T20:39:51Z</time>
      </trkpt>
      <trkpt lat="37.043679" lon="-3.559315">
        <ele>1372.087</ele>
        <time>2013-07-07T20:55:54Z</time>
      </trkpt>
      <trkpt lat="37.044122" lon="-3.559125">
        <ele>1366.811</ele>
        <time>2013-07-07T20:56:06Z</time>
      </trkpt>
      <trkpt lat="37.044302" lon="-3.561645">
        <ele>1350.121</ele>
        <time>2013-07-07T20:56:36Z</time>
      </trkpt>
      <trkpt lat="37.044533" lon="-3.562563">
        <ele>1344.003</ele>
        <time>2013-07-07T20:56:44Z</time>
      </trkpt>
      <trkpt lat="37.044469" lon="-3.563203">
        <ele>1342.607</ele>
        <time>2013-07-07T20:56:51Z</time>
      </trkpt>
      <trkpt lat="37.044686" lon="-3.563737">
        <ele>1337.125</ele>
        <time>2013-07-07T20:56:57Z</time>
      </trkpt>
      <trkpt lat="37.044497" lon="-3.564213">
        <ele>1335.759</ele>
        <time>2013-07-07T20:57:08Z</time>
      </trkpt>
      <trkpt lat="37.044663" lon="-3.564786">
        <ele>1333.681</ele>
        <time>2013-07-07T20:57:22Z</time>
      </trkpt>
      <trkpt lat="37.044440" lon="-3.565173">
        <ele>1329.139</ele>
        <time>2013-07-07T20:57:30Z</time>
      </trkpt>
      <trkpt lat="37.045230" lon="-3.567181">
        <ele>1319.765</ele>
        <time>2013-07-07T20:57:56Z</time>
      </trkpt>
      <trkpt lat="37.044898" lon="-3.567757">
        <ele>1321.717</ele>
        <time>2013-07-07T20:58:12Z</time>
      </trkpt>
      <trkpt lat="37.044968" lon="-3.568478">
        <ele>1320.011</ele>
        <time>2013-07-07T20:58:26Z</time>
      </trkpt>
      <trkpt lat="37.045291" lon="-3.568675">
        <ele>1317.515</ele>
        <time>2013-07-07T20:58:33Z</time>
      </trkpt>
      <trkpt lat="37.045626" lon="-3.568315">
        <ele>1311.865</ele>
        <time>2013-07-07T20:58:40Z</time>
      </trkpt>
      <trkpt lat="37.046359" lon="-3.568302">
        <ele>1303.211</ele>
        <time>2013-07-07T20:58:53Z</time>
      </trkpt>
      <trkpt lat="37.046576" lon="-3.567889">
        <ele>1299.907</ele>
        <time>2013-07-07T20:58:58Z</time>
      </trkpt>
      <trkpt lat="37.046358" lon="-3.566965">
        <ele>1292.145</ele>
        <time>2013-07-07T20:59:08Z</time>
      </trkpt>
      <trkpt lat="37.047130" lon="-3.566168">
        <ele>1284.089</ele>
        <time>2013-07-07T20:59:17Z</time>
      </trkpt>
      <trkpt lat="37.048743" lon="-3.564999">
        <ele>1266.271</ele>
        <time>2013-07-07T20:59:33Z</time>
      </trkpt>
      <trkpt lat="37.048870" lon="-3.564604">
        <ele>1262.139</ele>
        <time>2013-07-07T20:59:37Z</time>
      </trkpt>
      <trkpt lat="37.048847" lon="-3.563736">
        <ele>1256.725</ele>
        <time>2013-07-07T20:59:44Z</time>
      </trkpt>
      <trkpt lat="37.048636" lon="-3.562935">
        <ele>1251.217</ele>
        <time>2013-07-07T20:59:53Z</time>
      </trkpt>
      <trkpt lat="37.049323" lon="-3.563461">
        <ele>1247.591</ele>
        <time>2013-07-07T21:00:05Z</time>
      </trkpt>
      <trkpt lat="37.050516" lon="-3.563818">
        <ele>1234.732</ele>
        <time>2013-07-07T21:00:17Z</time>
      </trkpt>
      <trkpt lat="37.051147" lon="-3.563683">
        <ele>1227.592</ele>
        <time>2013-07-07T21:00:24Z</time>
      </trkpt>
      <trkpt lat="37.051402" lon="-3.563426">
        <ele>1222.911</ele>
        <time>2013-07-07T21:00:28Z</time>
      </trkpt>
      <trkpt lat="37.051490" lon="-3.563027">
        <ele>1219.507</ele>
        <time>2013-07-07T21:00:32Z</time>
      </trkpt>
      <trkpt lat="37.051366" lon="-3.558662">
        <ele>1182.667</ele>
        <time>2013-07-07T21:01:10Z</time>
      </trkpt>
      <trkpt lat="37.051795" lon="-3.556940">
        <ele>1168.581</ele>
        <time>2013-07-07T21:01:25Z</time>
      </trkpt>
      <trkpt lat="37.052114" lon="-3.556320">
        <ele>1161.413</ele>
        <time>2013-07-07T21:01:32Z</time>
      </trkpt>
      <trkpt lat="37.051961" lon="-3.555574">
        <ele>1152.731</ele>
        <time>2013-07-07T21:01:43Z</time>
      </trkpt>
      <trkpt lat="37.052275" lon="-3.555202">
        <ele>1149.357</ele>
        <time>2013-07-07T21:01:48Z</time>
      </trkpt>
      <trkpt lat="37.052277" lon="-3.554491">
        <ele>1143.679</ele>
        <time>2013-07-07T21:01:56Z</time>
      </trkpt>
      <trkpt lat="37.052404" lon="-3.554426">
        <ele>1143.583</ele>
        <time>2013-07-07T21:02:00Z</time>
      </trkpt>
      <trkpt lat="37.053451" lon="-3.555547">
        <ele>1132.993</ele>
        <time>2013-07-07T21:02:22Z</time>
      </trkpt>
      <trkpt lat="37.054318" lon="-3.555434">
        <ele>1119.765</ele>
        <time>2013-07-07T21:02:35Z</time>
      </trkpt>
      <trkpt lat="37.055254" lon="-3.557376">
        <ele>1098.021</ele>
        <time>2013-07-07T21:02:59Z</time>
      </trkpt>
      <trkpt lat="37.056016" lon="-3.556289">
        <ele>1088.207</ele>
        <time>2013-07-07T21:03:16Z</time>
      </trkpt>
      <trkpt lat="37.056498" lon="-3.556462">
        <ele>1085.253</ele>
        <time>2013-07-07T21:03:21Z</time>
      </trkpt>
      <trkpt lat="37.056982" lon="-3.556256">
        <ele>1079.737</ele>
        <time>2013-07-07T21:03:27Z</time>
      </trkpt>
      <trkpt lat="37.057007" lon="-3.555831">
        <ele>1075.019</ele>
        <time>2013-07-07T21:03:35Z</time>
      </trkpt>
      <trkpt lat="37.057561" lon="-3.556096">
        <ele>1071.647</ele>
        <time>2013-07-07T21:03:43Z</time>
      </trkpt>
      <trkpt lat="37.058202" lon="-3.556062">
        <ele>1065.833</ele>
        <time>2013-07-07T21:03:49Z</time>
      </trkpt>
      <trkpt lat="37.059533" lon="-3.555628">
        <ele>1048.515</ele>
        <time>2013-07-07T21:04:05Z</time>
      </trkpt>
      <trkpt lat="37.059544" lon="-3.556594">
        <ele>1041.359</ele>
        <time>2013-07-07T21:04:15Z</time>
      </trkpt>
      <trkpt lat="37.059190" lon="-3.556835">
        <ele>1036.156</ele>
        <time>2013-07-07T21:04:23Z</time>
      </trkpt>
      <trkpt lat="37.060133" lon="-3.557495">
        <ele>1029.259</ele>
        <time>2013-07-07T21:04:38Z</time>
      </trkpt>
      <trkpt lat="37.060517" lon="-3.558325">
        <ele>1021.614</ele>
        <time>2013-07-07T21:04:47Z</time>
      </trkpt>
      <trkpt lat="37.060262" lon="-3.558911">
        <ele>1013.907</ele>
        <time>2013-07-07T21:04:57Z</time>
      </trkpt>
      <trkpt lat="37.061224" lon="-3.559028">
        <ele>1006.859</ele>
        <time>2013-07-07T21:05:11Z</time>
      </trkpt>
      <trkpt lat="37.061633" lon="-3.559382">
        <ele>1000.683</ele>
        <time>2013-07-07T21:05:18Z</time>
      </trkpt>
      <trkpt lat="37.061479" lon="-3.560397">
        <ele>990.935</ele>
        <time>2013-07-07T21:05:31Z</time>
      </trkpt>
      <trkpt lat="37.061714" lon="-3.561779">
        <ele>975.823</ele>
        <time>2013-07-07T21:05:46Z</time>
      </trkpt>
      <trkpt lat="37.062180" lon="-3.560618">
        <ele>970.249</ele>
        <time>2013-07-07T21:06:11Z</time>
      </trkpt>
      <trkpt lat="37.062756" lon="-3.559889">
        <ele>957.261</ele>
        <time>2013-07-07T21:06:30Z</time>
      </trkpt>
      <trkpt lat="37.062726" lon="-3.559257">
        <ele>953.365</ele>
        <time>2013-07-07T21:06:38Z</time>
      </trkpt>
      <trkpt lat="37.062495" lon="-3.558930">
        <ele>948.884</ele>
        <time>2013-07-07T21:06:46Z</time>
      </trkpt>
      <trkpt lat="37.063586" lon="-3.558865">
        <ele>935.907</ele>
        <time>2013-07-07T21:07:06Z</time>
      </trkpt>
      <trkpt lat="37.063489" lon="-3.558882">
        <ele>935.317</ele>
        <time>2013-07-07T21:07:43Z</time>
      </trkpt>
      <trkpt lat="37.063851" lon="-3.559491">
        <ele>933.907</ele>
        <time>2013-07-07T21:08:44Z</time>
      </trkpt>
      <trkpt lat="37.064475" lon="-3.564641">
        <ele>919.992</ele>
        <time>2013-07-07T21:09:56Z</time>
      </trkpt>
      <trkpt lat="37.064594" lon="-3.565476">
        <ele>917.579</ele>
        <time>2013-07-08T09:10:06Z</time>
      </trkpt>
      <trkpt lat="37.066557" lon="-3.571726">
        <ele>900.305</ele>
        <time>2013-07-08T09:11:24Z</time>
      </trkpt>
      <trkpt lat="37.067372" lon="-3.573633">
        <ele>895.725</ele>
        <time>2013-07-08T09:11:49Z</time>
      </trkpt>
      <trkpt lat="37.069112" lon="-3.580294">
        <ele>880.807</ele>
        <time>2013-07-08T09:13:19Z</time>
      </trkpt>
      <trkpt lat="37.069624" lon="-3.580779">
        <ele>882.471</ele>
        <time>2013-07-08T09:13:42Z</time>
      </trkpt>
      <trkpt lat="37.069774" lon="-3.581363">
        <ele>885.475</ele>
        <time>2013-07-08T09:14:06Z</time>
      </trkpt>
      <trkpt lat="37.070288" lon="-3.582111">
        <ele>886.527</ele>
        <time>2013-07-08T09:14:36Z</time>
      </trkpt>
      <trkpt lat="37.070842" lon="-3.582631">
        <ele>893.475</ele>
        <time>2013-07-08T09:15:14Z</time>
      </trkpt>
      <trkpt lat="37.071211" lon="-3.582675">
        <ele>899.492</ele>
        <time>2013-07-08T09:15:39Z</time>
      </trkpt>
      <trkpt lat="37.071312" lon="-3.581797">
        <ele>901.693</ele>
        <time>2013-07-08T09:16:15Z</time>
      </trkpt>
      <trkpt lat="37.071596" lon="-3.581156">
        <ele>907.277</ele>
        <time>2013-07-08T09:16:48Z</time>
      </trkpt>
      <trkpt lat="37.072254" lon="-3.580693">
        <ele>913.343</ele>
        <time>2013-07-08T09:17:27Z</time>
      </trkpt>
      <trkpt lat="37.075067" lon="-3.580665">
        <ele>923.864</ele>
        <time>2013-07-08T09:19:21Z</time>
      </trkpt>
      <trkpt lat="37.076848" lon="-3.581023">
        <ele>928.210</ele>
        <time>2013-07-08T09:20:25Z</time>
      </trkpt>
      <trkpt lat="37.077243" lon="-3.580883">
        <ele>928.307</ele>
        <time>2013-07-08T09:20:39Z</time>
      </trkpt>
      <trkpt lat="37.078063" lon="-3.57879"/>
      <trkpt lat="37.07953" lon="-3.57635"/>
      <trkpt lat="37.080063" lon="-3.576001">
        <ele>953.354</ele>
        <time>2013-07-08T09:24:22Z</time>
      </trkpt>
      <trkpt lat="37.080182" lon="-3.575646">
        <ele>958.072</ele>
        <time>2013-07-08T09:24:46Z</time>
      </trkpt>
      <trkpt lat="37.081176" lon="-3.575398">
        <ele>956.939</ele>
        <time>2013-07-08T09:25:16Z</time>
      </trkpt>
      <trkpt lat="37.081633" lon="-3.574457">
        <ele>962.470</ele>
        <time>2013-07-08T09:26:04Z</time>
      </trkpt>
      <trkpt lat="37.082702" lon="-3.573148">
        <ele>982.994</ele>
        <time>2013-07-08T09:27:49Z</time>
      </trkpt>
      <trkpt lat="37.083138" lon="-3.571606">
        <ele>981.799</ele>
        <time>2013-07-08T09:28:40Z</time>
      </trkpt>
      <trkpt lat="37.083964" lon="-3.57178"/>
      <trkpt lat="37.083962" lon="-3.569656">
        <ele>1005.127</ele>
        <time>2013-07-08T09:31:12Z</time>
      </trkpt>
      <trkpt lat="37.083588" lon="-3.565746">
        <ele>1054.507</ele>
        <time>2013-07-08T09:35:36Z</time>
      </trkpt>
      <trkpt lat="37.083833" lon="-3.564256">
        <ele>1074.913</ele>
        <time>2013-07-08T09:37:26Z</time>
      </trkpt>
      <trkpt lat="37.083886" lon="-3.562563">
        <ele>1097.957</ele>
        <time>2013-07-08T09:39:20Z</time>
      </trkpt>
      <trkpt lat="37.083779" lon="-3.562294">
        <ele>1102.629</ele>
        <time>2013-07-08T09:39:44Z</time>
      </trkpt>
      <trkpt lat="37.083158" lon="-3.562066">
        <ele>1105.837</ele>
        <time>2013-07-08T09:44:03Z</time>
      </trkpt>
      <trkpt lat="37.083276" lon="-3.562222">
        <ele>1106.444</ele>
        <time>2013-07-08T09:45:15Z</time>
      </trkpt>
      <trkpt lat="37.083865" lon="-3.562319">
        <ele>1104.035</ele>
        <time>2013-07-08T09:45:44Z</time>
      </trkpt>
      <trkpt lat="37.084583" lon="-3.561289">
        <ele>1105.819</ele>
        <time>2013-07-08T09:46:32Z</time>
      </trkpt>
      <trkpt lat="37.085311" lon="-3.556587">
        <ele>1138.796</ele>
        <time>2013-07-08T09:50:51Z</time>
      </trkpt>
      <trkpt lat="37.085987" lon="-3.555553">
        <ele>1156.231</ele>
        <time>2013-07-08T09:52:54Z</time>
      </trkpt>
      <trkpt lat="37.086465" lon="-3.555177">
        <ele>1173.124</ele>
        <time>2013-07-08T09:55:25Z</time>
      </trkpt>
      <trkpt lat="37.086044" lon="-3.551595">
        <ele>1205.107</ele>
        <time>2013-07-08T10:00:05Z</time>
      </trkpt>
      <trkpt lat="37.086769" lon="-3.546751">
        <ele>1223.583</ele>
        <time>2013-07-08T10:03:40Z</time>
      </trkpt>
      <trkpt lat="37.086351" lon="-3.546755">
        <ele>1225.157</ele>
        <time>2013-07-08T10:04:17Z</time>
      </trkpt>
      <trkpt lat="37.087425" lon="-3.544612">
        <ele>1231.349</ele>
        <time>2013-07-08T10:05:59Z</time>
      </trkpt>
      <trkpt lat="37.087739" lon="-3.544407">
        <ele>1232.647</ele>
        <time>2013-07-08T10:06:12Z</time>
      </trkpt>
      <trkpt lat="37.088323" lon="-3.545162">
        <ele>1230.874</ele>
        <time>2013-07-08T10:06:32Z</time>
      </trkpt>
      <trkpt lat="37.090045" lon="-3.546402">
        <ele>1227.255</ele>
        <time>2013-07-08T10:07:12Z</time>
      </trkpt>
      <trkpt lat="37.090156" lon="-3.547712">
        <ele>1222.859</ele>
        <time>2013-07-08T10:07:30Z</time>
      </trkpt>
      <trkpt lat="37.090595" lon="-3.548102">
        <ele>1220.647</ele>
        <time>2013-07-08T10:07:37Z</time>
      </trkpt>
      <trkpt lat="37.090884" lon="-3.548663">
        <ele>1217.629</ele>
        <time>2013-07-08T10:07:44Z</time>
      </trkpt>
      <trkpt lat="37.090976" lon="-3.551282">
        <ele>1193.921</ele>
        <time>2013-07-08T10:08:11Z</time>
      </trkpt>
      <trkpt lat="37.091226" lon="-3.551952">
        <ele>1185.907</ele>
        <time>2013-07-08T10:08:19Z</time>
      </trkpt>
      <trkpt lat="37.091747" lon="-3.552346">
        <ele>1178.018</ele>
        <time>2013-07-08T10:08:29Z</time>
      </trkpt>
      <trkpt lat="37.091293" lon="-3.552741">
        <ele>1171.182</ele>
        <time>2013-07-08T10:08:39Z</time>
      </trkpt>
      <trkpt lat="37.091623" lon="-3.553122">
        <ele>1163.924</ele>
        <time>2013-07-08T10:08:48Z</time>
      </trkpt>
      <trkpt lat="37.0919" lon="-3.553215"/>
      <trkpt lat="37.093195" lon="-3.552119">
        <ele>1161.499</ele>
        <time>2013-07-08T10:09:42Z</time>
      </trkpt>
      <trkpt lat="37.093401" lon="-3.551778">
        <ele>1162.090</ele>
        <time>2013-07-08T10:09:55Z</time>
      </trkpt>
      <trkpt lat="37.092714" lon="-3.549982">
        <ele>1166.134</ele>
        <time>2013-07-08T10:10:51Z</time>
      </trkpt>
      <trkpt lat="37.092828" lon="-3.549569">
        <ele>1166.349</ele>
        <time>2013-07-08T10:11:02Z</time>
      </trkpt>
      <trkpt lat="37.093366" lon="-3.54931"/>
      <trkpt lat="37.093634" lon="-3.547749">
        <ele>1173.922</ele>
        <time>2013-07-08T10:12:14Z</time>
      </trkpt>
      <trkpt lat="37.093149" lon="-3.546249">
        <ele>1182.707</ele>
        <time>2013-07-08T10:13:17Z</time>
      </trkpt>
      <trkpt lat="37.09314" lon="-3.545638"/>
      <trkpt lat="37.094112" lon="-3.546296">
        <ele>1189.122</ele>
        <time>2013-07-08T10:14:29Z</time>
      </trkpt>
      <trkpt lat="37.094341" lon="-3.546258">
        <ele>1189.324</ele>
        <time>2013-07-08T10:14:37Z</time>
      </trkpt>
      <trkpt lat="37.094781" lon="-3.545762">
        <ele>1192.012</ele>
        <time>2013-07-08T10:15:01Z</time>
      </trkpt>
      <trkpt lat="37.09528" lon="-3.546616"/>
      <trkpt lat="37.095429" lon="-3.546699">
        <ele>1195.770</ele>
        <time>2013-07-08T10:15:40Z</time>
      </trkpt>
      <trkpt lat="37.095655" lon="-3.546438">
        <ele>1195.854</ele>
        <time>2013-07-08T10:15:53Z</time>
      </trkpt>
      <trkpt lat="37.095902" lon="-3.54438"/>
      <trkpt lat="37.09577" lon="-3.542633"/>
      <trkpt lat="37.095695" lon="-3.542446">
        <ele>1199.526</ele>
        <time>2013-07-08T10:17:40Z</time>
      </trkpt>
      <trkpt lat="37.09481" lon="-3.541946"/>
      <trkpt lat="37.094822" lon="-3.541209">
        <ele>1206.191</ele>
        <time>2013-07-08T10:18:39Z</time>
      </trkpt>
      <trkpt lat="37.094175" lon="-3.540148">
        <ele>1212.685</ele>
        <time>2013-07-08T10:19:27Z</time>
      </trkpt>
      <trkpt lat="37.093793" lon="-3.53832"/>
      <trkpt lat="37.093161" lon="-3.536719">
        <ele>1225.155</ele>
        <time>2013-07-08T10:21:29Z</time>
      </trkpt>
      <trkpt lat="37.092088" lon="-3.536335">
        <ele>1233.042</ele>
        <time>2013-07-08T10:22:21Z</time>
      </trkpt>
      <trkpt lat="37.09146" lon="-3.535699"/>
      <trkpt lat="37.090696" lon="-3.535686">
        <ele>1243.587</ele>
        <time>2013-07-08T10:23:36Z</time>
      </trkpt>
      <trkpt lat="37.088855" lon="-3.534364">
        <ele>1258.473</ele>
        <time>2013-07-08T10:25:19Z</time>
      </trkpt>
      <trkpt lat="37.087879" lon="-3.535246">
        <ele>1265.685</ele>
        <time>2013-07-08T10:26:18Z</time>
      </trkpt>
      <trkpt lat="37.087524" lon="-3.535119">
        <ele>1268.813</ele>
        <time>2013-07-08T10:26:38Z</time>
      </trkpt>
      <trkpt lat="37.08706" lon="-3.535199"/>
      <trkpt lat="37.086396" lon="-3.534121">
        <ele>1279.241</ele>
        <time>2013-07-08T10:28:00Z</time>
      </trkpt>
      <trkpt lat="37.08523" lon="-3.533529"/>
      <trkpt lat="37.084964" lon="-3.532077">
        <ele>1295.337</ele>
        <time>2013-07-08T10:29:53Z</time>
      </trkpt>
      <trkpt lat="37.085075" lon="-3.530311">
        <ele>1304.585</ele>
        <time>2013-07-08T10:31:02Z</time>
      </trkpt>
      <trkpt lat="37.085298" lon="-3.529497">
        <ele>1309.832</ele>
        <time>2013-07-08T10:31:36Z</time>
      </trkpt>
      <trkpt lat="37.085778" lon="-3.528992">
        <ele>1313.233</ele>
        <time>2013-07-08T10:32:06Z</time>
      </trkpt>
      <trkpt lat="37.085948" lon="-3.528534">
        <ele>1315.447</ele>
        <time>2013-07-08T10:32:26Z</time>
      </trkpt>
      <trkpt lat="37.085979" lon="-3.528006">
        <ele>1317.729</ele>
        <time>2013-07-08T10:32:46Z</time>
      </trkpt>
      <trkpt lat="37.085691" lon="-3.527009">
        <ele>1326.100</ele>
        <time>2013-07-08T10:33:30Z</time>
      </trkpt>
      <trkpt lat="37.085924" lon="-3.526193">
        <ele>1331.320</ele>
        <time>2013-07-08T10:34:04Z</time>
      </trkpt>
      <trkpt lat="37.085838" lon="-3.526002">
        <ele>1332.607</ele>
        <time>2013-07-08T10:34:12Z</time>
      </trkpt>
      <trkpt lat="37.084113" lon="-3.524705">
        <ele>1335.466</ele>
        <time>2013-07-08T10:35:17Z</time>
      </trkpt>
      <trkpt lat="37.083354" lon="-3.52446"/>
      <trkpt lat="37.083159" lon="-3.523852">
        <ele>1339.182</ele>
        <time>2013-07-08T10:36:06Z</time>
      </trkpt>
      <trkpt lat="37.082356" lon="-3.522739">
        <ele>1337.190</ele>
        <time>2013-07-08T10:36:37Z</time>
      </trkpt>
      <trkpt lat="37.08277" lon="-3.520449"/>
      <trkpt lat="37.084156" lon="-3.519572">
        <ele>1330.088</ele>
        <time>2013-07-08T10:37:43Z</time>
      </trkpt>
      <trkpt lat="37.084082" lon="-3.518444">
        <ele>1327.412</ele>
        <time>2013-07-08T10:38:00Z</time>
      </trkpt>
      <trkpt lat="37.084228" lon="-3.517921">
        <ele>1325.642</ele>
        <time>2013-07-08T10:38:06Z</time>
      </trkpt>
      <trkpt lat="37.084201" lon="-3.516486">
        <ele>1320.922</ele>
        <time>2013-07-08T10:38:19Z</time>
      </trkpt>
      <trkpt lat="37.084516" lon="-3.515489">
        <ele>1319.414</ele>
        <time>2013-07-08T10:38:30Z</time>
      </trkpt>
      <trkpt lat="37.084072" lon="-3.514491">
        <ele>1323.707</ele>
        <time>2013-07-08T10:39:04Z</time>
      </trkpt>
      <trkpt lat="37.084066" lon="-3.513479">
        <ele>1330.418</ele>
        <time>2013-07-08T10:39:49Z</time>
      </trkpt>
      <trkpt lat="37.08353" lon="-3.511893"/>
      <trkpt lat="37.083423" lon="-3.510849">
        <ele>1357.844</ele>
        <time>2013-07-08T10:42:26Z</time>
      </trkpt>
      <trkpt lat="37.082771" lon="-3.509399">
        <ele>1374.542</ele>
        <time>2013-07-08T10:44:02Z</time>
      </trkpt>
      <trkpt lat="37.082729" lon="-3.508477">
        <ele>1382.039</ele>
        <time>2013-07-08T10:44:49Z</time>
      </trkpt>
      <trkpt lat="37.083011" lon="-3.506994">
        <ele>1394.440</ele>
        <time>2013-07-08T10:46:18Z</time>
      </trkpt>
      <trkpt lat="37.082872" lon="-3.506412">
        <ele>1397.114</ele>
        <time>2013-07-08T10:46:39Z</time>
      </trkpt>
      <trkpt lat="37.083362" lon="-3.504654">
        <ele>1407.186</ele>
        <time>2013-07-08T10:47:55Z</time>
      </trkpt>
      <trkpt lat="37.084033" lon="-3.503615">
        <ele>1414.960</ele>
        <time>2013-07-08T10:48:50Z</time>
      </trkpt>
      <trkpt lat="37.08434" lon="-3.502282"/>
      <trkpt lat="37.084595" lon="-3.502051">
        <ele>1425.007</ele>
        <time>2013-07-08T10:50:10Z</time>
      </trkpt>
      <trkpt lat="37.084647" lon="-3.500939">
        <ele>1433.442</ele>
        <time>2013-07-08T10:51:01Z</time>
      </trkpt>
      <trkpt lat="37.084526" lon="-3.500269">
        <ele>1438.086</ele>
        <time>2013-07-08T10:51:36Z</time>
      </trkpt>
      <trkpt lat="37.084654" lon="-3.499722">
        <ele>1442.138</ele>
        <time>2013-07-08T10:52:04Z</time>
      </trkpt>
      <trkpt lat="37.084949" lon="-3.499403">
        <ele>1443.076</ele>
        <time>2013-07-08T10:52:27Z</time>
      </trkpt>
      <trkpt lat="37.084851" lon="-3.498778">
        <ele>1446.283</ele>
        <time>2013-07-08T10:52:53Z</time>
      </trkpt>
      <trkpt lat="37.084964" lon="-3.498471">
        <ele>1448.044</ele>
        <time>2013-07-08T10:53:08Z</time>
      </trkpt>
      <trkpt lat="37.086356" lon="-3.496403">
        <ele>1462.358</ele>
        <time>2013-07-08T10:55:08Z</time>
      </trkpt>
      <trkpt lat="37.086426" lon="-3.495801">
        <ele>1465.679</ele>
        <time>2013-07-08T10:55:35Z</time>
      </trkpt>
      <trkpt lat="37.086683" lon="-3.495447">
        <ele>1467.805</ele>
        <time>2013-07-08T10:55:55Z</time>
      </trkpt>
      <trkpt lat="37.086554" lon="-3.494865">
        <ele>1470.725</ele>
        <time>2013-07-08T10:56:21Z</time>
      </trkpt>
      <trkpt lat="37.086791" lon="-3.494245">
        <ele>1474.007</ele>
        <time>2013-07-08T10:56:51Z</time>
      </trkpt>
      <trkpt lat="37.087365" lon="-3.494143">
        <ele>1479.691</ele>
        <time>2013-07-08T10:57:28Z</time>
      </trkpt>
      <trkpt lat="37.087324" lon="-3.492798">
        <ele>1488.285</ele>
        <time>2013-07-08T10:58:33Z</time>
      </trkpt>
      <trkpt lat="37.087446" lon="-3.492482">
        <ele>1490.917</ele>
        <time>2013-07-08T10:58:51Z</time>
      </trkpt>
      <trkpt lat="37.087668" lon="-3.492367">
        <ele>1493.545</ele>
        <time>2013-07-08T10:59:07Z</time>
      </trkpt>
      <trkpt lat="37.087673" lon="-3.49162"/>
      <trkpt lat="37.087857" lon="-3.491334">
        <ele>1500.953</ele>
        <time>2013-07-08T11:00:03Z</time>
      </trkpt>
      <trkpt lat="37.088088" lon="-3.491305">
        <ele>1503.067</ele>
        <time>2013-07-08T11:00:18Z</time>
      </trkpt>
      <trkpt lat="37.087923" lon="-3.491858">
        <ele>1506.578</ele>
        <time>2013-07-08T11:00:46Z</time>
      </trkpt>
      <trkpt lat="37.088204" lon="-3.492129">
        <ele>1509.433</ele>
        <time>2013-07-08T11:01:07Z</time>
      </trkpt>
      <trkpt lat="37.088364" lon="-3.491647">
        <ele>1513.526</ele>
        <time>2013-07-08T11:01:34Z</time>
      </trkpt>
      <trkpt lat="37.088743" lon="-3.491408">
        <ele>1517.107</ele>
        <time>2013-07-08T11:02:02Z</time>
      </trkpt>
      <trkpt lat="37.088735" lon="-3.490938">
        <ele>1520.681</ele>
        <time>2013-07-08T11:02:25Z</time>
      </trkpt>
      <trkpt lat="37.088188" lon="-3.490498">
        <ele>1527.415</ele>
        <time>2013-07-08T11:03:09Z</time>
      </trkpt>
      <trkpt lat="37.088849" lon="-3.488528">
        <ele>1545.297</ele>
        <time>2013-07-08T11:05:04Z</time>
      </trkpt>
      <trkpt lat="37.088925" lon="-3.487237">
        <ele>1555.055</ele>
        <time>2013-07-08T11:06:10Z</time>
      </trkpt>
      <trkpt lat="37.089455" lon="-3.486541">
        <ele>1562.052</ele>
        <time>2013-07-08T11:06:59Z</time>
      </trkpt>
      <trkpt lat="37.089154" lon="-3.486249">
        <ele>1565.263</ele>
        <time>2013-07-08T11:07:23Z</time>
      </trkpt>
      <trkpt lat="37.089251" lon="-3.485734">
        <ele>1568.947</ele>
        <time>2013-07-08T11:07:51Z</time>
      </trkpt>
      <trkpt lat="37.089039" lon="-3.485208">
        <ele>1572.882</ele>
        <time>2013-07-08T11:08:19Z</time>
      </trkpt>
      <trkpt lat="37.089349" lon="-3.483781">
        <ele>1583.343</ele>
        <time>2013-07-08T11:09:29Z</time>
      </trkpt>
      <trkpt lat="37.088785" lon="-3.482934">
        <ele>1588.617</ele>
        <time>2013-07-08T11:10:13Z</time>
      </trkpt>
      <trkpt lat="37.088743" lon="-3.482186">
        <ele>1592.407</ele>
        <time>2013-07-08T11:10:42Z</time>
      </trkpt>
      <trkpt lat="37.088323" lon="-3.481585">
        <ele>1595.972</ele>
        <time>2013-07-08T11:11:13Z</time>
      </trkpt>
      <trkpt lat="37.088136" lon="-3.479831">
        <ele>1608.266</ele>
        <time>2013-07-08T11:12:29Z</time>
      </trkpt>
      <trkpt lat="37.087747" lon="-3.478426">
        <ele>1616.148</ele>
        <time>2013-07-08T11:13:26Z</time>
      </trkpt>
      <trkpt lat="37.087191" lon="-3.477834">
        <ele>1620.066</ele>
        <time>2013-07-08T11:13:58Z</time>
      </trkpt>
      <trkpt lat="37.086765" lon="-3.476801">
        <ele>1626.973</ele>
        <time>2013-07-08T11:14:44Z</time>
      </trkpt>
      <trkpt lat="37.086747" lon="-3.47641"/>
      <trkpt lat="37.086983" lon="-3.475847">
        <ele>1631.388</ele>
        <time>2013-07-08T11:15:19Z</time>
      </trkpt>
      <trkpt lat="37.086465" lon="-3.474907">
        <ele>1637.277</ele>
        <time>2013-07-08T11:15:57Z</time>
      </trkpt>
      <trkpt lat="37.086511" lon="-3.473724">
        <ele>1642.961</ele>
        <time>2013-07-08T11:16:38Z</time>
      </trkpt>
      <trkpt lat="37.086024" lon="-3.472841">
        <ele>1647.727</ele>
        <time>2013-07-08T11:17:17Z</time>
      </trkpt>
      <trkpt lat="37.085628" lon="-3.470966">
        <ele>1658.807</ele>
        <time>2013-07-08T11:18:28Z</time>
      </trkpt>
      <trkpt lat="37.085085" lon="-3.470508">
        <ele>1665.051</ele>
        <time>2013-07-08T11:19:04Z</time>
      </trkpt>
      <trkpt lat="37.084864" lon="-3.469887">
        <ele>1670.085</ele>
        <time>2013-07-08T11:19:33Z</time>
      </trkpt>
      <trkpt lat="37.08487" lon="-3.469758"/>
      <trkpt lat="37.084975" lon="-3.469817">
        <ele>1672.025</ele>
        <time>2013-07-08T11:21:54Z</time>
      </trkpt>
      <trkpt lat="37.084837" lon="-3.469832">
        <ele>1676.832</ele>
        <time>2013-07-08T11:37:14Z</time>
      </trkpt>
      <trkpt lat="37.085164" lon="-3.470594">
        <ele>1672.953</ele>
        <time>2013-07-08T11:42:13Z</time>
      </trkpt>
      <trkpt lat="37.085566" lon="-3.470894">
        <ele>1669.647</ele>
        <time>2013-07-08T11:42:19Z</time>
      </trkpt>
      <trkpt lat="37.085721" lon="-3.471194">
        <ele>1666.461</ele>
        <time>2013-07-08T11:42:23Z</time>
      </trkpt>
      <trkpt lat="37.085955" lon="-3.472117">
        <ele>1660.421</ele>
        <time>2013-07-08T11:42:33Z</time>
      </trkpt>
      <trkpt lat="37.086704" lon="-3.473377">
        <ele>1666.913</ele>
        <time>2013-07-08T11:44:35Z</time>
      </trkpt>
      <trkpt lat="37.0871" lon="-3.474569"/>
      <trkpt lat="37.087284" lon="-3.474741">
        <ele>1678.070</ele>
        <time>2013-07-08T11:46:04Z</time>
      </trkpt>
      <trkpt lat="37.087675" lon="-3.474773">
        <ele>1679.594</ele>
        <time>2013-07-08T11:46:28Z</time>
      </trkpt>
      <trkpt lat="37.087763" lon="-3.475209">
        <ele>1681.866</ele>
        <time>2013-07-08T11:46:50Z</time>
      </trkpt>
      <trkpt lat="37.088607" lon="-3.476206">
        <ele>1684.254</ele>
        <time>2013-07-08T11:47:44Z</time>
      </trkpt>
      <trkpt lat="37.088804" lon="-3.477076">
        <ele>1684.741</ele>
        <time>2013-07-08T11:48:09Z</time>
      </trkpt>
      <trkpt lat="37.08941" lon="-3.478046"/>
      <trkpt lat="37.090172" lon="-3.480749">
        <ele>1710.176</ele>
        <time>2013-07-08T11:51:20Z</time>
      </trkpt>
      <trkpt lat="37.090442" lon="-3.480993">
        <ele>1713.092</ele>
        <time>2013-07-08T11:51:42Z</time>
      </trkpt>
      <trkpt lat="37.091108" lon="-3.481114">
        <ele>1716.873</ele>
        <time>2013-07-08T11:52:20Z</time>
      </trkpt>
      <trkpt lat="37.092002" lon="-3.480934">
        <ele>1721.020</ele>
        <time>2013-07-08T11:53:04Z</time>
      </trkpt>
      <trkpt lat="37.092671" lon="-3.481574">
        <ele>1727.007</ele>
        <time>2013-07-08T11:53:45Z</time>
      </trkpt>
      <trkpt lat="37.092935" lon="-3.482764">
        <ele>1721.243</ele>
        <time>2013-07-08T11:54:04Z</time>
      </trkpt>
      <trkpt lat="37.093647" lon="-3.483057">
        <ele>1720.927</ele>
        <time>2013-07-08T11:54:18Z</time>
      </trkpt>
      <trkpt lat="37.094099" lon="-3.483792">
        <ele>1725.429</ele>
        <time>2013-07-08T11:54:51Z</time>
      </trkpt>
      <trkpt lat="37.094388" lon="-3.483819">
        <ele>1727.917</ele>
        <time>2013-07-08T11:55:07Z</time>
      </trkpt>
      <trkpt lat="37.095042" lon="-3.484239">
        <ele>1733.564</ele>
        <time>2013-07-08T11:55:46Z</time>
      </trkpt>
      <trkpt lat="37.095379" lon="-3.48484"/>
      <trkpt lat="37.095502" lon="-3.485955">
        <ele>1743.129</ele>
        <time>2013-07-08T11:57:08Z</time>
      </trkpt>
      <trkpt lat="37.095742" lon="-3.486727">
        <ele>1748.188</ele>
        <time>2013-07-08T11:57:43Z</time>
      </trkpt>
      <trkpt lat="37.096371" lon="-3.487548">
        <ele>1755.124</ele>
        <time>2013-07-08T11:58:30Z</time>
      </trkpt>
      <trkpt lat="37.096856" lon="-3.487925">
        <ele>1759.426</ele>
        <time>2013-07-08T11:59:03Z</time>
      </trkpt>
      <trkpt lat="37.096865" lon="-3.490005">
        <ele>1749.907</ele>
        <time>2013-07-08T12:00:15Z</time>
      </trkpt>
      <trkpt lat="37.097007" lon="-3.490256">
        <ele>1748.362</ele>
        <time>2013-07-08T12:00:19Z</time>
      </trkpt>
      <trkpt lat="37.097648" lon="-3.490572">
        <ele>1743.056</ele>
        <time>2013-07-08T12:00:28Z</time>
      </trkpt>
      <trkpt lat="37.10001" lon="-3.490709"/>
      <trkpt lat="37.100258" lon="-3.490294">
        <ele>1717.846</ele>
        <time>2013-07-08T12:01:04Z</time>
      </trkpt>
      <trkpt lat="37.100148" lon="-3.489206">
        <ele>1709.113</ele>
        <time>2013-07-08T12:01:16Z</time>
      </trkpt>
      <trkpt lat="37.100429" lon="-3.488127">
        <ele>1700.034</ele>
        <time>2013-07-08T12:01:30Z</time>
      </trkpt>
      <trkpt lat="37.101083" lon="-3.487955">
        <ele>1696.128</ele>
        <time>2013-07-08T12:01:39Z</time>
      </trkpt>
      <trkpt lat="37.101411" lon="-3.487059">
        <ele>1689.473</ele>
        <time>2013-07-08T12:01:48Z</time>
      </trkpt>
      <trkpt lat="37.101571" lon="-3.486927">
        <ele>1686.785</ele>
        <time>2013-07-08T12:01:52Z</time>
      </trkpt>
      <trkpt lat="37.102098" lon="-3.48737"/>
      <trkpt lat="37.102617" lon="-3.487448">
        <ele>1688.807</ele>
        <time>2013-07-08T12:02:30Z</time>
      </trkpt>
      <trkpt lat="37.103029" lon="-3.487152">
        <ele>1692.581</ele>
        <time>2013-07-08T12:02:56Z</time>
      </trkpt>
      <trkpt lat="37.103549" lon="-3.487733">
        <ele>1697.655</ele>
        <time>2013-07-08T12:03:33Z</time>
      </trkpt>
      <trkpt lat="37.103809" lon="-3.487727">
        <ele>1698.977</ele>
        <time>2013-07-08T12:03:53Z</time>
      </trkpt>
      <trkpt lat="37.10429" lon="-3.486556"/>
      <trkpt lat="37.104761" lon="-3.486301">
        <ele>1699.712</ele>
        <time>2013-07-08T12:05:27Z</time>
      </trkpt>
      <trkpt lat="37.104713" lon="-3.485251">
        <ele>1692.933</ele>
        <time>2013-07-08T12:05:46Z</time>
      </trkpt>
      <trkpt lat="37.105085" lon="-3.484517">
        <ele>1687.557</ele>
        <time>2013-07-08T12:06:00Z</time>
      </trkpt>
      <trkpt lat="37.106305" lon="-3.48419"/>
      <trkpt lat="37.106783" lon="-3.483607">
        <ele>1669.661</ele>
        <time>2013-07-08T12:06:40Z</time>
      </trkpt>
      <trkpt lat="37.107103" lon="-3.483479">
        <ele>1667.817</ele>
        <time>2013-07-08T12:06:45Z</time>
      </trkpt>
      <trkpt lat="37.108586" lon="-3.484083">
        <ele>1654.607</ele>
        <time>2013-07-08T12:07:02Z</time>
      </trkpt>
      <trkpt lat="37.109708" lon="-3.483958">
        <ele>1644.358</ele>
        <time>2013-07-08T12:07:14Z</time>
      </trkpt>
      <trkpt lat="37.110967" lon="-3.484438">
        <ele>1633.542</ele>
        <time>2013-07-08T12:07:28Z</time>
      </trkpt>
      <trkpt lat="37.111626" lon="-3.484485">
        <ele>1626.414</ele>
        <time>2013-07-08T12:07:35Z</time>
      </trkpt>
      <trkpt lat="37.113421" lon="-3.483671">
        <ele>1607.652</ele>
        <time>2013-07-08T12:07:56Z</time>
      </trkpt>
      <trkpt lat="37.113572" lon="-3.483172">
        <ele>1603.529</ele>
        <time>2013-07-08T12:08:02Z</time>
      </trkpt>
      <trkpt lat="37.113271" lon="-3.482599">
        <ele>1598.250</ele>
        <time>2013-07-08T12:08:09Z</time>
      </trkpt>
      <trkpt lat="37.112666" lon="-3.482741">
        <ele>1593.764</ele>
        <time>2013-07-08T12:08:16Z</time>
      </trkpt>
      <trkpt lat="37.112133" lon="-3.48313"/>
      <trkpt lat="37.111871" lon="-3.483072">
        <ele>1583.287</ele>
        <time>2013-07-08T12:08:27Z</time>
      </trkpt>
      <trkpt lat="37.111559" lon="-3.482434">
        <ele>1579.015</ele>
        <time>2013-07-08T12:08:35Z</time>
      </trkpt>
      <trkpt lat="37.110732" lon="-3.482514">
        <ele>1572.207</ele>
        <time>2013-07-08T12:08:46Z</time>
      </trkpt>
      <trkpt lat="37.109735" lon="-3.482094">
        <ele>1564.915</ele>
        <time>2013-07-08T12:08:57Z</time>
      </trkpt>
      <trkpt lat="37.109148" lon="-3.482037">
        <ele>1558.489</ele>
        <time>2013-07-08T12:09:03Z</time>
      </trkpt>
      <trkpt lat="37.107114" lon="-3.480818">
        <ele>1539.351</ele>
        <time>2013-07-08T12:09:25Z</time>
      </trkpt>
      <trkpt lat="37.106311" lon="-3.480727">
        <ele>1531.799</ele>
        <time>2013-07-08T12:09:34Z</time>
      </trkpt>
      <trkpt lat="37.106034" lon="-3.480554">
        <ele>1528.256</ele>
        <time>2013-07-08T12:09:38Z</time>
      </trkpt>
      <trkpt lat="37.105423" lon="-3.47977"/>
      <trkpt lat="37.104433" lon="-3.479053">
        <ele>1515.761</ele>
        <time>2013-07-08T12:09:59Z</time>
      </trkpt>
      <trkpt lat="37.104459" lon="-3.477845">
        <ele>1509.075</ele>
        <time>2013-07-08T12:10:15Z</time>
      </trkpt>
      <trkpt lat="37.104326" lon="-3.477729">
        <ele>1508.228</ele>
        <time>2013-07-08T12:10:18Z</time>
      </trkpt>
      <trkpt lat="37.103634" lon="-3.477748">
        <ele>1505.920</ele>
        <time>2013-07-08T12:10:29Z</time>
      </trkpt>
      <trkpt lat="37.102837" lon="-3.478158">
        <ele>1504.707</ele>
        <time>2013-07-08T12:10:44Z</time>
      </trkpt>
      <trkpt lat="37.102435" lon="-3.477945">
        <ele>1503.711</ele>
        <time>2013-07-08T12:10:52Z</time>
      </trkpt>
      <trkpt lat="37.102081" lon="-3.477946">
        <ele>1502.795</ele>
        <time>2013-07-08T12:10:58Z</time>
      </trkpt>
      <trkpt lat="37.101881" lon="-3.477648">
        <ele>1502.037</ele>
        <time>2013-07-08T12:11:05Z</time>
      </trkpt>
      <trkpt lat="37.101831" lon="-3.476603">
        <ele>1500.335</ele>
        <time>2013-07-08T12:11:23Z</time>
      </trkpt>
      <trkpt lat="37.101687" lon="-3.476491">
        <ele>1498.862</ele>
        <time>2013-07-08T12:11:26Z</time>
      </trkpt>
      <trkpt lat="37.101169" lon="-3.476729">
        <ele>1495.783</ele>
        <time>2013-07-08T12:11:33Z</time>
      </trkpt>
      <trkpt lat="37.100949" lon="-3.476687">
        <ele>1493.047</ele>
        <time>2013-07-08T12:11:37Z</time>
      </trkpt>
      <trkpt lat="37.10087" lon="-3.475967"/>
      <trkpt lat="37.100308" lon="-3.476077">
        <ele>1486.626</ele>
        <time>2013-07-08T12:11:55Z</time>
      </trkpt>
      <trkpt lat="37.098506" lon="-3.475956">
        <ele>1479.508</ele>
        <time>2013-07-08T12:12:17Z</time>
      </trkpt>
      <trkpt lat="37.098215" lon="-3.475899">
        <ele>1477.807</ele>
        <time>2013-07-08T12:12:20Z</time>
      </trkpt>
      <trkpt lat="37.097927" lon="-3.475543">
        <ele>1473.376</ele>
        <time>2013-07-08T12:12:26Z</time>
      </trkpt>
      <trkpt lat="37.098131" lon="-3.475437">
        <ele>1471.460</ele>
        <time>2013-07-08T12:12:31Z</time>
      </trkpt>
      <trkpt lat="37.098808" lon="-3.475496">
        <ele>1466.542</ele>
        <time>2013-07-08T12:12:40Z</time>
      </trkpt>
      <trkpt lat="37.099527" lon="-3.475126">
        <ele>1457.520</ele>
        <time>2013-07-08T12:12:50Z</time>
      </trkpt>
      <trkpt lat="37.100243" lon="-3.475038">
        <ele>1448.847</ele>
        <time>2013-07-08T12:13:00Z</time>
      </trkpt>
      <trkpt lat="37.101092" lon="-3.474588">
        <ele>1438.428</ele>
        <time>2013-07-08T12:13:12Z</time>
      </trkpt>
      <trkpt lat="37.102066" lon="-3.474779">
        <ele>1428.492</ele>
        <time>2013-07-08T12:13:24Z</time>
      </trkpt>
      <trkpt lat="37.103002" lon="-3.474472">
        <ele>1415.766</ele>
        <time>2013-07-08T12:13:35Z</time>
      </trkpt>
      <trkpt lat="37.103553" lon="-3.474033">
        <ele>1409.529</ele>
        <time>2013-07-08T12:13:44Z</time>
      </trkpt>
      <trkpt lat="37.104654" lon="-3.47199"/>
      <trkpt lat="37.105076" lon="-3.472385">
        <ele>1394.907</ele>
        <time>2013-07-08T12:14:23Z</time>
      </trkpt>
      <trkpt lat="37.10521" lon="-3.472366"/>
      <trkpt lat="37.105724" lon="-3.471739">
        <ele>1394.394</ele>
        <time>2013-07-08T12:15:09Z</time>
      </trkpt>
      <trkpt lat="37.10517" lon="-3.472773"/>
      <trkpt lat="37.105795" lon="-3.473359">
        <ele>1381.184</ele>
        <time>2013-07-08T12:15:45Z</time>
      </trkpt>
      <trkpt lat="37.106406" lon="-3.474292">
        <ele>1375.041</ele>
        <time>2013-07-08T12:15:55Z</time>
      </trkpt>
      <trkpt lat="37.107255" lon="-3.474586">
        <ele>1367.752</ele>
        <time>2013-07-08T12:16:05Z</time>
      </trkpt>
      <trkpt lat="37.108306" lon="-3.474507">
        <ele>1359.146</ele>
        <time>2013-07-08T12:16:19Z</time>
      </trkpt>
      <trkpt lat="37.109338" lon="-3.474187">
        <ele>1347.419</ele>
        <time>2013-07-08T12:16:34Z</time>
      </trkpt>
      <trkpt lat="37.109997" lon="-3.473745">
        <ele>1339.809</ele>
        <time>2013-07-08T12:16:44Z</time>
      </trkpt>
      <trkpt lat="37.110912" lon="-3.472306">
        <ele>1323.819</ele>
        <time>2013-07-08T12:17:03Z</time>
      </trkpt>
      <trkpt lat="37.111886" lon="-3.47163"/>
      <trkpt lat="37.112875" lon="-3.471338">
        <ele>1303.815</ele>
        <time>2013-07-08T12:17:30Z</time>
      </trkpt>
      <trkpt lat="37.11419" lon="-3.470512"/>
      <trkpt lat="37.114417" lon="-3.470111">
        <ele>1290.621</ele>
        <time>2013-07-08T12:17:51Z</time>
      </trkpt>
      <trkpt lat="37.114498" lon="-3.469016">
        <ele>1282.419</ele>
        <time>2013-07-08T12:18:09Z</time>
      </trkpt>
      <trkpt lat="37.114647" lon="-3.468804">
        <ele>1280.666</ele>
        <time>2013-07-08T12:18:23Z</time>
      </trkpt>
      <trkpt lat="37.114836" lon="-3.468863">
        <ele>1280.847</ele>
        <time>2013-07-08T12:19:13Z</time>
      </trkpt>
      <trkpt lat="37.114721" lon="-3.468142">
        <ele>1288.091</ele>
        <time>2013-07-08T12:20:05Z</time>
      </trkpt>
      <trkpt lat="37.114987" lon="-3.468539">
        <ele>1291.369</ele>
        <time>2013-07-08T12:20:36Z</time>
      </trkpt>
      <trkpt lat="37.114762" lon="-3.467386">
        <ele>1302.904</ele>
        <time>2013-07-08T12:21:57Z</time>
      </trkpt>
      <trkpt lat="37.11513" lon="-3.467559"/>
      <trkpt lat="37.115179" lon="-3.467468">
        <ele>1308.807</ele>
        <time>2013-07-08T12:22:40Z</time>
      </trkpt>
      <trkpt lat="37.114417" lon="-3.466315">
        <ele>1326.340</ele>
        <time>2013-07-08T12:24:24Z</time>
      </trkpt>
      <trkpt lat="37.114197" lon="-3.465395">
        <ele>1335.544</ele>
        <time>2013-07-08T12:25:24Z</time>
      </trkpt>
      <trkpt lat="37.113836" lon="-3.464689">
        <ele>1344.066</ele>
        <time>2013-07-08T12:26:17Z</time>
      </trkpt>
      <trkpt lat="37.113601" lon="-3.464379">
        <ele>1347.954</ele>
        <time>2013-07-08T12:26:42Z</time>
      </trkpt>
      <trkpt lat="37.11298" lon="-3.464104"/>
      <trkpt lat="37.112522" lon="-3.462819">
        <ele>1368.382</ele>
        <time>2013-07-08T12:28:51Z</time>
      </trkpt>
      <trkpt lat="37.112192" lon="-3.462601">
        <ele>1372.336</ele>
        <time>2013-07-08T12:29:17Z</time>
      </trkpt>
      <trkpt lat="37.111382" lon="-3.462655">
        <ele>1381.152</ele>
        <time>2013-07-08T12:30:12Z</time>
      </trkpt>
      <trkpt lat="37.111061" lon="-3.462262">
        <ele>1383.753</ele>
        <time>2013-07-08T12:30:39Z</time>
      </trkpt>
      <trkpt lat="37.110411" lon="-3.462465">
        <ele>1391.008</ele>
        <time>2013-07-08T12:31:21Z</time>
      </trkpt>
      <trkpt lat="37.109187" lon="-3.462012">
        <ele>1406.407</ele>
        <time>2013-07-08T12:32:51Z</time>
      </trkpt>
      <trkpt lat="37.108559" lon="-3.461342">
        <ele>1410.529</ele>
        <time>2013-07-08T12:33:38Z</time>
      </trkpt>
      <trkpt lat="37.108142" lon="-3.461115">
        <ele>1415.423</ele>
        <time>2013-07-08T12:34:05Z</time>
      </trkpt>
      <trkpt lat="37.107747" lon="-3.459438">
        <ele>1421.245</ele>
        <time>2013-07-08T12:35:06Z</time>
      </trkpt>
      <trkpt lat="37.106814" lon="-3.45835"/>
      <trkpt lat="37.105939" lon="-3.457894">
        <ele>1420.230</ele>
        <time>2013-07-08T12:36:13Z</time>
      </trkpt>
      <trkpt lat="37.105682" lon="-3.457318">
        <ele>1418.061</ele>
        <time>2013-07-08T12:36:23Z</time>
      </trkpt>
      <trkpt lat="37.105335" lon="-3.456954">
        <ele>1417.055</ele>
        <time>2013-07-08T12:36:31Z</time>
      </trkpt>
      <trkpt lat="37.105315" lon="-3.455919">
        <ele>1418.446</ele>
        <time>2013-07-08T12:36:52Z</time>
      </trkpt>
      <trkpt lat="37.104637" lon="-3.454728">
        <ele>1420.388</ele>
        <time>2013-07-08T12:37:30Z</time>
      </trkpt>
      <trkpt lat="37.104152" lon="-3.454285">
        <ele>1420.916</ele>
        <time>2013-07-08T12:37:52Z</time>
      </trkpt>
      <trkpt lat="37.103951" lon="-3.452254">
        <ele>1426.407</ele>
        <time>2013-07-08T12:46:58Z</time>
      </trkpt>
      <trkpt lat="37.104255" lon="-3.452556">
        <ele>1429.178</ele>
        <time>2013-07-08T12:49:06Z</time>
      </trkpt>
      <trkpt lat="37.104888" lon="-3.45407"/>
      <trkpt lat="37.105855" lon="-3.455338">
        <ele>1454.514</ele>
        <time>2013-07-08T12:52:29Z</time>
      </trkpt>
      <trkpt lat="37.106912" lon="-3.455635">
        <ele>1462.852</ele>
        <time>2013-07-08T12:53:39Z</time>
      </trkpt>
      <trkpt lat="37.107358" lon="-3.455918">
        <ele>1466.519</ele>
        <time>2013-07-08T12:54:09Z</time>
      </trkpt>
      <trkpt lat="37.107492" lon="-3.455802">
        <ele>1468.230</ele>
        <time>2013-07-08T12:54:21Z</time>
      </trkpt>
      <trkpt lat="37.107381" lon="-3.455523">
        <ele>1469.894</ele>
        <time>2013-07-08T12:54:38Z</time>
      </trkpt>
      <trkpt lat="37.106917" lon="-3.455155">
        <ele>1472.996</ele>
        <time>2013-07-08T12:55:08Z</time>
      </trkpt>
      <trkpt lat="37.106508" lon="-3.454366">
        <ele>1478.631</ele>
        <time>2013-07-08T12:55:49Z</time>
      </trkpt>
      <trkpt lat="37.106455" lon="-3.453489">
        <ele>1483.624</ele>
        <time>2013-07-08T12:56:31Z</time>
      </trkpt>
      <trkpt lat="37.106121" lon="-3.452494">
        <ele>1491.507</ele>
        <time>2013-07-08T12:57:26Z</time>
      </trkpt>
      <trkpt lat="37.105376" lon="-3.451819">
        <ele>1500.493</ele>
        <time>2013-07-08T12:58:26Z</time>
      </trkpt>
      <trkpt lat="37.105443" lon="-3.450464">
        <ele>1509.787</ele>
        <time>2013-07-08T12:59:33Z</time>
      </trkpt>
      <trkpt lat="37.105642" lon="-3.450426">
        <ele>1511.959</ele>
        <time>2013-07-08T12:59:47Z</time>
      </trkpt>
      <trkpt lat="37.106081" lon="-3.450929">
        <ele>1518.337</ele>
        <time>2013-07-08T13:00:26Z</time>
      </trkpt>
      <trkpt lat="37.106368" lon="-3.451744">
        <ele>1525.714</ele>
        <time>2013-07-08T13:01:17Z</time>
      </trkpt>
      <trkpt lat="37.106803" lon="-3.451946">
        <ele>1529.395</ele>
        <time>2013-07-08T13:01:45Z</time>
      </trkpt>
      <trkpt lat="37.107538" lon="-3.451946">
        <ele>1535.329</ele>
        <time>2013-07-08T13:02:28Z</time>
      </trkpt>
      <trkpt lat="37.108773" lon="-3.452755">
        <ele>1545.817</ele>
        <time>2013-07-08T13:03:47Z</time>
      </trkpt>
      <trkpt lat="37.110199" lon="-3.454017">
        <ele>1558.487</ele>
        <time>2013-07-08T13:05:25Z</time>
      </trkpt>
      <trkpt lat="37.110649" lon="-3.454837">
        <ele>1564.315</ele>
        <time>2013-07-08T13:06:12Z</time>
      </trkpt>
      <trkpt lat="37.111553" lon="-3.455436">
        <ele>1572.507</ele>
        <time>2013-07-08T13:07:13Z</time>
      </trkpt>
      <trkpt lat="37.112226" lon="-3.457363">
        <ele>1586.965</ele>
        <time>2013-07-08T13:08:54Z</time>
      </trkpt>
      <trkpt lat="37.112434" lon="-3.457537">
        <ele>1589.299</ele>
        <time>2013-07-08T13:09:09Z</time>
      </trkpt>
      <trkpt lat="37.112757" lon="-3.45747"/>
      <trkpt lat="37.113415" lon="-3.455999">
        <ele>1603.889</ele>
        <time>2013-07-08T13:10:51Z</time>
      </trkpt>
      <trkpt lat="37.113907" lon="-3.455543">
        <ele>1609.936</ele>
        <time>2013-07-08T13:11:30Z</time>
      </trkpt>
      <trkpt lat="37.11511" lon="-3.456174"/>
      <trkpt lat="37.115916" lon="-3.455915">
        <ele>1624.641</ele>
        <time>2013-07-08T13:13:23Z</time>
      </trkpt>
      <trkpt lat="37.116704" lon="-3.456933">
        <ele>1627.146</ele>
        <time>2013-07-08T13:14:24Z</time>
      </trkpt>
      <trkpt lat="37.117066" lon="-3.456871">
        <ele>1627.788</ele>
        <time>2013-07-08T13:14:37Z</time>
      </trkpt>
      <trkpt lat="37.117543" lon="-3.456381">
        <ele>1629.816</ele>
        <time>2013-07-08T13:14:59Z</time>
      </trkpt>
      <trkpt lat="37.118254" lon="-3.456066">
        <ele>1633.307</ele>
        <time>2013-07-08T13:15:27Z</time>
      </trkpt>
      <trkpt lat="37.119176" lon="-3.455119">
        <ele>1639.128</ele>
        <time>2013-07-08T13:16:14Z</time>
      </trkpt>
      <trkpt lat="37.119916" lon="-3.45375"/>
      <trkpt lat="37.120404" lon="-3.453855">
        <ele>1642.984</ele>
        <time>2013-07-08T13:17:13Z</time>
      </trkpt>
      <trkpt lat="37.120533" lon="-3.45373"/>
      <trkpt lat="37.121144" lon="-3.452227">
        <ele>1646.329</ele>
        <time>2013-07-08T13:18:04Z</time>
      </trkpt>
      <trkpt lat="37.121402" lon="-3.452363">
        <ele>1646.540</ele>
        <time>2013-07-08T13:18:11Z</time>
      </trkpt>
      <trkpt lat="37.121849" lon="-3.453338">
        <ele>1651.564</ele>
        <time>2013-07-08T13:18:51Z</time>
      </trkpt>
      <trkpt lat="37.122519" lon="-3.453777">
        <ele>1654.581</ele>
        <time>2013-07-08T13:19:23Z</time>
      </trkpt>
      <trkpt lat="37.122903" lon="-3.453536">
        <ele>1656.961</ele>
        <time>2013-07-08T13:19:42Z</time>
      </trkpt>
      <trkpt lat="37.123038" lon="-3.452557">
        <ele>1659.417</ele>
        <time>2013-07-08T13:20:09Z</time>
      </trkpt>
      <trkpt lat="37.123276" lon="-3.452253">
        <ele>1660.107</ele>
        <time>2013-07-08T13:20:20Z</time>
      </trkpt>
      <trkpt lat="37.124477" lon="-3.452715">
        <ele>1661.582</ele>
        <time>2013-07-08T13:20:52Z</time>
      </trkpt>
      <trkpt lat="37.125466" lon="-3.452763">
        <ele>1663.016</ele>
        <time>2013-07-08T13:21:18Z</time>
      </trkpt>
      <trkpt lat="37.126389" lon="-3.451806">
        <ele>1663.638</ele>
        <time>2013-07-08T13:21:45Z</time>
      </trkpt>
      <trkpt lat="37.127118" lon="-3.451553">
        <ele>1663.686</ele>
        <time>2013-07-08T13:22:07Z</time>
      </trkpt>
      <trkpt lat="37.127267" lon="-3.45121"/>
      <trkpt lat="37.126711" lon="-3.449503">
        <ele>1658.624</ele>
        <time>2013-07-08T13:22:40Z</time>
      </trkpt>
      <trkpt lat="37.127101" lon="-3.447306">
        <ele>1649.118</ele>
        <time>2013-07-08T13:23:00Z</time>
      </trkpt>
      <trkpt lat="37.126906" lon="-3.446311">
        <ele>1643.416</ele>
        <time>2013-07-08T13:23:10Z</time>
      </trkpt>
      <trkpt lat="37.127283" lon="-3.445611">
        <ele>1639.476</ele>
        <time>2013-07-08T13:23:19Z</time>
      </trkpt>
      <trkpt lat="37.127497" lon="-3.444089">
        <ele>1630.413</ele>
        <time>2013-07-08T13:23:32Z</time>
      </trkpt>
      <trkpt lat="37.127785" lon="-3.444079">
        <ele>1628.307</ele>
        <time>2013-07-08T13:23:36Z</time>
      </trkpt>
      <trkpt lat="37.128623" lon="-3.444729">
        <ele>1627.245</ele>
        <time>2013-07-08T13:23:51Z</time>
      </trkpt>
      <trkpt lat="37.129457" lon="-3.444896">
        <ele>1628.859</ele>
        <time>2013-07-08T13:24:14Z</time>
      </trkpt>
      <trkpt lat="37.130694" lon="-3.444308">
        <ele>1631.571</ele>
        <time>2013-07-08T13:24:50Z</time>
      </trkpt>
      <trkpt lat="37.131529" lon="-3.443271">
        <ele>1631.079</ele>
        <time>2013-07-08T13:25:17Z</time>
      </trkpt>
      <trkpt lat="37.13159" lon="-3.441826"/>
      <trkpt lat="37.132036" lon="-3.440619">
        <ele>1631.117</ele>
        <time>2013-07-08T13:26:07Z</time>
      </trkpt>
      <trkpt lat="37.132964" lon="-3.439895">
        <ele>1626.561</ele>
        <time>2013-07-08T13:26:29Z</time>
      </trkpt>
      <trkpt lat="37.132734" lon="-3.437832">
        <ele>1621.576</ele>
        <time>2013-07-08T13:26:55Z</time>
      </trkpt>
      <trkpt lat="37.133022" lon="-3.436159">
        <ele>1630.790</ele>
        <time>2013-07-08T13:27:53Z</time>
      </trkpt>
      <trkpt lat="37.132589" lon="-3.434447">
        <ele>1644.719</ele>
        <time>2013-07-08T13:29:23Z</time>
      </trkpt>
      <trkpt lat="37.132757" lon="-3.433619">
        <ele>1649.107</ele>
        <time>2013-07-08T13:29:59Z</time>
      </trkpt>
      <trkpt lat="37.13329" lon="-3.433015"/>
      <trkpt lat="37.133989" lon="-3.432538">
        <ele>1649.755</ele>
        <time>2013-07-08T13:31:04Z</time>
      </trkpt>
      <trkpt lat="37.134712" lon="-3.431567">
        <ele>1641.777</ele>
        <time>2013-07-08T13:31:21Z</time>
      </trkpt>
      <trkpt lat="37.135053" lon="-3.43142"/>
      <trkpt lat="37.135835" lon="-3.430635">
        <ele>1631.122</ele>
        <time>2013-07-08T13:31:40Z</time>
      </trkpt>
      <trkpt lat="37.136768" lon="-3.428687">
        <ele>1616.573</ele>
        <time>2013-07-08T13:31:59Z</time>
      </trkpt>
      <trkpt lat="37.136555" lon="-3.429595">
        <ele>1610.717</ele>
        <time>2013-07-08T13:32:12Z</time>
      </trkpt>
      <trkpt lat="37.136661" lon="-3.429818">
        <ele>1609.214</ele>
        <time>2013-07-08T13:32:15Z</time>
      </trkpt>
      <trkpt lat="37.136885" lon="-3.429882">
        <ele>1607.554</ele>
        <time>2013-07-08T13:32:18Z</time>
      </trkpt>
      <trkpt lat="37.137027" lon="-3.429768">
        <ele>1606.109</ele>
        <time>2013-07-08T13:32:20Z</time>
      </trkpt>
      <trkpt lat="37.137116" lon="-3.428797">
        <ele>1600.907</ele>
        <time>2013-07-08T13:32:29Z</time>
      </trkpt>
      <trkpt lat="37.137273" lon="-3.428597">
        <ele>1599.495</ele>
        <time>2013-07-08T13:32:32Z</time>
      </trkpt>
      <trkpt lat="37.137585" lon="-3.428726">
        <ele>1597.419</ele>
        <time>2013-07-08T13:32:36Z</time>
      </trkpt>
      <trkpt lat="37.137839" lon="-3.429579">
        <ele>1592.791</ele>
        <time>2013-07-08T13:32:44Z</time>
      </trkpt>
      <trkpt lat="37.138362" lon="-3.429558">
        <ele>1588.819</ele>
        <time>2013-07-08T13:32:49Z</time>
      </trkpt>
      <trkpt lat="37.138597" lon="-3.429374">
        <ele>1586.266</ele>
        <time>2013-07-08T13:32:52Z</time>
      </trkpt>
      <trkpt lat="37.1384" lon="-3.428496"/>
      <trkpt lat="37.137799" lon="-3.427523">
        <ele>1573.961</ele>
        <time>2013-07-08T13:33:12Z</time>
      </trkpt>
      <trkpt lat="37.137556" lon="-3.425506">
        <ele>1561.574</ele>
        <time>2013-07-08T13:33:28Z</time>
      </trkpt>
      <trkpt lat="37.137818" lon="-3.42345"/>
      <trkpt lat="37.137338" lon="-3.421677">
        <ele>1538.921</ele>
        <time>2013-07-08T13:34:01Z</time>
      </trkpt>
      <trkpt lat="37.137307" lon="-3.420686">
        <ele>1532.407</ele>
        <time>2013-07-08T13:34:10Z</time>
      </trkpt>
      <trkpt lat="37.136861" lon="-3.42003"/>
      <trkpt lat="37.137166" lon="-3.419348">
        <ele>1521.825</ele>
        <time>2013-07-08T13:34:26Z</time>
      </trkpt>
      <trkpt lat="37.136731" lon="-3.418677">
        <ele>1516.727</ele>
        <time>2013-07-08T13:34:35Z</time>
      </trkpt>
      <trkpt lat="37.137108" lon="-3.417775">
        <ele>1513.515</ele>
        <time>2013-07-08T13:34:46Z</time>
      </trkpt>
      <trkpt lat="37.137122" lon="-3.416636">
        <ele>1507.152</ele>
        <time>2013-07-08T13:34:59Z</time>
      </trkpt>
      <trkpt lat="37.136266" lon="-3.415289">
        <ele>1497.113</ele>
        <time>2013-07-08T13:35:15Z</time>
      </trkpt>
      <trkpt lat="37.136112" lon="-3.414162">
        <ele>1490.817</ele>
        <time>2013-07-08T13:35:27Z</time>
      </trkpt>
      <trkpt lat="37.135468" lon="-3.413102">
        <ele>1482.827</ele>
        <time>2013-07-08T13:35:39Z</time>
      </trkpt>
      <trkpt lat="37.135232" lon="-3.412851">
        <ele>1479.968</ele>
        <time>2013-07-08T13:35:43Z</time>
      </trkpt>
      <trkpt lat="37.134637" lon="-3.413498">
        <ele>1474.014</ele>
        <time>2013-07-08T13:35:53Z</time>
      </trkpt>
      <trkpt lat="37.134452" lon="-3.41348"/>
      <trkpt lat="37.13427" lon="-3.412829"/>
      <trkpt lat="37.133962" lon="-3.412368">
        <ele>1464.750</ele>
        <time>2013-07-08T13:36:10Z</time>
      </trkpt>
      <trkpt lat="37.133879" lon="-3.411849">
        <ele>1462.252</ele>
        <time>2013-07-08T13:36:14Z</time>
      </trkpt>
      <trkpt lat="37.133989" lon="-3.41036"/>
      <trkpt lat="37.133521" lon="-3.409183">
        <ele>1442.917</ele>
        <time>2013-07-08T13:36:35Z</time>
      </trkpt>
      <trkpt lat="37.1333" lon="-3.407937"/>
      <trkpt lat="37.133341" lon="-3.407606">
        <ele>1431.812</ele>
        <time>2013-07-08T13:36:47Z</time>
      </trkpt>
      <trkpt lat="37.133923" lon="-3.406563">
        <ele>1423.027</ele>
        <time>2013-07-08T13:36:57Z</time>
      </trkpt>
      <trkpt lat="37.133752" lon="-3.405304">
        <ele>1415.068</ele>
        <time>2013-07-08T13:37:08Z</time>
      </trkpt>
      <trkpt lat="37.133958" lon="-3.404446">
        <ele>1408.714</ele>
        <time>2013-07-08T13:37:15Z</time>
      </trkpt>
      <trkpt lat="37.134045" lon="-3.404301">
        <ele>1407.107</ele>
        <time>2013-07-08T13:37:17Z</time>
      </trkpt>
      <trkpt lat="37.134628" lon="-3.40411"/>
      <trkpt lat="37.134758" lon="-3.403817">
        <ele>1399.580</ele>
        <time>2013-07-08T13:37:27Z</time>
      </trkpt>
      <trkpt lat="37.134685" lon="-3.403517">
        <ele>1396.492</ele>
        <time>2013-07-08T13:37:30Z</time>
      </trkpt>
      <trkpt lat="37.132232" lon="-3.402041">
        <ele>1375.210</ele>
        <time>2013-07-08T13:38:01Z</time>
      </trkpt>
      <trkpt lat="37.131421" lon="-3.400778">
        <ele>1363.487</ele>
        <time>2013-07-08T13:38:17Z</time>
      </trkpt>
      <trkpt lat="37.132027" lon="-3.400226">
        <ele>1356.028</ele>
        <time>2013-07-08T13:38:28Z</time>
      </trkpt>
      <trkpt lat="37.132452" lon="-3.399564">
        <ele>1350.442</ele>
        <time>2013-07-08T13:38:35Z</time>
      </trkpt>
      <trkpt lat="37.132789" lon="-3.398525">
        <ele>1340.848</ele>
        <time>2013-07-08T13:38:46Z</time>
      </trkpt>
      <trkpt lat="37.132848" lon="-3.399456">
        <ele>1332.361</ele>
        <time>2013-07-08T13:39:23Z</time>
      </trkpt>
      <trkpt lat="37.132651" lon="-3.400539">
        <ele>1325.017</ele>
        <time>2013-07-08T13:39:35Z</time>
      </trkpt>
      <trkpt lat="37.133328" lon="-3.401038">
        <ele>1316.407</ele>
        <time>2013-07-08T13:39:47Z</time>
      </trkpt>
      <trkpt lat="37.134237" lon="-3.40059"/>
      <trkpt lat="37.134447" lon="-3.400611">
        <ele>1312.292</ele>
        <time>2013-07-08T13:40:07Z</time>
      </trkpt>
      <trkpt lat="37.134959" lon="-3.400913">
        <ele>1309.384</ele>
        <time>2013-07-08T13:40:17Z</time>
      </trkpt>
      <trkpt lat="37.135356" lon="-3.401593">
        <ele>1302.922</ele>
        <time>2013-07-08T13:40:26Z</time>
      </trkpt>
      <trkpt lat="37.135678" lon="-3.401777">
        <ele>1299.589</ele>
        <time>2013-07-08T13:40:31Z</time>
      </trkpt>
      <trkpt lat="37.136555" lon="-3.40191"/>
      <trkpt lat="37.137265" lon="-3.402481">
        <ele>1275.724</ele>
        <time>2013-07-08T13:40:48Z</time>
      </trkpt>
      <trkpt lat="37.138329" lon="-3.404396">
        <ele>1249.463</ele>
        <time>2013-07-08T13:41:07Z</time>
      </trkpt>
      <trkpt lat="37.138302" lon="-3.405113">
        <ele>1242.244</ele>
        <time>2013-07-08T13:41:13Z</time>
      </trkpt>
      <trkpt lat="37.138492" lon="-3.405947">
        <ele>1232.518</ele>
        <time>2013-07-08T13:41:25Z</time>
      </trkpt>
      <trkpt lat="37.138699" lon="-3.405604">
        <ele>1227.307</ele>
        <time>2013-07-08T13:41:31Z</time>
      </trkpt>
      <trkpt lat="37.138805" lon="-3.404932">
        <ele>1218.320</ele>
        <time>2013-07-08T13:41:40Z</time>
      </trkpt>
      <trkpt lat="37.139221" lon="-3.404656">
        <ele>1212.394</ele>
        <time>2013-07-08T13:41:46Z</time>
      </trkpt>
      <trkpt lat="37.139268" lon="-3.404379">
        <ele>1207.716</ele>
        <time>2013-07-08T13:41:49Z</time>
      </trkpt>
      <trkpt lat="37.138655" lon="-3.402901">
        <ele>1202.284</ele>
        <time>2013-07-08T13:42:05Z</time>
      </trkpt>
      <trkpt lat="37.138721" lon="-3.402695">
        <ele>1199.121</ele>
        <time>2013-07-08T13:42:09Z</time>
      </trkpt>
      <trkpt lat="37.138847" lon="-3.402773">
        <ele>1197.232</ele>
        <time>2013-07-08T13:42:11Z</time>
      </trkpt>
      <trkpt lat="37.139014" lon="-3.403261">
        <ele>1192.636</ele>
        <time>2013-07-08T13:42:15Z</time>
      </trkpt>
      <trkpt lat="37.139693" lon="-3.404196">
        <ele>1179.217</ele>
        <time>2013-07-08T13:42:25Z</time>
      </trkpt>
      <trkpt lat="37.140947" lon="-3.407314">
        <ele>1145.587</ele>
        <time>2013-07-08T13:42:57Z</time>
      </trkpt>
      <trkpt lat="37.14142" lon="-3.407894"/>
      <trkpt lat="37.141527" lon="-3.407281">
        <ele>1123.307</ele>
        <time>2013-07-08T13:43:20Z</time>
      </trkpt>
      <trkpt lat="37.141965" lon="-3.408497">
        <ele>1107.375</ele>
        <time>2013-07-08T13:43:36Z</time>
      </trkpt>
      <trkpt lat="37.142015" lon="-3.408067">
        <ele>1098.789</ele>
        <time>2013-07-08T13:43:48Z</time>
      </trkpt>
      <trkpt lat="37.14228" lon="-3.408737"/>
      <trkpt lat="37.142624" lon="-3.40905"/>
      <trkpt lat="37.142123" lon="-3.4099"/>
      <trkpt lat="37.143264" lon="-3.412184">
        <ele>1074.477</ele>
        <time>2013-07-08T13:44:44Z</time>
      </trkpt>
      <trkpt lat="37.143441" lon="-3.412354">
        <ele>1074.141</ele>
        <time>2013-07-08T13:44:47Z</time>
      </trkpt>
      <trkpt lat="37.144818" lon="-3.412239">
        <ele>1067.986</ele>
        <time>2013-07-08T13:45:09Z</time>
      </trkpt>
      <trkpt lat="37.145178" lon="-3.41233"/>
      <trkpt lat="37.14609" lon="-3.413353"/>
      <trkpt lat="37.146654" lon="-3.414471">
        <ele>1056.007</ele>
        <time>2013-07-08T13:45:42Z</time>
      </trkpt>
      <trkpt lat="37.149034" lon="-3.416213">
        <ele>1042.442</ele>
        <time>2013-07-08T13:46:28Z</time>
      </trkpt>
      <trkpt lat="37.14929" lon="-3.416275"/>
      <trkpt lat="37.149834" lon="-3.415455">
        <ele>1042.048</ele>
        <time>2013-07-08T13:46:58Z</time>
      </trkpt>
      <trkpt lat="37.150009" lon="-3.415346">
        <ele>1040.666</ele>
        <time>2013-07-08T13:47:02Z</time>
      </trkpt>
      <trkpt lat="37.15014" lon="-3.415451"/>
      <trkpt lat="37.149649" lon="-3.416348">
        <ele>1046.064</ele>
        <time>2013-07-08T13:47:52Z</time>
      </trkpt>
      <trkpt lat="37.150037" lon="-3.417028">
        <ele>1052.538</ele>
        <time>2013-07-08T13:48:34Z</time>
      </trkpt>
      <trkpt lat="37.149935" lon="-3.416495">
        <ele>1056.474</ele>
        <time>2013-07-08T13:49:11Z</time>
      </trkpt>
      <trkpt lat="37.150143" lon="-3.416557">
        <ele>1059.056</ele>
        <time>2013-07-08T13:49:28Z</time>
      </trkpt>
      <trkpt lat="37.15041" lon="-3.417876"/>
      <trkpt lat="37.15117" lon="-3.418752"/>
      <trkpt lat="37.150914" lon="-3.419265">
        <ele>1073.181</ele>
        <time>2013-07-08T13:52:05Z</time>
      </trkpt>
      <trkpt lat="37.150925" lon="-3.419837">
        <ele>1077.085</ele>
        <time>2013-07-08T13:52:34Z</time>
      </trkpt>
      <trkpt lat="37.151687" lon="-3.421648">
        <ele>1083.577</ele>
        <time>2013-07-08T13:53:49Z</time>
      </trkpt>
      <trkpt lat="37.152799" lon="-3.42253"/>
      <trkpt lat="37.153056" lon="-3.423283">
        <ele>1088.472</ele>
        <time>2013-07-08T13:55:02Z</time>
      </trkpt>
      <trkpt lat="37.152773" lon="-3.424181">
        <ele>1093.673</ele>
        <time>2013-07-08T13:55:36Z</time>
      </trkpt>
      <trkpt lat="37.153139" lon="-3.425656">
        <ele>1103.177</ele>
        <time>2013-07-08T13:56:41Z</time>
      </trkpt>
      <trkpt lat="37.15363" lon="-3.426394"/>
      <trkpt lat="37.153633" lon="-3.427846">
        <ele>1111.126</ele>
        <time>2013-07-08T13:58:08Z</time>
      </trkpt>
      <trkpt lat="37.154724" lon="-3.429187">
        <ele>1110.908</ele>
        <time>2013-07-08T13:58:48Z</time>
      </trkpt>
      <trkpt lat="37.155227" lon="-3.429452">
        <ele>1114.307</ele>
        <time>2013-07-08T13:59:07Z</time>
      </trkpt>
      <trkpt lat="37.155928" lon="-3.431003">
        <ele>1114.156</ele>
        <time>2013-07-08T13:59:51Z</time>
      </trkpt>
      <trkpt lat="37.156724" lon="-3.431628">
        <ele>1110.240</ele>
        <time>2013-07-08T14:00:09Z</time>
      </trkpt>
      <trkpt lat="37.157333" lon="-3.432708">
        <ele>1102.462</ele>
        <time>2013-07-08T14:00:24Z</time>
      </trkpt>
      <trkpt lat="37.157287" lon="-3.43346"/>
      <trkpt lat="37.157506" lon="-3.434291"/>
      <trkpt lat="37.157725" lon="-3.435121">
        <ele>1090.117</ele>
        <time>2013-07-08T14:00:55Z</time>
      </trkpt>
      <trkpt lat="37.158729" lon="-3.436104">
        <ele>1088.538</ele>
        <time>2013-07-08T14:01:22Z</time>
      </trkpt>
      <trkpt lat="37.13733" lon="-3.432541"/>
      <trkpt lat="37.159126" lon="-3.436883">
        <ele>1087.082</ele>
        <time>2013-07-08T14:01:38Z</time>
      </trkpt>
      <trkpt lat="37.136235" lon="-3.429108"/>
      <trkpt lat="37.13514" lon="-3.429108"/>
      <trkpt lat="37.134045" lon="-3.427048"/>
      <trkpt lat="37.126381" lon="-3.415375"/>
      <trkpt lat="37.132778" lon="-3.434625">
        <ele>1680.576</ele>
        <time>2018-09-22T09:51:34Z</time>
      </trkpt>
      <trkpt lat="37.132668" lon="-3.43469"/>
      <trkpt lat="37.132678" lon="-3.433821">
        <ele>1680.719</ele>
        <time>2018-09-22T09:55:40Z</time>
      </trkpt>
      <trkpt lat="37.133302" lon="-3.432818">
        <ele>1684.408</ele>
        <time>2018-09-22T09:56:23Z</time>
      </trkpt>
      <trkpt lat="37.133348" lon="-3.432009">
        <ele>1695.889</ele>
        <time>2018-09-22T09:57:03Z</time>
      </trkpt>
      <trkpt lat="37.133779" lon="-3.431398">
        <ele>1710.525</ele>
        <time>2018-09-22T09:57:34Z</time>
      </trkpt>
      <trkpt lat="37.134448" lon="-3.429807">
        <ele>1738.556</ele>
        <time>2018-09-22T09:58:59Z</time>
      </trkpt>
      <trkpt lat="37.134756" lon="-3.427766">
        <ele>1737.037</ele>
        <time>2018-09-22T10:00:21Z</time>
      </trkpt>
      <trkpt lat="37.134612" lon="-3.427593">
        <ele>1732.357</ele>
        <time>2018-09-22T10:00:34Z</time>
      </trkpt>
      <trkpt lat="37.134494" lon="-3.428116">
        <ele>1735.623</ele>
        <time>2018-09-22T10:01:04Z</time>
      </trkpt>
      <trkpt lat="37.133151" lon="-3.429684">
        <ele>1755.220</ele>
        <time>2018-09-22T10:02:40Z</time>
      </trkpt>
      <trkpt lat="37.13284" lon="-3.429754"/>
      <trkpt lat="37.132726" lon="-3.429497">
        <ele>1755.763</ele>
        <time>2018-09-22T10:03:15Z</time>
      </trkpt>
      <trkpt lat="37.133094" lon="-3.42892"/>
      <trkpt lat="37.133299" lon="-3.426964">
        <ele>1784.918</ele>
        <time>2018-09-22T10:05:21Z</time>
      </trkpt>
      <trkpt lat="37.133113" lon="-3.426863">
        <ele>1782.208</ele>
        <time>2018-09-22T10:05:35Z</time>
      </trkpt>
      <trkpt lat="37.131236" lon="-3.429351">
        <ele>1812.158</ele>
        <time>2018-09-22T10:08:08Z</time>
      </trkpt>
      <trkpt lat="37.130886" lon="-3.429457">
        <ele>1810.324</ele>
        <time>2018-09-22T10:08:29Z</time>
      </trkpt>
      <trkpt lat="37.130794" lon="-3.429148">
        <ele>1811.575</ele>
        <time>2018-09-22T10:08:48Z</time>
      </trkpt>
      <trkpt lat="37.131214" lon="-3.42828"/>
      <trkpt lat="37.131321" lon="-3.427545">
        <ele>1823.996</ele>
        <time>2018-09-22T10:10:07Z</time>
      </trkpt>
      <trkpt lat="37.131012" lon="-3.425762">
        <ele>1848.512</ele>
        <time>2018-09-22T10:11:28Z</time>
      </trkpt>
      <trkpt lat="37.130714" lon="-3.424967">
        <ele>1853.639</ele>
        <time>2018-09-22T10:12:06Z</time>
      </trkpt>
      <trkpt lat="37.130533" lon="-3.42486"/>
      <trkpt lat="37.13063" lon="-3.425561"/>
      <trkpt lat="37.129934" lon="-3.427329">
        <ele>1872.261</ele>
        <time>2018-09-22T10:14:20Z</time>
      </trkpt>
      <trkpt lat="37.129715" lon="-3.427303">
        <ele>1869.207</ele>
        <time>2018-09-22T10:14:32Z</time>
      </trkpt>
      <trkpt lat="37.129395" lon="-3.426434">
        <ele>1872.808</ele>
        <time>2018-09-22T10:15:11Z</time>
      </trkpt>
      <trkpt lat="37.129075" lon="-3.426413">
        <ele>1873.615</ele>
        <time>2018-09-22T10:15:28Z</time>
      </trkpt>
      <trkpt lat="37.128749" lon="-3.427094">
        <ele>1883.471</ele>
        <time>2018-09-22T10:16:01Z</time>
      </trkpt>
      <trkpt lat="37.128638" lon="-3.428496">
        <ele>1910.322</ele>
        <time>2018-09-22T10:17:01Z</time>
      </trkpt>
      <trkpt lat="37.12791" lon="-3.430478"/>
      <trkpt lat="37.12744" lon="-3.430581"/>
      <trkpt lat="37.127129" lon="-3.431682">
        <ele>1920.149</ele>
        <time>2018-09-22T10:19:35Z</time>
      </trkpt>
      <trkpt lat="37.127366" lon="-3.432656">
        <ele>1926.756</ele>
        <time>2018-09-22T10:20:14Z</time>
      </trkpt>
      <trkpt lat="37.127337" lon="-3.433751">
        <ele>1932.129</ele>
        <time>2018-09-22T10:20:56Z</time>
      </trkpt>
      <trkpt lat="37.126896" lon="-3.435141">
        <ele>1937.885</ele>
        <time>2018-09-22T10:21:53Z</time>
      </trkpt>
      <trkpt lat="37.126438" lon="-3.435389">
        <ele>1940.589</ele>
        <time>2018-09-22T10:22:16Z</time>
      </trkpt>
      <trkpt lat="37.125367" lon="-3.435485">
        <ele>1946.017</ele>
        <time>2018-09-22T10:23:03Z</time>
      </trkpt>
      <trkpt lat="37.123547" lon="-3.436126">
        <ele>1967.408</ele>
        <time>2018-09-22T10:24:32Z</time>
      </trkpt>
      <trkpt lat="37.122211" lon="-3.436293">
        <ele>1968.450</ele>
        <time>2018-09-22T10:25:33Z</time>
      </trkpt>
      <trkpt lat="37.121834" lon="-3.436613">
        <ele>1972.326</ele>
        <time>2018-09-22T10:25:54Z</time>
      </trkpt>
      <trkpt lat="37.121645" lon="-3.437309">
        <ele>1977.577</ele>
        <time>2018-09-22T10:26:21Z</time>
      </trkpt>
      <trkpt lat="37.120184" lon="-3.439102">
        <ele>1994.328</ele>
        <time>2018-09-22T10:28:00Z</time>
      </trkpt>
      <trkpt lat="37.119985" lon="-3.440546">
        <ele>2003.768</ele>
        <time>2018-09-22T10:28:56Z</time>
      </trkpt>
      <trkpt lat="37.119508" lon="-3.441079">
        <ele>2009.994</ele>
        <time>2018-09-22T10:29:26Z</time>
      </trkpt>
      <trkpt lat="37.119222" lon="-3.441042">
        <ele>2014.571</ele>
        <time>2018-09-22T10:29:44Z</time>
      </trkpt>
      <trkpt lat="37.119226" lon="-3.440793">
        <ele>2016.534</ele>
        <time>2018-09-22T10:29:56Z</time>
      </trkpt>
      <trkpt lat="37.119577" lon="-3.440372">
        <ele>2019.141</ele>
        <time>2018-09-22T10:30:20Z</time>
      </trkpt>
      <trkpt lat="37.119097" lon="-3.439375">
        <ele>2024.181</ele>
        <time>2018-09-22T10:31:06Z</time>
      </trkpt>
      <trkpt lat="37.119706" lon="-3.437827">
        <ele>2035.109</ele>
        <time>2018-09-22T10:32:14Z</time>
      </trkpt>
      <trkpt lat="37.119647" lon="-3.43556"/>
      <trkpt lat="37.120247" lon="-3.434693">
        <ele>2057.746</ele>
        <time>2018-09-22T10:34:25Z</time>
      </trkpt>
      <trkpt lat="37.12146" lon="-3.433633"/>
      <trkpt lat="37.122204" lon="-3.433435">
        <ele>2076.073</ele>
        <time>2018-09-22T10:36:16Z</time>
      </trkpt>
      <trkpt lat="37.122241" lon="-3.433177">
        <ele>2078.864</ele>
        <time>2018-09-22T10:36:28Z</time>
      </trkpt>
      <trkpt lat="37.121653" lon="-3.432768">
        <ele>2080.474</ele>
        <time>2018-09-22T10:37:01Z</time>
      </trkpt>
      <trkpt lat="37.121185" lon="-3.432885">
        <ele>2082.410</ele>
        <time>2018-09-22T10:37:24Z</time>
      </trkpt>
      <trkpt lat="37.120983" lon="-3.432572">
        <ele>2086.387</ele>
        <time>2018-09-22T10:37:42Z</time>
      </trkpt>
      <trkpt lat="37.12228" lon="-3.43149"/>
      <trkpt lat="37.122335" lon="-3.431073">
        <ele>2103.458</ele>
        <time>2018-09-22T10:39:11Z</time>
      </trkpt>
      <trkpt lat="37.122052" lon="-3.430969">
        <ele>2106.052</ele>
        <time>2018-09-22T10:39:26Z</time>
      </trkpt>
      <trkpt lat="37.120318" lon="-3.431602">
        <ele>2118.517</ele>
        <time>2018-09-22T10:40:48Z</time>
      </trkpt>
      <trkpt lat="37.119338" lon="-3.431"/>
      <trkpt lat="37.118716" lon="-3.43131"/>
      <trkpt lat="37.118006" lon="-3.431145">
        <ele>2137.173</ele>
        <time>2018-09-22T10:42:50Z</time>
      </trkpt>
      <trkpt lat="37.117162" lon="-3.430143">
        <ele>2144.044</ele>
        <time>2018-09-22T10:43:44Z</time>
      </trkpt>
      <trkpt lat="37.116771" lon="-3.429191">
        <ele>2147.665</ele>
        <time>2018-09-22T10:44:19Z</time>
      </trkpt>
      <trkpt lat="37.116519" lon="-3.42592"/>
      <trkpt lat="37.115433" lon="-3.424018">
        <ele>2167.851</ele>
        <time>2018-09-22T10:47:03Z</time>
      </trkpt>
      <trkpt lat="37.11487" lon="-3.422202"/>
      <trkpt lat="37.115509" lon="-3.422095">
        <ele>2180.551</ele>
        <time>2018-09-22T10:48:32Z</time>
      </trkpt>
      <trkpt lat="37.115652" lon="-3.421621">
        <ele>2184.132</ele>
        <time>2018-09-22T10:48:50Z</time>
      </trkpt>
      <trkpt lat="37.115393" lon="-3.421379">
        <ele>2186.292</ele>
        <time>2018-09-22T10:49:04Z</time>
      </trkpt>
      <trkpt lat="37.114956" lon="-3.421534">
        <ele>2188.211</ele>
        <time>2018-09-22T10:49:23Z</time>
      </trkpt>
      <trkpt lat="37.114694" lon="-3.42139"/>
      <trkpt lat="37.112979" lon="-3.418941">
        <ele>2208.565</ele>
        <time>2018-09-22T10:51:40Z</time>
      </trkpt>
      <trkpt lat="37.11269" lon="-3.41804"/>
      <trkpt lat="37.111736" lon="-3.417614">
        <ele>2222.092</ele>
        <time>2018-09-22T10:53:07Z</time>
      </trkpt>
      <trkpt lat="37.111465" lon="-3.417191">
        <ele>2226.193</ele>
        <time>2018-09-22T10:53:28Z</time>
      </trkpt>
      <trkpt lat="37.110895" lon="-3.41428"/>
      <trkpt lat="37.111113" lon="-3.412324">
        <ele>2263.939</ele>
        <time>2018-09-22T10:56:31Z</time>
      </trkpt>
      <trkpt lat="37.111034" lon="-3.410555">
        <ele>2272.926</ele>
        <time>2018-09-22T10:57:35Z</time>
      </trkpt>
      <trkpt lat="37.110693" lon="-3.409363">
        <ele>2280.059</ele>
        <time>2018-09-22T10:58:23Z</time>
      </trkpt>
      <trkpt lat="37.111012" lon="-3.406759">
        <ele>2298.791</ele>
        <time>2018-09-22T11:00:05Z</time>
      </trkpt>
      <trkpt lat="37.110758" lon="-3.405817">
        <ele>2304.281</ele>
        <time>2018-09-22T11:00:44Z</time>
      </trkpt>
      <trkpt lat="37.110312" lon="-3.405265">
        <ele>2309.019</ele>
        <time>2018-09-22T11:01:14Z</time>
      </trkpt>
      <trkpt lat="37.107516" lon="-3.403585">
        <ele>2331.108</ele>
        <time>2018-09-22T11:03:47Z</time>
      </trkpt>
      <trkpt lat="37.106467" lon="-3.40349"/>
      <trkpt lat="37.105833" lon="-3.403009">
        <ele>2344.077</ele>
        <time>2018-09-22T11:05:12Z</time>
      </trkpt>
      <trkpt lat="37.103698" lon="-3.399632">
        <ele>2371.088</ele>
        <time>2018-09-22T11:07:51Z</time>
      </trkpt>
      <trkpt lat="37.103048" lon="-3.397888">
        <ele>2382.329</ele>
        <time>2018-09-22T11:09:02Z</time>
      </trkpt>
      <trkpt lat="37.101872" lon="-3.396509">
        <ele>2389.479</ele>
        <time>2018-09-22T11:10:12Z</time>
      </trkpt>
      <trkpt lat="37.101275" lon="-3.395022">
        <ele>2399.965</ele>
        <time>2018-09-22T11:11:16Z</time>
      </trkpt>
      <trkpt lat="37.100423" lon="-3.393829">
        <ele>2409.152</ele>
        <time>2018-09-22T11:12:16Z</time>
      </trkpt>
      <trkpt lat="37.099178" lon="-3.391497">
        <ele>2427.765</ele>
        <time>2018-09-22T11:14:02Z</time>
      </trkpt>
      <trkpt lat="37.097369" lon="-3.390175">
        <ele>2441.823</ele>
        <time>2018-09-22T11:15:39Z</time>
      </trkpt>
      <trkpt lat="37.096357" lon="-3.388974">
        <ele>2453.783</ele>
        <time>2018-09-22T11:16:45Z</time>
      </trkpt>
      <trkpt lat="37.09551" lon="-3.388886"/>
      <trkpt lat="37.094544" lon="-3.388475">
        <ele>2469.108</ele>
        <time>2018-09-22T11:18:15Z</time>
      </trkpt>
      <trkpt lat="37.093343" lon="-3.388482">
        <ele>2477.154</ele>
        <time>2018-09-22T11:19:08Z</time>
      </trkpt>
      <trkpt lat="37.092006" lon="-3.387898">
        <ele>2488.660</ele>
        <time>2018-09-22T11:20:11Z</time>
      </trkpt>
      <trkpt lat="37.092068" lon="-3.38753"/>
      <trkpt lat="37.092947" lon="-3.387653">
        <ele>2507.372</ele>
        <time>2018-09-22T11:21:10Z</time>
      </trkpt>
      <trkpt lat="37.093709" lon="-3.387043">
        <ele>2516.142</ele>
        <time>2018-09-22T11:21:52Z</time>
      </trkpt>
      <trkpt lat="37.093734" lon="-3.386646">
        <ele>2518.178</ele>
        <time>2018-09-22T11:22:07Z</time>
      </trkpt>
      <trkpt lat="37.094014" lon="-3.386364">
        <ele>2512.255</ele>
        <time>2018-09-22T11:30:46Z</time>
      </trkpt>
      <trkpt lat="37.09381" lon="-3.386461"/>
      <trkpt lat="37.093736" lon="-3.385321">
        <ele>2525.529</ele>
        <time>2018-09-22T11:34:07Z</time>
      </trkpt>
      <trkpt lat="37.09407" lon="-3.384797"/>
      <trkpt lat="37.093912" lon="-3.384418">
        <ele>2527.820</ele>
        <time>2018-09-22T11:34:51Z</time>
      </trkpt>
      <trkpt lat="37.093634" lon="-3.384445">
        <ele>2529.008</ele>
        <time>2018-09-22T11:35:06Z</time>
      </trkpt>
      <trkpt lat="37.092529" lon="-3.385419">
        <ele>2533.184</ele>
        <time>2018-09-22T11:36:25Z</time>
      </trkpt>
      <trkpt lat="37.091562" lon="-3.385721">
        <ele>2538.430</ele>
        <time>2018-09-22T11:37:15Z</time>
      </trkpt>
      <trkpt lat="37.091494" lon="-3.385306">
        <ele>2545.031</ele>
        <time>2018-09-22T11:37:33Z</time>
      </trkpt>
      <trkpt lat="37.091961" lon="-3.384866">
        <ele>2551.392</ele>
        <time>2018-09-22T11:38:02Z</time>
      </trkpt>
      <trkpt lat="37.09205" lon="-3.384433"/>
      <trkpt lat="37.091522" lon="-3.382774">
        <ele>2563.918</ele>
        <time>2018-09-22T11:39:34Z</time>
      </trkpt>
      <trkpt lat="37.091207" lon="-3.382898">
        <ele>2565.045</ele>
        <time>2018-09-22T11:39:52Z</time>
      </trkpt>
      <trkpt lat="37.091244" lon="-3.383522">
        <ele>2567.278</ele>
        <time>2018-09-22T11:40:14Z</time>
      </trkpt>
      <trkpt lat="37.091051" lon="-3.383974">
        <ele>2570.522</ele>
        <time>2018-09-22T11:40:33Z</time>
      </trkpt>
      <trkpt lat="37.089911" lon="-3.384227">
        <ele>2575.562</ele>
        <time>2018-09-22T11:41:28Z</time>
      </trkpt>
      <trkpt lat="37.089784" lon="-3.383952">
        <ele>2580.608</ele>
        <time>2018-09-22T11:41:43Z</time>
      </trkpt>
      <trkpt lat="37.090173" lon="-3.383402">
        <ele>2587.308</ele>
        <time>2018-09-22T11:42:13Z</time>
      </trkpt>
      <trkpt lat="37.090088" lon="-3.383007">
        <ele>2592.464</ele>
        <time>2018-09-22T11:42:31Z</time>
      </trkpt>
      <trkpt lat="37.088594" lon="-3.383066">
        <ele>2602.330</ele>
        <time>2018-09-22T11:43:45Z</time>
      </trkpt>
      <trkpt lat="37.087816" lon="-3.382722">
        <ele>2613.931</ele>
        <time>2018-09-22T11:44:27Z</time>
      </trkpt>
      <trkpt lat="37.086981" lon="-3.382696">
        <ele>2617.882</ele>
        <time>2018-09-22T11:45:09Z</time>
      </trkpt>
      <trkpt lat="37.085413" lon="-3.37999"/>
      <trkpt lat="37.085248" lon="-3.380228">
        <ele>2642.338</ele>
        <time>2018-09-22T11:47:39Z</time>
      </trkpt>
      <trkpt lat="37.085522" lon="-3.380722">
        <ele>2644.525</ele>
        <time>2018-09-22T11:48:03Z</time>
      </trkpt>
      <trkpt lat="37.085322" lon="-3.381733">
        <ele>2653.978</ele>
        <time>2018-09-22T11:48:45Z</time>
      </trkpt>
      <trkpt lat="37.085029" lon="-3.381813">
        <ele>2656.885</ele>
        <time>2018-09-22T11:48:59Z</time>
      </trkpt>
      <trkpt lat="37.084648" lon="-3.380933">
        <ele>2661.589</ele>
        <time>2018-09-22T11:49:38Z</time>
      </trkpt>
      <trkpt lat="37.084404" lon="-3.379743">
        <ele>2667.517</ele>
        <time>2018-09-22T11:50:26Z</time>
      </trkpt>
      <trkpt lat="37.084205" lon="-3.379786">
        <ele>2668.708</ele>
        <time>2018-09-22T11:50:38Z</time>
      </trkpt>
      <trkpt lat="37.08412" lon="-3.38057"/>
      <trkpt lat="37.083753" lon="-3.380769">
        <ele>2673.266</ele>
        <time>2018-09-22T11:51:27Z</time>
      </trkpt>
      <trkpt lat="37.083392" lon="-3.380412">
        <ele>2679.667</ele>
        <time>2018-09-22T11:51:49Z</time>
      </trkpt>
      <trkpt lat="37.083568" lon="-3.379451">
        <ele>2682.728</ele>
        <time>2018-09-22T11:52:25Z</time>
      </trkpt>
      <trkpt lat="37.083457" lon="-3.379237">
        <ele>2684.958</ele>
        <time>2018-09-22T11:52:37Z</time>
      </trkpt>
      <trkpt lat="37.082836" lon="-3.379521">
        <ele>2694.364</ele>
        <time>2018-09-22T11:53:13Z</time>
      </trkpt>
      <trkpt lat="37.082168" lon="-3.3794"/>
      <trkpt lat="37.081563" lon="-3.379809">
        <ele>2704.284</ele>
        <time>2018-09-22T11:54:19Z</time>
      </trkpt>
      <trkpt lat="37.081326" lon="-3.379405">
        <ele>2709.553</ele>
        <time>2018-09-22T11:54:40Z</time>
      </trkpt>
      <trkpt lat="37.081754" lon="-3.378868">
        <ele>2715.404</ele>
        <time>2018-09-22T11:55:09Z</time>
      </trkpt>
      <trkpt lat="37.081694" lon="-3.378236">
        <ele>2716.614</ele>
        <time>2018-09-22T11:55:36Z</time>
      </trkpt>
      <trkpt lat="37.081177" lon="-3.378527">
        <ele>2719.508</ele>
        <time>2018-09-22T11:56:06Z</time>
      </trkpt>
      <trkpt lat="37.080009" lon="-3.378371">
        <ele>2728.347</ele>
        <time>2018-09-22T11:57:05Z</time>
      </trkpt>
      <trkpt lat="37.079993" lon="-3.378052">
        <ele>2731.263</ele>
        <time>2018-09-22T11:57:17Z</time>
      </trkpt>
      <trkpt lat="37.080382" lon="-3.377484">
        <ele>2736.394</ele>
        <time>2018-09-22T11:57:44Z</time>
      </trkpt>
      <trkpt lat="37.080294" lon="-3.376317">
        <ele>2745.965</ele>
        <time>2018-09-22T11:58:29Z</time>
      </trkpt>
      <trkpt lat="37.080036" lon="-3.3764"/>
      <trkpt lat="37.079448" lon="-3.377416">
        <ele>2754.261</ele>
        <time>2018-09-22T11:59:32Z</time>
      </trkpt>
      <trkpt lat="37.07849" lon="-3.377962"/>
      <trkpt lat="37.07828" lon="-3.377911"/>
      <trkpt lat="37.078272" lon="-3.377549">
        <ele>2771.737</ele>
        <time>2018-09-22T12:00:50Z</time>
      </trkpt>
      <trkpt lat="37.078688" lon="-3.377214">
        <ele>2775.149</ele>
        <time>2018-09-22T12:01:10Z</time>
      </trkpt>
      <trkpt lat="37.078787" lon="-3.376362">
        <ele>2779.413</ele>
        <time>2018-09-22T12:01:40Z</time>
      </trkpt>
      <trkpt lat="37.079105" lon="-3.375931">
        <ele>2780.808</ele>
        <time>2018-09-22T12:02:01Z</time>
      </trkpt>
      <trkpt lat="37.07902" lon="-3.375726"/>
      <trkpt lat="37.078595" lon="-3.375895">
        <ele>2788.011</ele>
        <time>2018-09-22T12:02:38Z</time>
      </trkpt>
      <trkpt lat="37.078115" lon="-3.376695">
        <ele>2791.432</ele>
        <time>2018-09-22T12:03:20Z</time>
      </trkpt>
      <trkpt lat="37.076476" lon="-3.377719">
        <ele>2805.433</ele>
        <time>2018-09-22T12:05:00Z</time>
      </trkpt>
      <trkpt lat="37.076307" lon="-3.3783"/>
      <trkpt lat="37.076571" lon="-3.378854">
        <ele>2812.969</ele>
        <time>2018-09-22T12:05:54Z</time>
      </trkpt>
      <trkpt lat="37.076509" lon="-3.379126">
        <ele>2814.116</ele>
        <time>2018-09-22T12:06:05Z</time>
      </trkpt>
      <trkpt lat="37.075499" lon="-3.379563">
        <ele>2821.759</ele>
        <time>2018-09-22T12:06:59Z</time>
      </trkpt>
      <trkpt lat="37.073887" lon="-3.379597">
        <ele>2836.491</ele>
        <time>2018-09-22T12:08:29Z</time>
      </trkpt>
      <trkpt lat="37.073946" lon="-3.379354">
        <ele>2839.181</ele>
        <time>2018-09-22T12:08:41Z</time>
      </trkpt>
      <trkpt lat="37.07492" lon="-3.378433"/>
      <trkpt lat="37.074843" lon="-3.378046">
        <ele>2857.908</ele>
        <time>2018-09-22T12:10:08Z</time>
      </trkpt>
      <trkpt lat="37.074237" lon="-3.378472">
        <ele>2862.781</ele>
        <time>2018-09-22T12:10:44Z</time>
      </trkpt>
      <trkpt lat="37.073703" lon="-3.378443">
        <ele>2864.187</ele>
        <time>2018-09-22T12:11:11Z</time>
      </trkpt>
      <trkpt lat="37.072855" lon="-3.378753">
        <ele>2867.828</ele>
        <time>2018-09-22T12:11:54Z</time>
      </trkpt>
      <trkpt lat="37.071879" lon="-3.378455">
        <ele>2881.219</ele>
        <time>2018-09-22T12:12:51Z</time>
      </trkpt>
      <trkpt lat="37.070931" lon="-3.378556">
        <ele>2890.029</ele>
        <time>2018-09-22T12:13:39Z</time>
      </trkpt>
      <trkpt lat="37.069535" lon="-3.377947">
        <ele>2906.365</ele>
        <time>2018-09-22T12:14:54Z</time>
      </trkpt>
      <trkpt lat="37.067577" lon="-3.376113">
        <ele>2926.792</ele>
        <time>2018-09-22T12:17:00Z</time>
      </trkpt>
      <trkpt lat="37.067776" lon="-3.37595"/>
      <trkpt lat="37.068166" lon="-3.376332">
        <ele>2939.741</ele>
        <time>2018-09-22T12:17:42Z</time>
      </trkpt>
      <trkpt lat="37.069233" lon="-3.376753">
        <ele>2945.081</ele>
        <time>2018-09-22T12:18:42Z</time>
      </trkpt>
      <trkpt lat="37.069593" lon="-3.376452">
        <ele>2945.309</ele>
        <time>2018-09-22T12:19:06Z</time>
      </trkpt>
      <trkpt lat="37.069667" lon="-3.375609">
        <ele>2943.608</ele>
        <time>2018-09-22T12:19:40Z</time>
      </trkpt>
      <trkpt lat="37.069436" lon="-3.375646">
        <ele>2950.286</ele>
        <time>2018-09-22T12:19:55Z</time>
      </trkpt>
      <trkpt lat="37.069249" lon="-3.376177">
        <ele>2954.092</ele>
        <time>2018-09-22T12:20:23Z</time>
      </trkpt>
      <trkpt lat="37.06894" lon="-3.376232"/>
      <trkpt lat="37.068288" lon="-3.375747">
        <ele>2975.124</ele>
        <time>2018-09-22T12:21:20Z</time>
      </trkpt>
      <trkpt lat="37.067803" lon="-3.374935">
        <ele>2979.944</ele>
        <time>2018-09-22T12:22:08Z</time>
      </trkpt>
      <trkpt lat="37.067052" lon="-3.37446"/>
      <trkpt lat="37.066399" lon="-3.374329">
        <ele>2994.447</ele>
        <time>2018-09-22T12:23:36Z</time>
      </trkpt>
      <trkpt lat="37.066245" lon="-3.374128">
        <ele>2995.850</ele>
        <time>2018-09-22T12:23:48Z</time>
      </trkpt>
      <trkpt lat="37.066465" lon="-3.373901">
        <ele>2996.834</ele>
        <time>2018-09-22T12:24:06Z</time>
      </trkpt>
      <trkpt lat="37.067897" lon="-3.374269">
        <ele>3002.555</ele>
        <time>2018-09-22T12:25:20Z</time>
      </trkpt>
      <trkpt lat="37.06815" lon="-3.373834"/>
      <trkpt lat="37.067484" lon="-3.37397"/>
      <trkpt lat="37.06693" lon="-3.373241"/>
      <trkpt lat="37.064767" lon="-3.372806">
        <ele>3039.211</ele>
        <time>2018-09-22T12:34:18Z</time>
      </trkpt>
      <trkpt lat="37.064113" lon="-3.372846">
        <ele>3051.882</ele>
        <time>2018-09-22T12:34:58Z</time>
      </trkpt>
      <trkpt lat="37.063347" lon="-3.372411">
        <ele>3055.353</ele>
        <time>2018-09-22T12:35:40Z</time>
      </trkpt>
      <trkpt lat="37.062379" lon="-3.372364">
        <ele>3061.613</ele>
        <time>2018-09-22T12:36:36Z</time>
      </trkpt>
      <trkpt lat="37.062441" lon="-3.372083">
        <ele>3064.869</ele>
        <time>2018-09-22T12:36:53Z</time>
      </trkpt>
      <trkpt lat="37.063622" lon="-3.371423">
        <ele>3082.036</ele>
        <time>2018-09-22T12:38:13Z</time>
      </trkpt>
      <trkpt lat="37.064535" lon="-3.371563">
        <ele>3082.969</ele>
        <time>2018-09-22T12:39:03Z</time>
      </trkpt>
      <trkpt lat="37.065506" lon="-3.37105"/>
      <trkpt lat="37.066242" lon="-3.369873">
        <ele>3105.104</ele>
        <time>2018-09-22T12:41:05Z</time>
      </trkpt>
      <trkpt lat="37.06614" lon="-3.369615"/>
      <trkpt lat="37.065064" lon="-3.369599">
        <ele>3112.808</ele>
        <time>2018-09-22T12:42:29Z</time>
      </trkpt>
      <trkpt lat="37.063437" lon="-3.370372">
        <ele>3127.627</ele>
        <time>2018-09-22T12:44:55Z</time>
      </trkpt>
      <trkpt lat="37.062418" lon="-3.370208">
        <ele>3136.243</ele>
        <time>2018-09-22T12:45:55Z</time>
      </trkpt>
      <trkpt lat="37.060304" lon="-3.371598">
        <ele>3154.274</ele>
        <time>2018-09-22T12:48:10Z</time>
      </trkpt>
      <trkpt lat="37.058611" lon="-3.372235">
        <ele>3173.085</ele>
        <time>2018-09-22T12:50:02Z</time>
      </trkpt>
      <trkpt lat="37.057277" lon="-3.372102">
        <ele>3182.565</ele>
        <time>2018-09-22T12:51:26Z</time>
      </trkpt>
      <trkpt lat="37.054525" lon="-3.371169">
        <ele>3207.651</ele>
        <time>2018-09-22T12:54:20Z</time>
      </trkpt>
      <trkpt lat="37.053109" lon="-3.371279">
        <ele>3220.338</ele>
        <time>2018-09-22T12:55:41Z</time>
      </trkpt>
      <trkpt lat="37.052313" lon="-3.371563">
        <ele>3227.041</ele>
        <time>2018-09-22T12:56:29Z</time>
      </trkpt>
      <trkpt lat="37.051411" lon="-3.371493">
        <ele>3234.071</ele>
        <time>2018-09-22T12:57:46Z</time>
      </trkpt>
      <trkpt lat="37.050976" lon="-3.3707"/>
      <trkpt lat="37.051471" lon="-3.370874">
        <ele>3245.915</ele>
        <time>2018-09-22T12:59:15Z</time>
      </trkpt>
      <trkpt lat="37.052296" lon="-3.370509">
        <ele>3255.908</ele>
        <time>2018-09-22T13:00:16Z</time>
      </trkpt>
      <trkpt lat="37.052293" lon="-3.370278">
        <ele>3256.469</ele>
        <time>2018-09-22T13:00:29Z</time>
      </trkpt>
      <trkpt lat="37.051985" lon="-3.369954">
        <ele>3260.365</ele>
        <time>2018-09-22T13:00:53Z</time>
      </trkpt>
      <trkpt lat="37.052049" lon="-3.36972"/>
      <trkpt lat="37.053362" lon="-3.37003"/>
      <trkpt lat="37.054969" lon="-3.36924"/>
      <trkpt lat="37.056309" lon="-3.369115">
        <ele>3291.723</ele>
        <time>2018-09-22T13:05:44Z</time>
      </trkpt>
      <trkpt lat="37.056745" lon="-3.368874">
        <ele>3295.230</ele>
        <time>2018-09-22T13:06:14Z</time>
      </trkpt>
      <trkpt lat="37.056721" lon="-3.368715">
        <ele>3298.443</ele>
        <time>2018-09-22T13:06:26Z</time>
      </trkpt>
      <trkpt lat="37.055781" lon="-3.36852"/>
      <trkpt lat="37.054502" lon="-3.367584">
        <ele>3324.261</ele>
        <time>2018-09-22T13:09:09Z</time>
      </trkpt>
      <trkpt lat="37.054616" lon="-3.367417">
        <ele>3326.907</ele>
        <time>2018-09-22T13:09:24Z</time>
      </trkpt>
      <trkpt lat="37.057038" lon="-3.367667">
        <ele>3345.008</ele>
        <time>2018-09-22T13:12:27Z</time>
      </trkpt>
      <trkpt lat="37.056865" lon="-3.36709"/>
      <trkpt lat="37.055446" lon="-3.366187">
        <ele>3378.021</ele>
        <time>2018-09-22T13:15:07Z</time>
      </trkpt>
      <trkpt lat="37.055921" lon="-3.366029">
        <ele>3386.552</ele>
        <time>2018-09-22T13:17:14Z</time>
      </trkpt>
      <trkpt lat="37.056034" lon="-3.365723">
        <ele>3394.573</ele>
        <time>2018-09-22T13:28:37Z</time>
      </trkpt>
      <trkpt lat="37.056004" lon="-3.365935">
        <ele>3386.663</ele>
        <time>2018-09-22T13:34:46Z</time>
      </trkpt>
      <trkpt lat="37.055473" lon="-3.366213">
        <ele>3381.269</ele>
        <time>2018-09-22T13:36:28Z</time>
      </trkpt>
      <trkpt lat="37.056929" lon="-3.367129">
        <ele>3355.156</ele>
        <time>2018-09-22T13:37:32Z</time>
      </trkpt>
      <trkpt lat="37.057041" lon="-3.367688">
        <ele>3345.489</ele>
        <time>2018-09-22T13:37:41Z</time>
      </trkpt>
      <trkpt lat="37.054575" lon="-3.36743"/>
      <trkpt lat="37.054475" lon="-3.367562">
        <ele>3322.241</ele>
        <time>2018-09-22T13:38:17Z</time>
      </trkpt>
      <trkpt lat="37.056032" lon="-3.368693">
        <ele>3313.005</ele>
        <time>2018-09-22T13:38:45Z</time>
      </trkpt>
      <trkpt lat="37.056837" lon="-3.368816">
        <ele>3302.208</ele>
        <time>2018-09-22T13:39:02Z</time>
      </trkpt>
      <trkpt lat="37.056341" lon="-3.369077">
        <ele>3296.314</ele>
        <time>2018-09-22T13:39:12Z</time>
      </trkpt>
      <trkpt lat="37.055159" lon="-3.369178">
        <ele>3289.040</ele>
        <time>2018-09-22T13:39:29Z</time>
      </trkpt>
      <trkpt lat="37.053281" lon="-3.370056">
        <ele>3272.521</ele>
        <time>2018-09-22T13:39:51Z</time>
      </trkpt>
      <trkpt lat="37.052082" lon="-3.369707">
        <ele>3264.422</ele>
        <time>2018-09-22T13:40:13Z</time>
      </trkpt>
      <trkpt lat="37.051946" lon="-3.369895">
        <ele>3261.942</ele>
        <time>2018-09-22T13:40:19Z</time>
      </trkpt>
      <trkpt lat="37.052293" lon="-3.370264">
        <ele>3260.558</ele>
        <time>2018-09-22T13:40:32Z</time>
      </trkpt>
      <trkpt lat="37.052276" lon="-3.37055"/>
      <trkpt lat="37.05143" lon="-3.370878"/>
      <trkpt lat="37.05094" lon="-3.370796"/>
      <trkpt lat="37.051326" lon="-3.37147"/>
      <trkpt lat="37.051706" lon="-3.371636">
        <ele>3232.311</ele>
        <time>2018-09-22T13:42:22Z</time>
      </trkpt>
      <trkpt lat="37.053269" lon="-3.371272">
        <ele>3217.608</ele>
        <time>2018-09-22T13:42:50Z</time>
      </trkpt>
      <trkpt lat="37.054803" lon="-3.371233">
        <ele>3201.868</ele>
        <time>2018-09-22T13:43:14Z</time>
      </trkpt>
      <trkpt lat="37.053386" lon="-3.37152"/>
      <trkpt lat="37.051498" lon="-3.372449">
        <ele>3204.615</ele>
        <time>2018-09-22T13:45:04Z</time>
      </trkpt>
      <trkpt lat="37.049862" lon="-3.37188"/>
      <trkpt lat="37.049413" lon="-3.371433">
        <ele>3195.996</ele>
        <time>2018-09-22T13:45:57Z</time>
      </trkpt>
      <trkpt lat="37.049417" lon="-3.37117"/>
      <trkpt lat="37.050158" lon="-3.370675">
        <ele>3195.949</ele>
        <time>2018-09-22T13:46:32Z</time>
      </trkpt>
      <trkpt lat="37.051009" lon="-3.369674">
        <ele>3190.222</ele>
        <time>2018-09-22T13:46:59Z</time>
      </trkpt>
      <trkpt lat="37.051331" lon="-3.368494">
        <ele>3189.118</ele>
        <time>2018-09-22T13:47:19Z</time>
      </trkpt>
      <trkpt lat="37.05118" lon="-3.368189"/>
      <trkpt lat="37.050388" lon="-3.369212">
        <ele>3169.717</ele>
        <time>2018-09-22T13:47:55Z</time>
      </trkpt>
      <trkpt lat="37.049052" lon="-3.370269">
        <ele>3154.108</ele>
        <time>2018-09-22T13:48:42Z</time>
      </trkpt>
      <trkpt lat="37.047761" lon="-3.37029"/>
      <trkpt lat="37.047827" lon="-3.370127">
        <ele>3136.269</ele>
        <time>2018-09-22T13:49:26Z</time>
      </trkpt>
      <trkpt lat="37.048715" lon="-3.369962">
        <ele>3126.310</ele>
        <time>2018-09-22T13:50:05Z</time>
      </trkpt>
      <trkpt lat="37.049712" lon="-3.369191">
        <ele>3118.541</ele>
        <time>2018-09-22T13:50:31Z</time>
      </trkpt>
      <trkpt lat="37.050981" lon="-3.367504">
        <ele>3117.971</ele>
        <time>2018-09-22T13:51:36Z</time>
      </trkpt>
      <trkpt lat="37.051128" lon="-3.366769">
        <ele>3132.017</ele>
        <time>2018-09-22T13:52:00Z</time>
      </trkpt>
      <trkpt lat="37.051701" lon="-3.366313">
        <ele>3129.614</ele>
        <time>2018-09-22T13:52:31Z</time>
      </trkpt>
      <trkpt lat="37.051775" lon="-3.365163">
        <ele>3141.167</ele>
        <time>2018-09-22T13:53:11Z</time>
      </trkpt>
      <trkpt lat="37.05256" lon="-3.364252"/>
      <trkpt lat="37.05182" lon="-3.362346"/>
      <trkpt lat="37.051904" lon="-3.361124">
        <ele>3156.922</ele>
        <time>2018-09-22T13:59:06Z</time>
      </trkpt>
      <trkpt lat="37.052837" lon="-3.360404">
        <ele>3150.008</ele>
        <time>2018-09-22T14:00:19Z</time>
      </trkpt>
      <trkpt lat="37.054667" lon="-3.357672">
        <ele>3134.256</ele>
        <time>2018-09-22T14:01:05Z</time>
      </trkpt>
      <trkpt lat="37.054989" lon="-3.35592"/>
      <trkpt lat="37.055601" lon="-3.354452">
        <ele>3127.873</ele>
        <time>2018-09-22T14:01:48Z</time>
      </trkpt>
      <trkpt lat="37.055653" lon="-3.353716">
        <ele>3126.734</ele>
        <time>2018-09-22T14:01:58Z</time>
      </trkpt>
      <trkpt lat="37.055504" lon="-3.353116">
        <ele>3124.954</ele>
        <time>2018-09-22T14:02:06Z</time>
      </trkpt>
      <trkpt lat="37.054732" lon="-3.35246"/>
      <trkpt lat="37.054179" lon="-3.351512">
        <ele>3122.697</ele>
        <time>2018-09-22T14:02:35Z</time>
      </trkpt>
      <trkpt lat="37.053916" lon="-3.350502">
        <ele>3118.180</ele>
        <time>2018-09-22T14:02:47Z</time>
      </trkpt>
      <trkpt lat="37.052821" lon="-3.349425">
        <ele>3116.679</ele>
        <time>2018-09-22T14:04:35Z</time>
      </trkpt>
      <trkpt lat="37.053684" lon="-3.347407">
        <ele>3097.805</ele>
        <time>2018-09-22T14:05:13Z</time>
      </trkpt>
      <trkpt lat="37.05392" lon="-3.345387"/>
      <trkpt lat="37.053895" lon="-3.342315">
        <ele>3069.908</ele>
        <time>2018-09-22T14:06:24Z</time>
      </trkpt>
      <trkpt lat="37.054101" lon="-3.340882">
        <ele>3072.399</ele>
        <time>2018-09-22T14:07:04Z</time>
      </trkpt>
      <trkpt lat="37.05383" lon="-3.337705"/>
      <trkpt lat="37.053286" lon="-3.335884">
        <ele>3099.056</ele>
        <time>2018-09-22T14:10:14Z</time>
      </trkpt>
      <trkpt lat="37.052859" lon="-3.335235">
        <ele>3105.437</ele>
        <time>2018-09-22T14:10:53Z</time>
      </trkpt>
      <trkpt lat="37.051949" lon="-3.334779">
        <ele>3110.987</ele>
        <time>2018-09-22T14:11:38Z</time>
      </trkpt>
      <trkpt lat="37.049819" lon="-3.334718">
        <ele>3109.753</ele>
        <time>2018-09-22T14:12:48Z</time>
      </trkpt>
      <trkpt lat="37.04911" lon="-3.334495"/>
      <trkpt lat="37.046643" lon="-3.334642">
        <ele>3092.613</ele>
        <time>2018-09-22T14:13:41Z</time>
      </trkpt>
      <trkpt lat="37.046107" lon="-3.334432">
        <ele>3087.548</ele>
        <time>2018-09-22T14:13:48Z</time>
      </trkpt>
      <trkpt lat="37.045945" lon="-3.334075">
        <ele>3085.561</ele>
        <time>2018-09-22T14:13:54Z</time>
      </trkpt>
      <trkpt lat="37.047418" lon="-3.332705">
        <ele>3075.817</ele>
        <time>2018-09-22T14:14:26Z</time>
      </trkpt>
      <trkpt lat="37.04751" lon="-3.331725"/>
      <trkpt lat="37.047936" lon="-3.330699">
        <ele>3060.266</ele>
        <time>2018-09-22T14:14:57Z</time>
      </trkpt>
      <trkpt lat="37.048919" lon="-3.330212">
        <ele>3050.352</ele>
        <time>2018-09-22T14:15:21Z</time>
      </trkpt>
      <trkpt lat="37.049583" lon="-3.330173">
        <ele>3046.983</ele>
        <time>2018-09-22T14:15:46Z</time>
      </trkpt>
      <trkpt lat="37.050131" lon="-3.329785">
        <ele>3048.714</ele>
        <time>2018-09-22T14:16:03Z</time>
      </trkpt>
      <trkpt lat="37.050499" lon="-3.329786">
        <ele>3047.294</ele>
        <time>2018-09-22T14:16:12Z</time>
      </trkpt>
      <trkpt lat="37.051912" lon="-3.328595">
        <ele>3037.650</ele>
        <time>2018-09-22T14:16:38Z</time>
      </trkpt>
      <trkpt lat="37.053079" lon="-3.328648">
        <ele>3030.757</ele>
        <time>2018-09-22T14:16:57Z</time>
      </trkpt>
      <trkpt lat="37.053703" lon="-3.327549">
        <ele>3032.990</ele>
        <time>2018-09-22T14:17:27Z</time>
      </trkpt>
      <trkpt lat="37.053938" lon="-3.327509">
        <ele>3038.882</ele>
        <time>2018-09-22T14:23:05Z</time>
      </trkpt>
      <trkpt lat="37.053725" lon="-3.326703">
        <ele>3041.343</ele>
        <time>2018-09-22T14:26:00Z</time>
      </trkpt>
      <trkpt lat="37.053116" lon="-3.326226">
        <ele>3040.217</ele>
        <time>2018-09-22T14:26:17Z</time>
      </trkpt>
      <trkpt lat="37.053037" lon="-3.325917">
        <ele>3040.108</ele>
        <time>2018-09-22T14:26:23Z</time>
      </trkpt>
      <trkpt lat="37.05414" lon="-3.324951"/>
      <trkpt lat="37.054574" lon="-3.32427"/>
      <trkpt lat="37.053782" lon="-3.323263">
        <ele>3049.877</ele>
        <time>2018-09-22T14:28:20Z</time>
      </trkpt>
      <trkpt lat="37.052331" lon="-3.322111">
        <ele>3044.048</ele>
        <time>2018-09-22T14:29:00Z</time>
      </trkpt>
      <trkpt lat="37.049415" lon="-3.320551">
        <ele>3030.688</ele>
        <time>2018-09-22T14:29:42Z</time>
      </trkpt>
      <trkpt lat="37.047596" lon="-3.320067">
        <ele>3031.694</ele>
        <time>2018-09-22T14:30:16Z</time>
      </trkpt>
      <trkpt lat="37.046564" lon="-3.320546">
        <ele>3021.561</ele>
        <time>2018-09-22T14:30:36Z</time>
      </trkpt>
      <trkpt lat="37.045483" lon="-3.320667">
        <ele>3006.224</ele>
        <time>2018-09-22T14:30:55Z</time>
      </trkpt>
      <trkpt lat="37.043651" lon="-3.319854">
        <ele>2994.692</ele>
        <time>2018-09-22T14:31:29Z</time>
      </trkpt>
      <trkpt lat="37.042533" lon="-3.320029">
        <ele>2983.473</ele>
        <time>2018-09-22T14:31:51Z</time>
      </trkpt>
      <trkpt lat="37.040752" lon="-3.319372">
        <ele>2966.820</ele>
        <time>2018-09-22T14:32:20Z</time>
      </trkpt>
      <trkpt lat="37.038225" lon="-3.319193">
        <ele>2941.308</ele>
        <time>2018-09-22T14:33:11Z</time>
      </trkpt>
      <trkpt lat="37.037883" lon="-3.318685">
        <ele>2937.761</ele>
        <time>2018-09-22T14:33:20Z</time>
      </trkpt>
      <trkpt lat="37.034868" lon="-3.316146">
        <ele>2912.947</ele>
        <time>2018-09-22T14:34:20Z</time>
      </trkpt>
      <trkpt lat="37.033862" lon="-3.315868">
        <ele>2903.538</ele>
        <time>2018-09-22T14:34:39Z</time>
      </trkpt>
      <trkpt lat="37.032207" lon="-3.314837">
        <ele>2885.659</ele>
        <time>2018-09-22T14:35:11Z</time>
      </trkpt>
      <trkpt lat="37.030849" lon="-3.311721">
        <ele>2873.049</ele>
        <time>2018-09-22T14:36:30Z</time>
      </trkpt>
      <trkpt lat="37.029849" lon="-3.310465">
        <ele>2862.425</ele>
        <time>2018-09-22T14:36:54Z</time>
      </trkpt>
      <trkpt lat="37.02777" lon="-3.309025"/>
      <trkpt lat="37.026342" lon="-3.307727">
        <ele>2828.785</ele>
        <time>2018-09-22T14:37:46Z</time>
      </trkpt>
      <trkpt lat="37.025108" lon="-3.306151">
        <ele>2806.219</ele>
        <time>2018-09-22T14:56:53Z</time>
      </trkpt>
      <trkpt lat="37.02402" lon="-3.305666"/>
      <trkpt lat="37.022519" lon="-3.306125">
        <ele>2783.619</ele>
        <time>2018-09-22T14:57:31Z</time>
      </trkpt>
      <trkpt lat="37.021636" lon="-3.306062">
        <ele>2775.708</ele>
        <time>2018-09-22T14:57:47Z</time>
      </trkpt>
      <trkpt lat="37.01877" lon="-3.305094"/>
      <trkpt lat="37.009072" lon="-3.30259"/>
      <trkpt lat="37.008702" lon="-3.302786">
        <ele>2681.550</ele>
        <time>2018-09-22T15:00:35Z</time>
      </trkpt>
      <trkpt lat="37.005739" lon="-3.307536">
        <ele>2648.051</ele>
        <time>2018-09-22T15:01:18Z</time>
      </trkpt>
      <trkpt lat="37.00292" lon="-3.308233"/>
      <trkpt lat="37.002607" lon="-3.309157">
        <ele>2621.387</ele>
        <time>2018-09-22T15:01:52Z</time>
      </trkpt>
      <trkpt lat="37.002807" lon="-3.309889">
        <ele>2614.024</ele>
        <time>2018-09-22T15:02:01Z</time>
      </trkpt>
      <trkpt lat="37.002601" lon="-3.310103">
        <ele>2610.317</ele>
        <time>2018-09-22T15:02:05Z</time>
      </trkpt>
      <trkpt lat="37.001303" lon="-3.309575">
        <ele>2599.266</ele>
        <time>2018-09-22T15:02:21Z</time>
      </trkpt>
      <trkpt lat="36.999091" lon="-3.310567">
        <ele>2591.229</ele>
        <time>2018-09-22T15:03:40Z</time>
      </trkpt>
      <trkpt lat="36.997891" lon="-3.31201"/>
      <trkpt lat="36.996133" lon="-3.312187">
        <ele>2575.908</ele>
        <time>2018-09-22T15:04:50Z</time>
      </trkpt>
      <trkpt lat="36.995629" lon="-3.311977">
        <ele>2575.238</ele>
        <time>2018-09-22T15:04:56Z</time>
      </trkpt>
      <trkpt lat="36.994443" lon="-3.312258">
        <ele>2572.444</ele>
        <time>2018-09-22T15:05:08Z</time>
      </trkpt>
      <trkpt lat="36.993555" lon="-3.312053">
        <ele>2566.385</ele>
        <time>2018-09-22T15:05:17Z</time>
      </trkpt>
      <trkpt lat="36.992543" lon="-3.312504">
        <ele>2558.896</ele>
        <time>2018-09-22T15:05:27Z</time>
      </trkpt>
      <trkpt lat="36.991315" lon="-3.31148"/>
      <trkpt lat="36.990753" lon="-3.311299">
        <ele>2541.152</ele>
        <time>2018-09-22T15:05:47Z</time>
      </trkpt>
      <trkpt lat="36.989843" lon="-3.311362">
        <ele>2531.079</ele>
        <time>2018-09-22T15:05:56Z</time>
      </trkpt>
      <trkpt lat="36.98904" lon="-3.312129"/>
      <trkpt lat="36.988606" lon="-3.312836">
        <ele>2516.255</ele>
        <time>2018-09-22T15:06:11Z</time>
      </trkpt>
      <trkpt lat="36.987222" lon="-3.313807">
        <ele>2504.007</ele>
        <time>2018-09-22T15:06:23Z</time>
      </trkpt>
      <trkpt lat="36.98572" lon="-3.314395"/>
      <trkpt lat="36.984268" lon="-3.316149">
        <ele>2480.508</ele>
        <time>2018-09-22T15:06:50Z</time>
      </trkpt>
      <trkpt lat="36.980576" lon="-3.324177">
        <ele>2423.657</ele>
        <time>2018-09-22T15:07:46Z</time>
      </trkpt>
      <trkpt lat="36.979613" lon="-3.324942">
        <ele>2415.243</ele>
        <time>2018-09-22T15:07:56Z</time>
      </trkpt>
      <trkpt lat="36.979326" lon="-3.326922">
        <ele>2401.854</ele>
        <time>2018-09-22T15:08:10Z</time>
      </trkpt>
      <trkpt lat="36.979693" lon="-3.329379">
        <ele>2383.365</ele>
        <time>2018-09-22T15:11:13Z</time>
      </trkpt>
      <trkpt lat="36.979261" lon="-3.329988">
        <ele>2376.885</ele>
        <time>2018-09-22T15:11:22Z</time>
      </trkpt>
      <trkpt lat="36.978277" lon="-3.328758">
        <ele>2367.521</ele>
        <time>2018-09-22T15:11:39Z</time>
      </trkpt>
      <trkpt lat="36.977598" lon="-3.325246">
        <ele>2344.248</ele>
        <time>2018-09-22T15:12:07Z</time>
      </trkpt>
      <trkpt lat="36.977609" lon="-3.321826">
        <ele>2326.681</ele>
        <time>2018-09-22T15:12:34Z</time>
      </trkpt>
      <trkpt lat="36.977001" lon="-3.321057">
        <ele>2318.138</ele>
        <time>2018-09-22T15:12:44Z</time>
      </trkpt>
      <trkpt lat="36.976435" lon="-3.319396">
        <ele>2303.970</ele>
        <time>2018-09-22T15:12:58Z</time>
      </trkpt>
      <trkpt lat="36.976521" lon="-3.317584">
        <ele>2295.617</ele>
        <time>2018-09-22T15:13:11Z</time>
      </trkpt>
      <trkpt lat="36.977036" lon="-3.316426">
        <ele>2296.208</ele>
        <time>2018-09-22T15:13:21Z</time>
      </trkpt>
      <trkpt lat="36.976923" lon="-3.316009">
        <ele>2291.545</ele>
        <time>2018-09-22T15:13:28Z</time>
      </trkpt>
      <trkpt lat="36.97546" lon="-3.317847"/>
      <trkpt lat="36.97499" lon="-3.319234"/>
      <trkpt lat="36.975061" lon="-3.32035"/>
      <trkpt lat="36.974662" lon="-3.321894">
        <ele>2248.483</ele>
        <time>2018-09-22T15:14:23Z</time>
      </trkpt>
      <trkpt lat="36.973392" lon="-3.323015">
        <ele>2236.129</ele>
        <time>2018-09-22T15:14:41Z</time>
      </trkpt>
      <trkpt lat="36.972775" lon="-3.32332"/>
      <trkpt lat="36.971481" lon="-3.324888">
        <ele>2211.389</ele>
        <time>2018-09-22T15:15:05Z</time>
      </trkpt>
      <trkpt lat="36.971038" lon="-3.32501"/>
      <trkpt lat="36.970644" lon="-3.326486">
        <ele>2205.383</ele>
        <time>2018-09-22T15:15:26Z</time>
      </trkpt>
      <trkpt lat="36.970649" lon="-3.32783"/>
      <trkpt lat="36.971496" lon="-3.329285">
        <ele>2191.808</ele>
        <time>2018-09-22T15:15:54Z</time>
      </trkpt>
      <trkpt lat="36.971546" lon="-3.329738">
        <ele>2190.414</ele>
        <time>2018-09-22T15:15:59Z</time>
      </trkpt>
      <trkpt lat="36.971164" lon="-3.330205">
        <ele>2190.830</ele>
        <time>2018-09-22T15:16:07Z</time>
      </trkpt>
      <trkpt lat="36.969887" lon="-3.330669">
        <ele>2187.971</ele>
        <time>2018-09-22T15:16:23Z</time>
      </trkpt>
      <trkpt lat="36.969021" lon="-3.332146">
        <ele>2181.822</ele>
        <time>2018-09-22T15:16:37Z</time>
      </trkpt>
      <trkpt lat="36.968534" lon="-3.333669">
        <ele>2167.572</ele>
        <time>2018-09-22T15:16:58Z</time>
      </trkpt>
      <trkpt lat="36.968923" lon="-3.33456"/>
      <trkpt lat="36.969" lon="-3.335237"/>
      <trkpt lat="36.967703" lon="-3.334161">
        <ele>2147.238</ele>
        <time>2018-09-22T15:17:39Z</time>
      </trkpt>
      <trkpt lat="36.966262" lon="-3.332007">
        <ele>2127.647</ele>
        <time>2018-09-22T15:17:59Z</time>
      </trkpt>
      <trkpt lat="36.96607" lon="-3.330643"/>
      <trkpt lat="36.965763" lon="-3.330326">
        <ele>2107.221</ele>
        <time>2018-09-22T15:18:16Z</time>
      </trkpt>
      <trkpt lat="36.965513" lon="-3.330391">
        <ele>2102.908</ele>
        <time>2018-09-22T15:18:19Z</time>
      </trkpt>
      <trkpt lat="36.96533" lon="-3.330753"/>
      <trkpt lat="36.965187" lon="-3.333729">
        <ele>2082.792</ele>
        <time>2018-09-22T15:18:53Z</time>
      </trkpt>
      <trkpt lat="36.966479" lon="-3.336119">
        <ele>2056.183</ele>
        <time>2018-09-22T15:19:18Z</time>
      </trkpt>
      <trkpt lat="36.966237" lon="-3.337166">
        <ele>2049.254</ele>
        <time>2018-09-22T15:19:30Z</time>
      </trkpt>
      <trkpt lat="36.96547" lon="-3.336693"/>
      <trkpt lat="36.963823" lon="-3.336155">
        <ele>2024.430</ele>
        <time>2018-09-22T15:19:57Z</time>
      </trkpt>
      <trkpt lat="36.9628" lon="-3.33529"/>
      <trkpt lat="36.961582" lon="-3.333754">
        <ele>1988.530</ele>
        <time>2018-09-22T15:20:27Z</time>
      </trkpt>
      <trkpt lat="36.961391" lon="-3.335251">
        <ele>1983.685</ele>
        <time>2018-09-22T15:20:44Z</time>
      </trkpt>
      <trkpt lat="36.961594" lon="-3.336073">
        <ele>1980.489</ele>
        <time>2018-09-22T15:20:52Z</time>
      </trkpt>
      <trkpt lat="36.962506" lon="-3.336817">
        <ele>1975.617</ele>
        <time>2018-09-22T15:21:03Z</time>
      </trkpt>
      <trkpt lat="36.963141" lon="-3.337691">
        <ele>1973.308</ele>
        <time>2018-09-22T15:21:13Z</time>
      </trkpt>
      <trkpt lat="36.964284" lon="-3.338278">
        <ele>1968.590</ele>
        <time>2018-09-22T15:21:26Z</time>
      </trkpt>
      <trkpt lat="36.964929" lon="-3.339604">
        <ele>1963.066</ele>
        <time>2018-09-22T15:21:39Z</time>
      </trkpt>
      <trkpt lat="36.966028" lon="-3.340663">
        <ele>1955.167</ele>
        <time>2018-09-22T15:21:53Z</time>
      </trkpt>
      <trkpt lat="36.966525" lon="-3.341789">
        <ele>1952.958</ele>
        <time>2018-09-22T15:22:05Z</time>
      </trkpt>
      <trkpt lat="36.966435" lon="-3.342267">
        <ele>1949.718</ele>
        <time>2018-09-22T15:22:11Z</time>
      </trkpt>
      <trkpt lat="36.966195" lon="-3.342193">
        <ele>1946.834</ele>
        <time>2018-09-22T15:22:16Z</time>
      </trkpt>
      <trkpt lat="36.966007" lon="-3.34157"/>
      <trkpt lat="36.965665" lon="-3.341141">
        <ele>1941.494</ele>
        <time>2018-09-22T15:22:31Z</time>
      </trkpt>
      <trkpt lat="36.964427" lon="-3.340373">
        <ele>1929.341</ele>
        <time>2018-09-22T15:22:47Z</time>
      </trkpt>
      <trkpt lat="36.964164" lon="-3.340471">
        <ele>1925.681</ele>
        <time>2018-09-22T15:22:50Z</time>
      </trkpt>
      <trkpt lat="36.96393" lon="-3.341013"/>
      <trkpt lat="36.963452" lon="-3.34101"/>
      <trkpt lat="36.96301" lon="-3.340351"/>
      <trkpt lat="36.962106" lon="-3.339763">
        <ele>1905.292</ele>
        <time>2018-09-22T15:23:19Z</time>
      </trkpt>
      <trkpt lat="36.957818" lon="-3.339626">
        <ele>1871.713</ele>
        <time>2018-09-22T15:23:57Z</time>
      </trkpt>
      <trkpt lat="36.956256" lon="-3.337883">
        <ele>1857.374</ele>
        <time>2018-09-22T15:24:18Z</time>
      </trkpt>
      <trkpt lat="36.956053" lon="-3.338126">
        <ele>1856.164</ele>
        <time>2018-09-22T15:24:21Z</time>
      </trkpt>
      <trkpt lat="36.956034" lon="-3.338613">
        <ele>1855.450</ele>
        <time>2018-09-22T15:24:25Z</time>
      </trkpt>
      <trkpt lat="36.956611" lon="-3.339123">
        <ele>1853.857</ele>
        <time>2018-09-22T15:24:33Z</time>
      </trkpt>
      <trkpt lat="36.956911" lon="-3.339815">
        <ele>1852.320</ele>
        <time>2018-09-22T15:24:40Z</time>
      </trkpt>
      <trkpt lat="36.957966" lon="-3.340799">
        <ele>1843.999</ele>
        <time>2018-09-22T15:24:53Z</time>
      </trkpt>
      <trkpt lat="36.958592" lon="-3.341792">
        <ele>1836.807</ele>
        <time>2018-09-22T15:25:03Z</time>
      </trkpt>
      <trkpt lat="36.96023" lon="-3.342559"/>
      <trkpt lat="36.960363" lon="-3.342853">
        <ele>1828.308</ele>
        <time>2018-09-22T15:25:26Z</time>
      </trkpt>
      <trkpt lat="36.960268" lon="-3.343138">
        <ele>1826.221</ele>
        <time>2018-09-22T15:25:30Z</time>
      </trkpt>
      <trkpt lat="36.958562" lon="-3.343185">
        <ele>1809.427</ele>
        <time>2018-09-22T15:25:48Z</time>
      </trkpt>
      <trkpt lat="36.958074" lon="-3.343664">
        <ele>1805.028</ele>
        <time>2018-09-22T15:25:55Z</time>
      </trkpt>
      <trkpt lat="36.957331" lon="-3.343577">
        <ele>1795.429</ele>
        <time>2018-09-22T15:26:03Z</time>
      </trkpt>
      <trkpt lat="36.956961" lon="-3.342929">
        <ele>1790.779</ele>
        <time>2018-09-22T15:26:10Z</time>
      </trkpt>
      <trkpt lat="36.956109" lon="-3.34232"/>
      <trkpt lat="36.955132" lon="-3.341974">
        <ele>1774.452</ele>
        <time>2018-09-22T15:26:29Z</time>
      </trkpt>
      <trkpt lat="36.954318" lon="-3.342124">
        <ele>1769.335</ele>
        <time>2018-09-22T15:26:36Z</time>
      </trkpt>
      <trkpt lat="36.953562" lon="-3.341531">
        <ele>1763.681</ele>
        <time>2018-09-22T15:26:45Z</time>
      </trkpt>
      <trkpt lat="36.952689" lon="-3.341796">
        <ele>1757.761</ele>
        <time>2018-09-22T15:26:53Z</time>
      </trkpt>
      <trkpt lat="36.951862" lon="-3.342625">
        <ele>1752.317</ele>
        <time>2018-09-22T15:27:02Z</time>
      </trkpt>
      <trkpt lat="36.951161" lon="-3.34252"/>
      <trkpt lat="36.950948" lon="-3.343103">
        <ele>1739.240</ele>
        <time>2018-09-22T15:27:17Z</time>
      </trkpt>
      <trkpt lat="36.951409" lon="-3.343157">
        <ele>1737.146</ele>
        <time>2018-09-22T15:27:32Z</time>
      </trkpt>
      <trkpt lat="36.951797" lon="-3.342931">
        <ele>1737.927</ele>
        <time>2018-09-22T15:27:41Z</time>
      </trkpt>
      <trkpt lat="36.952382" lon="-3.34312"/>
      <trkpt lat="36.95271" lon="-3.343672"/>
      <trkpt lat="36.953964" lon="-3.343905">
        <ele>1717.094</ele>
        <time>2018-09-22T15:28:09Z</time>
      </trkpt>
      <trkpt lat="36.9544" lon="-3.344373"/>
      <trkpt lat="36.954443" lon="-3.345443">
        <ele>1712.234</ele>
        <time>2018-09-22T15:28:23Z</time>
      </trkpt>
      <trkpt lat="36.954702" lon="-3.346021">
        <ele>1709.481</ele>
        <time>2018-09-22T15:28:28Z</time>
      </trkpt>
      <trkpt lat="36.955911" lon="-3.346431">
        <ele>1699.161</ele>
        <time>2018-09-22T15:28:39Z</time>
      </trkpt>
      <trkpt lat="36.956933" lon="-3.347812">
        <ele>1683.817</ele>
        <time>2018-09-22T15:28:53Z</time>
      </trkpt>
      <trkpt lat="36.958355" lon="-3.34801"/>
      <trkpt lat="36.958525" lon="-3.348253">
        <ele>1671.790</ele>
        <time>2018-09-22T15:29:12Z</time>
      </trkpt>
      <trkpt lat="36.958465" lon="-3.348477">
        <ele>1668.466</ele>
        <time>2018-09-22T15:29:15Z</time>
      </trkpt>
      <trkpt lat="36.958157" lon="-3.34862"/>
      <trkpt lat="36.95742" lon="-3.348487"/>
      <trkpt lat="36.95633" lon="-3.348951"/>
      <trkpt lat="36.95556" lon="-3.347758"/>
      <trkpt lat="36.954422" lon="-3.347649">
        <ele>1626.091</ele>
        <time>2018-09-22T15:30:00Z</time>
      </trkpt>
      <trkpt lat="36.953907" lon="-3.347331">
        <ele>1620.734</ele>
        <time>2018-09-22T15:30:06Z</time>
      </trkpt>
      <trkpt lat="36.952901" lon="-3.347172">
        <ele>1610.213</ele>
        <time>2018-09-22T15:30:15Z</time>
      </trkpt>
      <trkpt lat="36.951902" lon="-3.347498">
        <ele>1603.443</ele>
        <time>2018-09-22T15:30:24Z</time>
      </trkpt>
      <trkpt lat="36.951087" lon="-3.347463">
        <ele>1596.207</ele>
        <time>2018-09-22T15:30:31Z</time>
      </trkpt>
      <trkpt lat="36.950104" lon="-3.346635">
        <ele>1585.708</ele>
        <time>2018-09-22T15:30:42Z</time>
      </trkpt>
      <trkpt lat="36.949452" lon="-3.346654">
        <ele>1579.713</ele>
        <time>2018-09-22T15:30:50Z</time>
      </trkpt>
      <trkpt lat="36.949599" lon="-3.347072">
        <ele>1579.219</ele>
        <time>2018-09-22T15:30:54Z</time>
      </trkpt>
      <trkpt lat="36.950264" lon="-3.34736"/>
      <trkpt lat="36.950596" lon="-3.347932">
        <ele>1576.011</ele>
        <time>2018-09-22T15:31:05Z</time>
      </trkpt>
      <trkpt lat="36.951622" lon="-3.348432">
        <ele>1568.761</ele>
        <time>2018-09-22T15:31:15Z</time>
      </trkpt>
      <trkpt lat="36.951875" lon="-3.34915"/>
      <trkpt lat="36.953711" lon="-3.350377">
        <ele>1555.034</ele>
        <time>2018-09-22T15:31:39Z</time>
      </trkpt>
      <trkpt lat="36.954492" lon="-3.352507">
        <ele>1538.837</ele>
        <time>2018-09-22T15:31:55Z</time>
      </trkpt>
      <trkpt lat="36.955371" lon="-3.352465">
        <ele>1534.243</ele>
        <time>2018-09-22T15:32:03Z</time>
      </trkpt>
      <trkpt lat="36.956267" lon="-3.35282"/>
      <trkpt lat="36.956878" lon="-3.353608">
        <ele>1520.010</ele>
        <time>2018-09-22T15:32:19Z</time>
      </trkpt>
      <trkpt lat="36.958712" lon="-3.354489">
        <ele>1497.708</ele>
        <time>2018-09-22T15:32:35Z</time>
      </trkpt>
      <trkpt lat="36.960728" lon="-3.355816">
        <ele>1477.726</ele>
        <time>2018-09-22T15:32:54Z</time>
      </trkpt>
      <trkpt lat="36.960943" lon="-3.357094">
        <ele>1471.632</ele>
        <time>2018-09-22T15:33:06Z</time>
      </trkpt>
      <trkpt lat="36.961206" lon="-3.357484">
        <ele>1468.013</ele>
        <time>2018-09-22T15:33:12Z</time>
      </trkpt>
      <trkpt lat="36.961694" lon="-3.357617">
        <ele>1466.584</ele>
        <time>2018-09-22T15:33:21Z</time>
      </trkpt>
      <trkpt lat="36.962208" lon="-3.358806">
        <ele>1458.374</ele>
        <time>2018-09-22T15:33:38Z</time>
      </trkpt>
      <trkpt lat="36.962017" lon="-3.359009">
        <ele>1453.850</ele>
        <time>2018-09-22T15:33:43Z</time>
      </trkpt>
      <trkpt lat="36.961752" lon="-3.358946">
        <ele>1448.837</ele>
        <time>2018-09-22T15:33:50Z</time>
      </trkpt>
      <trkpt lat="36.96184" lon="-3.358746"/>
      <trkpt lat="36.961697" lon="-3.358885">
        <ele>1453.222</ele>
        <time>2018-09-22T15:36:51Z</time>
      </trkpt>
      <trkpt lat="36.962254" lon="-3.358994">
        <ele>1457.562</ele>
        <time>2018-09-22T15:37:18Z</time>
      </trkpt>
      <trkpt lat="36.962408" lon="-3.359845">
        <ele>1451.608</ele>
        <time>2018-09-22T15:37:56Z</time>
      </trkpt>
      <trkpt lat="36.96232" lon="-3.359073"/>
      <trkpt lat="36.961928" lon="-3.358006">
        <ele>1471.974</ele>
        <time>2018-09-22T15:39:39Z</time>
      </trkpt>
    </trkseg>
  </trk>
</gpx>
